[[{"header":{"parameterUnit":"m.s-1","parameterCategory":1,"la1":30.6,"la2":28.766,"lo1":-90.7593,"lo2":-88.6598,"dy":0.0162,"dx":0.0183,"nx":116,"ny":114,"refTime":"2024-02-06T18:00:00:Z","depth":0,"parameterNumber":2,"parameterNumberName":"U-component_of_WINDS"},"data":[0.0,0.0,0.0,0.0,0.0,0.0,0.0,0.0,0.0,0.0,0.0,0.0,0.0,0.0,0.0,0.0,0.0,0.0,0.0,0.0,0.0,0.0,0.0,0.0,0.0,0.0,0.0,0.0,0.0,0.0,0.0,0.0,0.0,0.0,0.0,0.0,0.0,0.0,0.0,0.0,0.0,0.0,0.0,0.0,0.0,0.0,0.0,0.0,0.0,0.0,0.0,0.0,0.0,0.0,0.0,0.0,0.0,0.0,0.0,0.0,0.0,0.0,0.0,0.0,0.0,0.0,0.0,0.0,0.0,0.0,0.0,0.0,0.0,0.0,0.0,0.0,0.0,0.0,0.0,0.0,0.0,0.0,0.0,0.0,0.0,0.0,0.0,0.0,0.0,0.0,0.0,0.0,0.0,0.0,0.0,0.0,0.0,0.0,0.0,0.0,0.0,0.0,0.0,0.0,0.0,0.0,0.0,0.0,0.0,0.0,0.0,0.0,0.0,0.0,0.0,0.0,0.0,0.0,0.0,0.0,0.0,0.0,0.0,0.0,0.0,0.0,0.0,0.0,0.0,0.0,0.0,0.0,0.0,0.0,0.0,0.0,0.0,0.0,0.0,0.0,0.0,0.0,0.0,0.0,0.0,0.0,0.0,0.0,0.0,0.0,0.0,0.0,0.0,0.0,0.0,0.0,0.0,0.0,0.0,0.0,0.0,0.0,0.0,0.0,0.0,0.0,0.0,0.0,0.0,0.0,0.0,0.0,0.0,0.0,0.0,0.0,0.0,0.0,0.0,0.0,0.0,0.0,0.0,0.0,0.0,0.0,0.0,0.0,0.0,0.0,0.0,0.0,0.0,0.0,0.0,0.0,0.0,0.0,0.0,0.0,0.0,0.0,0.0,0.0,0.0,0.0,0.0,0.0,0.0,0.0,0.0,0.0,0.0,0.0,0.0,0.0,0.0,0.0,0.0,0.0,0.0,0.0,0.0,0.0,0.0,0.0,0.0,0.0,0.0,0.0,0.0,0.0,0.0,0.0,0.0,0.0,0.0,0.0,0.0,0.0,0.0,0.0,0.0,0.0,0.0,0.0,0.0,0.0,0.0,0.0,0.0,0.0,0.0,0.0,0.0,0.0,0.0,0.0,0.0,0.0,0.0,0.0,0.0,0.0,0.0,0.0,0.0,0.0,0.0,0.0,0.0,0.0,0.0,0.0,0.0,0.0,0.0,0.0,0.0,0.0,0.0,0.0,0.0,0.0,0.0,0.0,0.0,0.0,0.0,0.0,0.0,0.0,0.0,0.0,0.0,0.0,0.0,0.0,0.0,0.0,0.0,0.0,0.0,0.0,0.0,0.0,0.0,0.0,0.0,0.0,0.0,0.0,0.0,0.0,0.0,0.0,0.0,0.0,0.0,0.0,0.0,0.0,0.0,0.0,0.0,0.0,0.0,0.0,0.0,0.0,0.0,0.0,0.0,0.0,0.0,0.0,0.0,0.0,0.0,0.0,0.0,0.0,0.0,0.0,0.0,0.0,0.0,0.0,0.0,0.0,0.0,0.0,0.0,0.0,0.0,0.0,0.0,0.0,0.0,0.0,0.0,0.0,0.0,0.0,0.0,0.0,0.0,0.0,0.0,0.0,0.0,0.0,0.0,0.0,0.0,0.0,0.0,0.0,0.0,0.0,0.0,0.0,0.0,0.0,0.0,0.0,0.0,0.0,0.0,0.0,0.0,0.0,0.0,0.0,0.0,0.0,0.0,0.0,0.0,0.0,0.0,0.0,0.0,0.0,0.0,0.0,0.0,0.0,0.0,0.0,0.0,0.0,0.0,0.0,0.0,0.0,0.0,0.0,0.0,0.0,0.0,0.0,0.0,0.0,0.0,0.0,0.0,0.0,0.0,0.0,0.0,0.0,0.0,0.0,0.0,0.0,0.0,0.0,0.0,0.0,0.0,0.0,0.0,0.0,0.0,0.0,0.0,0.0,0.0,0.0,0.0,0.0,0.0,0.0,0.0,0.0,0.0,0.0,0.0,0.0,0.0,0.0,0.0,0.0,0.0,0.0,0.0,0.0,0.0,0.0,0.0,0.0,0.0,0.0,0.0,0.0,0.0,0.0,0.0,0.0,0.0,0.0,0.0,0.0,0.0,0.0,0.0,0.0,0.0,0.0,0.0,0.0,0.0,0.0,0.0,0.0,0.0,0.0,0.0,0.0,0.0,0.0,0.0,0.0,0.0,0.0,0.0,0.0,0.0,0.0,0.0,0.0,0.0,0.0,0.0,0.0,0.0,0.0,0.0,0.0,0.0,0.0,0.0,0.0,0.0,0.0,0.0,0.0,0.0,0.0,0.0,0.0,0.0,0.0,0.0,0.0,0.0,0.0,0.0,0.0,0.0,0.0,0.0,0.0,0.0,0.0,0.0,0.0,0.0,0.0,0.0,0.0,0.0,0.0,0.0,0.0,0.0,0.0,0.0,0.0,0.0,0.0,0.0,0.0,0.0,0.0,0.0,0.0,0.0,0.0,0.0,0.0,0.0,0.0,0.0,0.0,0.0,0.0,0.0,0.0,0.0,0.0,0.0,0.0,0.0,0.0,0.0,0.0,0.0,0.0,0.0,0.0,0.0,0.0,0.0,0.0,0.0,0.0,0.0,0.0,0.0,0.0,0.0,0.0,0.0,0.0,0.0,0.0,0.0,0.0,0.0,0.0,0.0,0.0,0.0,0.0,0.0,0.0,0.0,0.0,0.0,0.0,0.0,0.0,0.0,0.0,0.0,0.0,0.0,0.0,0.0,0.0,0.0,0.0,0.0,0.0,0.0,0.0,0.0,0.0,0.0,0.0,0.0,0.0,0.0,0.0,0.0,0.0,0.0,0.0,0.0,0.0,0.0,0.0,0.0,0.0,0.0,0.0,0.0,0.0,0.0,0.0,0.0,0.0,0.0,0.0,0.0,0.0,0.0,0.0,0.0,0.0,0.0,0.0,0.0,0.0,0.0,0.0,0.0,0.0,0.0,0.0,0.0,0.0,0.0,0.0,0.0,0.0,0.0,0.0,0.0,0.0,0.0,0.0,0.0,0.0,0.0,0.0,0.0,0.0,0.0,0.0,0.0,0.0,0.0,0.0,0.0,0.0,0.0,0.0,0.0,0.0,0.0,0.0,0.0,0.0,0.0,0.0,0.0,0.0,0.0,0.0,0.0,0.0,0.0,0.0,0.0,0.0,0.0,0.0,0.0,0.0,0.0,0.0,0.0,0.0,0.0,0.0,0.0,0.0,0.0,0.0,0.0,0.0,0.0,0.0,0.0,0.0,0.0,0.0,0.0,0.0,0.0,0.0,0.0,0.0,0.0,0.0,0.0,0.0,0.0,0.0,0.0,0.0,0.0,0.0,0.0,0.0,0.0,0.0,0.0,0.0,0.0,0.0,0.0,0.0,0.0,0.0,0.0,0.0,0.0,0.0,0.0,0.0,0.0,0.0,0.0,0.0,0.0,0.0,0.0,0.0,0.0,0.0,0.0,0.0,0.0,0.0,0.0,0.0,0.0,0.0,0.0,0.0,0.0,0.0,0.0,0.0,0.0,0.0,0.0,0.0,0.0,0.0,0.0,0.0,0.0,0.0,0.0,0.0,0.0,0.0,0.0,0.0,0.0,0.0,0.0,0.0,0.0,0.0,0.0,0.0,0.0,0.0,0.0,0.0,0.0,0.0,0.0,0.0,0.0,0.0,0.0,0.0,0.0,0.0,0.0,0.0,0.0,0.0,0.0,0.0,0.0,0.0,0.0,0.0,0.0,0.0,0.0,0.0,0.0,0.0,0.0,0.0,0.0,0.0,0.0,0.0,0.0,0.0,0.0,0.0,0.0,0.0,0.0,0.0,0.0,0.0,0.0,0.0,0.0,0.0,0.0,0.0,0.0,0.0,0.0,0.0,0.0,0.0,0.0,0.0,0.0,0.0,0.0,0.0,0.0,0.0,0.0,0.0,0.0,0.0,0.0,0.0,0.0,0.0,0.0,0.0,0.0,0.0,0.0,0.0,0.0,0.0,0.0,0.0,0.0,0.0,0.0,0.0,0.0,0.0,0.0,0.0,0.0,0.0,0.0,0.0,0.0,0.0,0.0,0.0,0.0,0.0,0.0,0.0,0.0,0.0,0.0,0.0,0.0,0.0,0.0,0.0,0.0,0.0,0.0,0.0,0.0,0.0,0.0,0.0,0.0,0.0,0.0,0.0,0.0,0.0,0.0,0.0,0.0,0.0,0.0,0.0,0.0,0.0,0.0,0.0,0.0,0.0,0.0,0.0,0.0,0.0,0.0,0.0,0.0,0.0,0.0,0.0,0.0,0.0,0.0,0.0,0.0,0.0,0.0,0.0,0.0,0.0,0.0,0.0,0.0,0.0,0.0,0.0,0.0,0.0,0.0,0.0,0.0,0.0,0.0,0.0,0.0,0.0,0.0,0.0,0.0,0.0,0.0,0.0,0.0,0.0,0.0,0.0,0.0,0.0,0.0,0.0,0.0,0.0,0.0,0.0,0.0,0.0,0.0,0.0,0.0,0.0,0.0,0.0,0.0,0.0,0.0,0.0,0.0,0.0,0.0,0.0,0.0,0.0,0.0,0.0,0.0,0.0,0.0,0.0,0.0,0.0,0.0,0.0,0.0,0.0,0.0,0.0,0.0,0.0,0.0,0.0,0.0,0.0,0.0,0.0,0.0,0.0,0.0,0.0,0.0,0.0,0.0,0.0,0.0,0.0,0.0,0.0,0.0,0.0,0.0,0.0,0.0,0.0,0.0,0.0,0.0,0.0,0.0,0.0,0.0,0.0,0.0,0.0,0.0,0.0,0.0,0.0,0.0,0.0,0.0,0.0,0.0,0.0,0.0,0.0,0.0,0.0,0.0,0.0,0.0,0.0,0.0,0.0,0.0,0.0,0.0,0.0,0.0,0.0,0.0,0.0,0.0,0.0,0.0,0.0,0.0,0.0,0.0,0.0,0.0,0.0,0.0,0.0,0.0,0.0,0.0,0.0,0.0,0.0,0.0,0.0,0.0,0.0,0.0,0.0,0.0,0.0,0.0,0.0,0.0,0.0,0.0,0.0,0.0,0.0,0.0,0.0,0.0,0.0,0.0,0.0,0.0,0.0,0.0,0.0,0.0,0.0,0.0,0.0,0.0,0.0,0.0,0.0,0.0,0.0,0.0,0.0,0.0,0.0,0.0,0.0,0.0,0.0,0.0,0.0,0.0,0.0,0.0,0.0,0.0,0.0,0.0,0.0,0.0,0.0,0.0,0.0,0.0,0.0,0.0,0.0,0.0,0.0,0.0,0.0,0.0,0.0,0.0,0.0,0.0,0.0,0.0,0.0,0.0,0.0,0.0,0.0,0.0,0.0,0.0,0.0,0.0,0.0,0.0,0.0,0.0,0.0,0.0,0.0,0.0,0.0,0.0,0.0,0.0,0.0,0.0,0.0,0.0,0.0,0.0,0.0,0.0,0.0,0.0,0.0,0.0,0.0,0.0,0.0,0.0,0.0,0.0,0.0,0.0,0.0,0.0,0.0,0.0,0.0,0.0,0.0,0.0,0.0,0.0,0.0,0.0,0.0,0.0,0.0,0.0,0.0,0.0,0.0,0.0,0.0,0.0,0.0,0.0,0.0,0.0,0.0,0.0,0.0,0.0,0.0,0.0,0.0,0.0,0.0,0.0,0.0,0.0,0.0,0.0,0.0,0.0,0.0,0.0,0.0,0.0,0.0,0.0,0.0,0.0,0.0,0.0,0.0,0.0,0.0,0.0,0.0,0.0,0.0,0.0,0.0,0.0,0.0,0.0,0.0,0.0,0.0,0.0,0.0,0.0,0.0,0.0,0.0,0.0,0.0,0.0,0.0,0.0,0.0,0.0,0.0,0.0,0.0,0.0,0.0,0.0,0.0,0.0,0.0,0.0,0.0,0.0,0.0,0.0,0.0,0.0,0.0,0.0,0.0,0.0,0.0,0.0,0.0,0.0,0.0,0.0,0.0,0.0,0.0,0.0,0.0,0.0,0.0,0.0,0.0,0.0,0.0,0.0,0.0,0.0,0.0,0.0,0.0,0.0,0.0,0.0,0.0,-3.3445,-3.3119,0.0,0.0,0.0,0.0,0.0,0.0,0.0,0.0,0.0,0.0,0.0,0.0,0.0,0.0,0.0,0.0,0.0,0.0,0.0,0.0,0.0,0.0,0.0,0.0,0.0,0.0,-3.4739,-3.4543,-3.4109,-3.4413,0.0,0.0,0.0,0.0,-3.354,-3.3259,-3.347,-3.4299,-3.4299,-3.5002,-3.6332,-3.6609,-3.6609,-3.6405,0.0,0.0,0.0,0.0,0.0,0.0,0.0,0.0,0.0,0.0,0.0,0.0,0.0,0.0,0.0,0.0,0.0,0.0,0.0,0.0,0.0,0.0,0.0,0.0,0.0,0.0,0.0,0.0,0.0,0.0,0.0,0.0,0.0,0.0,0.0,0.0,0.0,0.0,0.0,0.0,0.0,0.0,0.0,0.0,0.0,0.0,0.0,0.0,0.0,0.0,0.0,0.0,0.0,0.0,0.0,0.0,0.0,0.0,0.0,0.0,0.0,0.0,0.0,0.0,0.0,0.0,0.0,0.0,0.0,0.0,-3.5855,-3.4374,0.0,0.0,0.0,0.0,0.0,0.0,0.0,0.0,0.0,0.0,0.0,0.0,0.0,0.0,0.0,0.0,0.0,0.0,0.0,0.0,0.0,0.0,0.0,-3.5359,-3.503,-3.4486,-3.4718,-3.4408,-3.3246,-3.4489,-3.4361,-3.2354,-3.363,-3.3762,-3.2365,-3.2918,-3.3721,-3.468,-3.5403,-3.6584,-3.8216,-3.8868,-3.8617,-3.7687,-3.7008,0.0,0.0,0.0,0.0,0.0,0.0,0.0,0.0,0.0,0.0,0.0,0.0,0.0,0.0,0.0,0.0,0.0,0.0,0.0,0.0,0.0,0.0,0.0,0.0,0.0,0.0,0.0,0.0,0.0,0.0,0.0,0.0,0.0,0.0,0.0,0.0,0.0,0.0,0.0,0.0,0.0,0.0,0.0,0.0,0.0,0.0,0.0,0.0,0.0,0.0,0.0,0.0,0.0,0.0,0.0,0.0,0.0,0.0,0.0,0.0,0.0,0.0,0.0,-4.1254,-4.2283,-4.3413,-4.3092,-4.3193,-4.3313,-3.9094,-3.6586,-3.5579,-3.5378,0.0,0.0,0.0,0.0,0.0,0.0,0.0,0.0,0.0,0.0,0.0,0.0,0.0,0.0,0.0,0.0,0.0,0.0,0.0,0.0,0.0,-3.4739,-3.4714,-3.6034,-3.3928,-3.332,-3.5332,-3.3711,-3.2946,-3.3448,-3.3383,-3.3189,-3.3011,-3.352,-3.4098,-3.468,-3.809,-4.0601,-4.2233,-4.3263,-4.3413,-4.2685,-3.9295,-3.8592,-3.9848,0.0,0.0,0.0,0.0,0.0,0.0,0.0,0.0,0.0,0.0,0.0,0.0,0.0,0.0,0.0,0.0,0.0,0.0,0.0,0.0,0.0,0.0,0.0,0.0,0.0,0.0,0.0,0.0,0.0,0.0,0.0,0.0,0.0,0.0,0.0,0.0,0.0,0.0,0.0,0.0,0.0,-3.121,-3.1286,0.0,0.0,0.0,0.0,0.0,0.0,0.0,0.0,0.0,0.0,0.0,0.0,0.0,-3.9697,-4.1307,-4.2785,-4.3438,-4.3288,-4.5296,-4.5874,-4.5171,-4.5573,-4.5799,-4.5799,-4.4669,0.0,-3.8969,-3.799,0.0,0.0,0.0,0.0,0.0,0.0,0.0,0.0,0.0,0.0,0.0,0.0,0.0,0.0,0.0,0.0,0.0,0.0,0.0,0.0,0.0,-3.4868,-3.4799,-3.5328,-3.6103,-3.5907,-3.4433,-3.4982,-3.4581,-3.2931,-3.3022,-3.3111,-3.3111,-3.3621,-3.5102,-3.7513,-4.1078,-4.3363,-4.4418,-4.5196,-4.5447,-4.5146,-4.3438,-4.1706,-3.9973,-3.8668,0.0,0.0,0.0,0.0,0.0,0.0,0.0,0.0,0.0,0.0,0.0,0.0,0.0,0.0,0.0,0.0,0.0,0.0,0.0,0.0,0.0,0.0,0.0,0.0,0.0,0.0,0.0,0.0,0.0,0.0,0.0,0.0,0.0,0.0,0.0,0.0,0.0,0.0,0.0,-3.1913,-3.2692,-3.2365,-3.2616,-3.234,0.0,0.0,0.0,0.0,0.0,0.0,0.0,0.0,0.0,-3.9975,-4.1003,-4.2333,-4.4016,-4.5045,-4.6225,-4.7531,-4.8837,-4.969,-5.0117,-5.0042,-5.0193,-5.0393,-4.9238,-4.7405,-4.4995,-4.1706,-3.9044,-3.6935,0.0,0.0,0.0,0.0,-3.5278,-3.5755,0.0,0.0,0.0,0.0,0.0,0.0,0.0,0.0,0.0,0.0,0.0,0.0,-3.503,-3.5427,-3.5817,-3.6343,-3.8326,-3.828,-3.5188,-3.6006,-3.5403,-3.2759,-3.2792,-3.2842,-3.2842,-3.4374,-3.7136,-4.1178,-4.4342,-4.6401,-4.7405,-4.8109,-4.8335,-4.8184,-4.7908,-4.5547,-4.1706,-4.0149,-3.8944,-3.7964,0.0,0.0,0.0,0.0,0.0,0.0,0.0,0.0,0.0,0.0,0.0,0.0,0.0,0.0,0.0,0.0,0.0,0.0,0.0,0.0,0.0,0.0,0.0,0.0,0.0,0.0,0.0,0.0,0.0,0.0,0.0,0.0,0.0,0.0,0.0,0.0,0.0,-3.3294,-3.4223,-3.3395,-3.4399,-3.4349,0.0,0.0,0.0,0.0,0.0,0.0,-3.8994,-4.0275,-4.1706,-4.3363,-4.4242,-4.5623,-4.7556,-4.8134,-4.9515,-5.1699,-5.2277,-5.2955,-5.3683,-5.3457,-5.3406,-5.3432,-5.2226,-5.1147,-4.9891,-4.5321,-4.2133,-4.0023,-3.8944,-3.814,-3.7663,-3.7513,-3.7789,-3.8266,0.0,0.0,0.0,0.0,0.0,0.0,0.0,0.0,0.0,0.0,0.0,-3.3845,-3.5641,-3.6476,-3.8156,-4.126,-3.9436,-3.8632,-3.9942,-3.5859,-3.3507,-3.3796,-3.2817,-3.2265,-3.2265,-3.6433,-4.0777,-4.5196,-4.7983,-5.0444,-5.2578,-5.3658,-5.3858,-5.3281,-5.2277,-5.0218,-4.723,-4.2955,-4.1781,-4.2233,-3.7414,0.0,0.0,0.0,0.0,0.0,0.0,0.0,0.0,0.0,0.0,0.0,0.0,0.0,0.0,0.0,0.0,0.0,0.0,0.0,0.0,0.0,0.0,0.0,0.0,0.0,0.0,0.0,0.0,0.0,0.0,0.0,0.0,0.0,0.0,0.0,0.0,0.0,0.0,-3.4048,-3.6684,0.0,0.0,0.0,0.0,-3.7638,-3.9295,-4.0752,-4.1936,-4.3489,-4.5146,-4.6828,-4.8435,-5.0569,-5.3256,-5.3858,-5.4486,-5.5139,-5.5691,-5.5164,-5.3708,-5.4235,-5.3934,-5.2955,-5.2879,-5.2528,-5.1724,-4.8284,-4.5573,-4.3438,-4.2389,-4.158,-4.0974,-4.0501,-4.0598,-4.0924,0.0,0.0,0.0,0.0,0.0,0.0,0.0,0.0,-3.193,-3.2089,-3.3374,-3.4997,-3.6897,-3.8722,-4.0798,-4.3398,-4.3457,-4.2977,-4.2146,-3.8792,-3.6734,-3.6558,-3.4123,-3.4098,-3.696,-3.9973,-4.3514,-4.7606,-5.0368,-5.2327,-5.3432,-5.421,-5.4461,-5.4235,-5.3858,-5.2729,-5.082,-4.6024,-4.3212,-4.1681,-3.8843,-3.7362,0.0,0.0,0.0,0.0,0.0,0.0,0.0,0.0,0.0,0.0,0.0,0.0,0.0,0.0,0.0,0.0,0.0,0.0,0.0,0.0,0.0,0.0,0.0,0.0,0.0,0.0,0.0,0.0,0.0,0.0,0.0,0.0,0.0,0.0,0.0,0.0,0.0,-3.8668,-4.0978,0.0,-3.9472,-3.9747,-4.04,-4.1153,-4.276,-4.4518,-4.6386,-4.7657,-4.9289,-5.1297,-5.1925,-5.3055,-5.4762,-5.4637,-5.4838,-5.539,-5.5591,-5.5189,-5.426,-5.4461,-5.416,-5.3406,-5.308,-5.2804,-5.2528,-5.1348,-4.9339,-4.6853,-4.5397,-4.4493,-4.389,-4.2961,-4.2986,-4.3338,0.0,0.0,0.0,0.0,0.0,0.0,0.0,0.0,-3.125,-3.1521,-3.3652,-3.5975,-3.8204,-4.1147,-4.389,-4.61,-4.6476,-4.5799,-4.394,-4.0174,-3.7688,-3.6935,-3.4977,-3.5981,-4.0425,-4.3413,-4.6728,-5.0444,-5.2854,-5.431,-5.4838,-5.5214,-5.539,-5.539,-5.539,-5.4888,-5.3783,-4.9715,-4.6175,-4.3031,-4.0676,-3.9597,-3.9019,0.0,0.0,0.0,0.0,0.0,0.0,0.0,0.0,0.0,0.0,0.0,0.0,0.0,0.0,0.0,0.0,0.0,0.0,0.0,0.0,0.0,0.0,0.0,0.0,0.0,0.0,0.0,0.0,0.0,0.0,0.0,0.0,0.0,0.0,-3.8868,-4.143,-4.2278,-4.4895,-4.5773,-4.3765,-4.4123,-4.4694,-4.5422,-4.6878,-4.8435,-5.0092,-5.1222,-5.2402,-5.3658,-5.3884,-5.4536,-5.5641,-5.5114,-5.5114,-5.5666,-5.5491,-5.4988,-5.4285,-5.4285,-5.3959,-5.3406,-5.308,-5.2929,-5.2904,-5.2729,-5.1574,-4.9766,-4.8485,-4.7657,-4.6979,-4.5673,-4.5422,-4.5623,0.0,0.0,0.0,0.0,0.0,0.0,0.0,-2.9684,-3.0485,-3.0482,-3.3533,-3.6741,-3.9474,-4.374,-4.7305,-4.9515,-4.8134,-4.6677,-4.5623,-3.9824,-3.5881,-3.4826,-3.5332,-3.7814,-4.2313,-4.6663,-5.0444,-5.3758,-5.5415,-5.652,-5.7022,-5.7047,-5.7072,-5.7072,-5.7072,-5.6771,-5.6093,-5.3984,-5.087,-4.6968,-4.3031,-4.2434,-4.3338,0.0,0.0,0.0,0.0,0.0,0.0,0.0,0.0,0.0,0.0,0.0,0.0,0.0,0.0,0.0,0.0,0.0,0.0,0.0,0.0,0.0,0.0,0.0,0.0,0.0,0.0,0.0,0.0,0.0,0.0,0.0,0.0,0.0,-3.8115,-4.148,-4.4166,-4.4769,-4.8209,-4.949,-4.6853,-4.8033,-4.9414,-5.0494,-5.1574,-5.2427,-5.298,-5.4009,-5.431,-5.3758,-5.4285,-5.5089,-5.6143,-5.5641,-5.5641,-5.6143,-5.5616,-5.4787,-5.3708,-5.3708,-5.3406,-5.2929,-5.2904,-5.2904,-5.2854,-5.2302,-5.2076,-5.2,-5.1448,-5.0896,-5.0193,-4.851,-4.7883,-4.7707,0.0,0.0,0.0,0.0,0.0,0.0,-2.8457,-2.9295,-2.9987,-3.0427,-3.4896,-3.8905,-4.1241,-4.5799,-4.959,-5.1825,-4.9012,-4.6943,-4.6702,-3.9823,-3.5805,-3.5952,-3.8366,-4.2007,-4.6914,-4.8937,-5.1599,-5.4913,-5.6194,-5.6897,-5.7047,-5.7474,-5.765,-5.7675,-5.8077,-5.7725,-5.6796,-5.662,-5.4988,-5.2126,-4.7431,-4.4844,-4.3539,0.0,0.0,0.0,0.0,0.0,0.0,0.0,0.0,0.0,0.0,0.0,0.0,0.0,0.0,0.0,0.0,0.0,0.0,0.0,0.0,0.0,0.0,0.0,0.0,0.0,0.0,0.0,0.0,0.0,0.0,0.0,-3.794,-4.0373,-4.0373,-4.4091,-4.7431,-4.9238,-5.1423,-5.2829,-5.2879,-5.2929,-5.3256,-5.3959,-5.3934,-5.4135,-5.4687,-5.4612,-5.4687,-5.4913,-5.5089,-5.5114,-5.5013,-5.5265,-5.5265,-5.5013,-5.4863,-5.4411,-5.3708,-5.3708,-5.3406,-5.2904,-5.2503,-5.2327,-5.2277,-5.1724,-5.1272,-5.087,-5.072,-5.0318,-4.9665,-4.8385,-4.7431,-4.6577,0.0,0.0,0.0,0.0,0.0,0.0,-2.8008,-2.8992,-2.9984,-3.0956,-3.6062,-4.0537,-4.2954,-4.7031,-5.0117,-5.1423,-4.8611,-4.61,-4.4468,-3.927,-3.6784,-3.804,-4.153,-4.5422,-4.9741,-5.18,-5.4135,-5.6796,-5.7424,-5.775,-5.775,-5.8077,-5.8353,-5.8579,-5.8905,-5.8679,-5.8052,-5.7951,-5.6997,-5.5315,-5.2201,-4.9741,-4.7606,-4.4568,-4.3589,-4.3539,-4.1153,-4.0902,-4.1404,-3.9546,0.0,0.0,0.0,0.0,0.0,0.0,0.0,0.0,0.0,0.0,0.0,0.0,0.0,0.0,0.0,0.0,0.0,0.0,0.0,0.0,0.0,0.0,0.0,0.0,-4.0824,-4.374,-4.4669,-4.7405,-5.0142,-5.2402,-5.3909,-5.5114,-5.5993,-5.5792,-5.5742,-5.6068,-5.5792,-5.544,-5.5064,-5.4963,-5.4838,-5.4687,-5.4913,-5.4888,-5.4561,-5.4637,-5.4511,-5.421,-5.3984,-5.3708,-5.3381,-5.3381,-5.308,-5.2578,-5.2251,-5.1975,-5.1724,-5.1147,-5.0594,-5.0067,0.0,0.0,0.0,0.0,-4.6552,-4.5497,0.0,0.0,0.0,0.0,0.0,0.0,-2.7375,-2.8573,-2.9947,-3.1582,-3.6713,-4.1181,-4.3755,-4.6985,-4.9113,-4.9289,-4.7179,-4.4292,-4.0651,-3.8693,-3.8743,-4.1153,-4.4794,-4.836,-5.1774,-5.4838,-5.7173,-5.873,-5.878,-5.8805,-5.8805,-5.888,-5.9106,-5.9508,-5.9684,-5.9709,-5.9533,-5.8704,-5.7951,-5.7273,-5.6771,-5.5465,-5.3306,-4.8786,-4.8159,-4.9264,-4.6125,-4.4166,-4.3017,-4.2158,0.0,0.0,0.0,0.0,0.0,0.0,0.0,0.0,0.0,0.0,0.0,0.0,0.0,0.0,0.0,0.0,0.0,0.0,0.0,0.0,0.0,0.0,0.0,0.0,-4.4192,-4.7431,-4.9565,-5.0845,-5.2277,-5.4235,-5.544,-5.6369,-5.6972,-5.6972,-5.6997,-5.7123,-5.6947,-5.6219,-5.4737,-5.4988,0.0,0.0,0.0,-5.4436,-5.4386,-5.3934,-5.3683,-5.3607,-5.3155,-5.2929,-5.2929,-5.2854,-5.2578,-5.2101,-5.1975,-5.1599,-5.1046,-5.0469,-4.9866,-4.9314,-4.9314,-4.9012,-4.8385,-4.6803,-4.5573,-4.4694,0.0,0.0,0.0,0.0,0.0,0.0,-2.6602,-2.7465,-2.8734,-3.0833,-3.4981,-3.8479,-4.0275,-4.3522,-4.6125,-4.7481,-4.4769,-4.2082,-3.9998,-4.0275,-4.2078,-4.5639,-4.8284,-5.1398,-5.5164,-5.6771,-5.7951,-5.873,-5.9131,-5.9357,-5.9357,-5.9809,-5.9834,-5.9558,-6.0914,-6.1014,-6.0211,-6.0914,-6.0362,-5.9006,-5.8905,-5.7072,-5.4185,-5.2352,-5.1071,-4.9992,-4.7983,-4.7933,-4.846,-4.6125,-4.5648,-4.5422,-4.2137,-3.9346,0.0,0.0,0.0,0.0,0.0,0.0,0.0,0.0,0.0,0.0,0.0,0.0,0.0,0.0,0.0,0.0,0.0,0.0,0.0,-4.3363,-4.6728,-4.959,-5.1373,-5.2553,-5.3381,-5.3808,-5.4863,-5.5942,-5.6947,-5.662,-5.6746,-5.7675,-5.647,-5.5566,-5.5239,-5.4461,-5.3934,-5.3708,-5.3808,-5.3658,-5.3256,-5.3557,-5.3482,-5.308,-5.298,0.0,-5.2904,-5.2477,-5.2201,-5.2051,-5.1147,-5.0419,-4.9866,-4.9314,-4.851,-4.7606,-4.7606,-4.7531,-4.7305,-4.61,-4.5522,-4.5196,0.0,0.0,0.0,0.0,0.0,0.0,-2.6393,-2.7165,-2.8479,-3.0865,-3.4325,-3.7346,-3.939,-4.1455,-4.2892,-4.3463,-4.0798,-3.927,-3.9698,-4.2032,-4.5146,-4.9038,-5.2101,-5.4888,-5.7399,-5.8529,-5.9257,-5.9508,-5.9784,-5.9759,-5.9508,-6.006,-6.0161,-5.996,-6.109,-6.1115,-6.0387,-6.124,-6.0939,-5.9935,-6.0236,-5.9357,-5.7675,-5.5717,-5.4461,-5.3532,-5.2151,-5.1473,-5.0971,-4.9012,-4.7807,-4.6728,-4.4518,-4.1907,-3.9346,0.0,0.0,0.0,0.0,0.0,0.0,0.0,0.0,0.0,0.0,0.0,0.0,0.0,0.0,-3.7638,-3.9019,0.0,-4.4317,-4.7079,-4.9163,-5.1021,-5.2678,-5.3356,-5.3808,-5.411,-5.4888,-5.5817,-5.6922,-5.6796,-5.6872,-5.7424,-5.6445,-5.5566,-5.5013,-5.416,-5.3582,-5.3331,-5.3306,-5.3181,-5.2929,-5.3181,-5.3181,-5.2929,-5.2929,-5.2779,-5.2503,-5.2226,-5.18,-5.1222,-5.067,-4.9941,-4.9113,-4.8284,-4.7631,-4.7043,-4.6828,-4.6552,-4.62,-4.5372,-4.4869,-4.4518,0.0,0.0,0.0,0.0,0.0,0.0,0.0,-2.6866,-2.8128,-3.0793,-3.3355,-3.5827,-3.8161,-3.8996,-3.9222,-3.8959,-3.759,-3.7877,-4.0411,-4.418,-4.8109,-5.2226,-5.5691,-5.8027,-5.9131,-6.0035,-6.0487,-6.0487,-6.0487,-6.0261,-5.9834,-6.0387,-6.0588,-6.0512,-6.119,-6.119,-6.0688,-6.1266,-6.1165,-6.0663,-6.104,-6.1115,-6.0738,-5.8177,-5.7273,-5.7198,-5.5993,-5.3909,-5.1674,-5.0971,-4.8912,-4.6577,-4.6351,-4.4443,-4.1932,-4.0049,-3.8417,0.0,0.0,0.0,0.0,0.0,0.0,0.0,0.0,-3.4977,-3.6031,-3.7262,-3.9195,-4.1254,-4.3263,-4.5447,-4.7757,-5.0193,-5.1172,-5.2051,-5.3356,-5.3557,-5.3758,-5.4336,-5.4988,-5.5792,-5.6771,-5.6771,-5.6771,-5.6872,-5.6168,-5.534,-5.4436,-5.3858,-5.3356,-5.2929,-5.2929,-5.2879,-5.2779,-5.2879,-5.2879,-5.2779,-5.2779,-5.2528,-5.2101,-5.1875,-5.1222,-5.0243,-4.9916,-4.9264,-4.836,-4.7255,-4.6803,-4.6753,-4.62,-4.5723,-4.5271,-4.492,-4.4443,-4.389,0.0,0.0,0.0,0.0,0.0,0.0,0.0,0.0,-2.6782,-2.9445,-3.0621,-3.1787,-3.3311,-3.4168,-3.4775,-3.5315,-3.7994,-4.0815,-4.3584,-4.7186,-5.1297,-5.6168,-5.8202,-5.9734,-6.0889,-6.1014,-6.109,-6.109,-6.109,-6.1065,-6.1014,-6.1567,-6.1567,-6.114,-6.2169,-6.2345,-6.1843,-6.2395,-6.232,-6.1768,-6.1341,-6.0864,-6.0211,-5.8478,-5.8102,-5.8278,-5.6696,-5.3733,-5.0745,-5.1624,-5.0042,-4.7883,-4.8837,-4.7581,-4.5221,-4.2615,-3.9648,-3.6784,-3.5027,-3.3922,-3.3345,-3.3721,-3.4223,-3.5253,0.0,-3.8693,-3.9597,-4.1232,-4.2886,-4.4443,-4.5698,-4.7732,-4.9665,-5.0971,-5.2076,-5.2804,-5.298,-5.3005,-5.3206,-5.3733,-5.4737,-5.5616,-5.6244,-5.5867,-5.5767,-5.6269,-5.4863,-5.3934,-5.3808,-5.3306,-5.298,-5.2929,-5.2929,-5.2678,-5.2201,-5.2678,-5.2678,-5.2201,-5.2201,-5.2176,-5.2076,-5.1071,-5.0268,-4.9615,-4.8134,-4.7431,-4.723,-4.6125,-4.5673,-4.5623,-4.5045,-4.4769,-4.4769,-4.5221,-4.502,-4.4443,0.0,0.0,0.0,0.0,0.0,0.0,0.0,0.0,0.0,-2.8184,-2.9361,-3.0368,-3.1334,-3.2035,-3.2241,-3.1662,-3.6172,-4.0432,-4.3614,-4.8792,-5.3711,-5.8352,-6.0048,-6.119,-6.1642,-6.1969,-6.1994,-6.1667,-6.1667,-6.1492,-6.119,-6.1743,-6.1718,-6.124,-6.2345,-6.2345,-6.1592,-6.2446,-6.2496,-6.1994,-6.1743,-6.1316,-6.0613,-5.8654,-5.6821,-5.5164,-5.3808,-5.1473,0.0,-4.841,-4.7255,-4.615,-4.6954,-4.5673,-4.3539,-4.1731,-3.9069,-3.638,-3.47,-3.4148,-3.4173,-3.468,-3.6257,-3.809,-3.9898,-4.1229,-4.2559,-4.4217,-4.615,-4.7857,-4.8987,-5.0469,-5.18,-5.2553,-5.2829,-5.303,-5.3331,-5.2578,-5.1925,-5.18,-5.1925,-5.2879,-5.5039,-5.5039,-5.5013,-5.5239,-5.4285,-5.3708,-5.3708,-5.3206,-5.2929,-5.2929,-5.2628,-5.2327,-5.2101,-5.2026,-5.185,-5.1624,-5.1624,-5.1448,-5.1096,-5.0645,-4.9941,-4.9038,-4.7707,-4.6892,-4.6602,-4.5799,-4.5296,-4.497,-4.4719,-4.4618,-4.4618,-4.4543,-4.4342,-4.4066,0.0,0.0,0.0,0.0,0.0,0.0,0.0,0.0,0.0,0.0,-2.8334,-2.9292,-2.9924,-3.0554,-3.0624,-2.9697,-3.4301,-3.9037,-4.325,-4.926,-5.4822,-5.9861,-6.1425,-6.244,-6.2825,-6.2764,-6.2621,-6.2245,-6.2245,-6.1943,-6.1416,-6.1818,-6.1718,-6.1215,-6.2019,-6.2019,-6.1466,-6.227,-6.237,-6.1969,-6.1492,-6.0788,-5.9709,-5.6746,-5.3733,-5.1021,-5.0368,-4.8209,-4.5556,-4.4292,-4.3313,-4.276,-4.379,-4.3011,-4.1455,-4.0199,-3.7739,-3.5248,-3.3997,-3.4424,-3.5357,-3.6257,-3.8668,-4.1153,-4.2434,-4.3991,-4.5648,-4.733,-4.8937,-5.0368,-5.1322,-5.2176,-5.2829,-5.3206,-5.308,-5.3005,-5.3231,-5.185,-5.0544,-4.9816,-4.8987,-4.9464,-5.2051,-5.298,-5.3607,-5.4084,-5.3582,-5.3331,-5.3482,-5.313,-5.2929,-5.2929,-5.2402,-5.2026,-5.1875,-5.1473,-5.1197,-5.1046,-5.1046,-5.082,-5.0393,-4.9941,-4.9213,-4.8259,-4.733,-4.6677,-4.625,-4.5547,-4.4995,-4.4593,-4.4292,-4.4166,-4.4116,-4.3714,-4.3664,-4.374,0.0,0.0,0.0,0.0,0.0,0.0,0.0,0.0,0.0,0.0,0.0,0.0,0.0,-2.9235,-2.9864,-3.0434,-3.293,-3.7119,-4.3206,-4.8365,-5.4205,-6.0944,-6.2312,-6.3483,-6.4818,-6.352,-6.2822,-6.2797,-6.2797,-6.2521,-6.1994,-6.1994,-6.1718,-6.119,-6.1215,-6.1517,-6.1994,-6.2019,-6.2019,-6.1868,-6.0236,-5.8604,-5.662,-5.1724,-4.846,-4.6577,-4.7079,-4.4116,-3.9948,-3.9898,-3.8768,-3.7789,-3.9973,-4.0626,-4.0249,-3.8567,-3.5755,-3.3212,-3.3162,-3.47,-3.6759,-3.8366,-4.1254,-4.4116,-4.5773,-4.7431,-4.9088,-5.0795,-5.1172,-5.1398,-5.1975,-5.2101,-5.2126,-5.2151,-5.2578,-5.2754,-5.2226,-5.072,-4.9238,-4.8109,-4.6577,-4.5874,-4.6502,-4.8987,-5.1222,-5.2854,-5.2477,-5.2377,-5.2929,-5.2929,-5.2929,-5.2929,-5.2402,-5.185,-5.1322,-5.1297,-5.0996,-5.0444,-5.0444,-5.0444,-5.0368,-4.8736,-4.7682,-4.7093,-4.6577,-4.6326,-4.6225,-4.5095,-4.4644,-4.4518,-4.3438,-4.3037,-4.3037,-4.3011,-4.3338,-4.379,0.0,0.0,0.0,0.0,0.0,0.0,0.0,0.0,0.0,0.0,0.0,0.0,0.0,0.0,0.0,0.0,-3.27,-3.6447,-4.1165,-4.6755,-5.1847,-5.6307,-5.9839,-6.1515,-6.1201,-6.2762,-6.2574,-6.0613,-6.1787,-6.1685,-6.0337,-6.0337,-6.0236,-6.006,-6.006,-6.0161,-6.0337,-6.0337,-5.9282,-5.7524,-5.6595,-5.4787,-5.2302,-4.9163,-4.5899,-4.2785,0.0,-3.8743,-3.6282,-3.5554,-3.4926,-3.465,-3.578,-3.5881,-3.5253,-3.3596,-3.3345,-3.3796,-3.4525,-3.6609,-3.917,-4.1555,-4.4342,-4.6979,-4.8661,-4.9766,-5.0494,-5.067,-4.9816,-4.8887,-4.836,-4.8259,-4.8611,-4.9715,-5.067,-5.1322,-5.1523,-5.0745,-4.8912,-4.5573,-4.502,-4.4418,-4.3137,-4.5849,-4.8535,-5.0569,-5.087,-5.1247,-5.18,-5.2176,-5.2226,-5.185,-5.0921,-5.0519,-5.0695,-4.9992,-4.9715,-4.9866,-4.9515,-4.9113,-4.8711,-4.7807,-4.7305,-4.7043,-4.6552,-4.5899,-4.5171,-4.4794,-4.4192,-4.3489,-4.3112,-4.2986,-4.2986,-4.2986,-4.3087,-4.3263,0.0,0.0,0.0,0.0,0.0,0.0,0.0,0.0,0.0,0.0,0.0,0.0,0.0,0.0,0.0,0.0,0.0,-3.4831,-3.905,-4.3553,-4.7827,-5.1844,-5.4876,-5.6429,-5.6402,-5.7868,-5.7892,-5.6502,-5.7432,-5.7558,-5.6874,-5.6664,-5.657,-5.657,-5.6771,-5.6972,-5.7148,-5.6947,-5.5591,-5.3507,-5.2151,-4.9941,-4.7154,-4.4342,-4.1254,0.0,-3.5454,-3.3596,-3.2315,-3.2014,-3.1913,-3.1964,-3.2315,-3.219,-3.1813,-3.1336,-3.2466,-3.4349,-3.6458,-3.9044,-4.1781,-4.4342,-4.6903,-4.9038,-4.9916,-5.0419,-5.0343,-4.9188,-4.7606,-4.605,-4.4769,-4.4367,-4.4769,-4.6426,-4.7456,-4.8535,-4.9891,-4.8912,-4.7079,-4.4418,-4.3714,-4.2961,-4.1756,-4.3564,-4.5899,-4.851,-4.959,-5.0368,-5.0946,-5.1498,-5.1649,-5.1297,-5.0193,-4.9866,-5.0419,-4.9314,-4.8962,-4.9289,-4.8736,-4.8159,-4.7606,-4.7079,-4.6728,-4.6527,-4.5949,-4.5296,-4.4618,-4.4418,-4.3915,-4.3263,-4.3062,-4.2986,-4.2986,-4.2986,-4.2986,-4.2986,0.0,0.0,0.0,0.0,0.0,0.0,0.0,0.0,0.0,0.0,0.0,0.0,0.0,0.0,0.0,0.0,0.0,0.0,-3.6806,-3.905,-4.2462,-4.7549,-4.7951,-4.8906,-5.0772,-4.9638,-4.9637,-5.0761,-5.0278,-5.0591,-5.1736,-5.1173,-5.0886,-5.087,-5.1398,-5.1925,-5.2377,-5.185,-5.0946,-4.959,-4.6979,-4.4267,-4.1433,-3.7712,-3.4921,-3.2717,-3.0583,-2.9101,-2.8273,-2.9377,-2.9779,-2.9854,-2.9854,-2.9905,-3.0231,-3.1863,-3.3194,-3.5002,-3.8818,-4.1882,-4.4493,-4.6702,-4.8837,-5.0218,-4.964,-4.9414,-4.8711,-4.6502,-4.4644,-4.2936,-4.125,-4.0651,-4.0927,-4.266,-4.3489,-4.4869,-4.7606,-4.5773,-4.4267,-4.4618,-4.2805,-4.1806,-4.2263,-4.2338,-4.3639,-4.6792,-4.856,-4.9715,-5.0293,-5.0921,-5.1222,-5.1197,-5.0117,-4.9816,-5.0368,-4.9314,-4.8736,-4.8686,-4.8134,-4.7581,-4.6968,-4.6502,-4.5974,-4.5422,-4.4869,-4.4593,-4.4543,-4.4016,-4.3765,-4.3664,-4.3162,-4.2961,-4.2936,-4.2936,-4.2936,-4.2936,0.0,0.0,0.0,0.0,0.0,0.0,0.0,0.0,0.0,0.0,0.0,0.0,0.0,0.0,0.0,0.0,0.0,0.0,-3.2826,-3.5818,-3.8512,-4.0816,-4.4193,-4.5884,-4.5562,-4.7481,-4.7603,-4.5767,-4.6925,-4.6891,-4.5667,-4.5484,-4.5304,-4.5095,-4.5246,-4.5372,-4.5497,-4.5372,-4.3966,-4.1756,-4.1053,-3.9094,-3.6458,-3.5052,-3.3395,-3.1687,-3.0758,-2.9428,-2.8222,-2.8925,-2.9704,-3.0482,-3.0859,-3.126,-3.1913,-3.3596,-3.5755,-3.8266,-4.1304,-4.4166,-4.6702,-4.851,-4.9389,-4.954,-4.856,-4.7079,-4.5271,-4.3006,-4.03,-3.7914,-3.6634,-3.7312,-3.8994,-4.1961,-4.4217,-4.6476,-4.8837,-4.8912,-4.7883,-4.5547,-4.5497,-4.5045,-4.3539,-4.4141,-4.5171,-4.6426,-4.728,-4.8184,-4.9138,-5.0117,-5.0444,-5.0042,-4.9339,-4.9238,-4.9791,-4.9113,-4.836,-4.7556,-4.7405,-4.6828,-4.5899,-4.5773,-4.5372,-4.4844,-4.4694,-4.4392,-4.3991,-4.3865,-4.3313,-4.2665,-4.2861,-4.2791,-4.2414,-4.2414,-4.2414,-4.2363,0.0,0.0,0.0,0.0,0.0,0.0,0.0,0.0,0.0,0.0,0.0,0.0,0.0,0.0,0.0,0.0,0.0,0.0,0.0,-3.2437,-3.4023,-3.534,-3.7883,-3.921,-3.9179,-4.0897,-4.1437,-4.0656,-4.1114,-4.1251,-4.116,-4.0569,-4.0314,-4.0313,-4.0542,-4.0539,-4.04,-3.9923,-3.8542,0.0,0.0,-3.4022,-3.2072,-3.1562,-3.0608,-2.9553,-2.9252,-2.8699,-2.8273,-2.9327,-3.0367,-3.1461,-3.224,-3.3043,-3.4053,-3.6282,-3.8693,-4.1279,-4.4041,-4.6476,-4.8485,-4.9665,-4.9238,-4.8083,-4.6476,-4.4392,-4.1907,-3.8743,-3.6408,-3.4449,-3.2867,-3.3696,-3.573,-3.912,-4.1555,-4.4242,-4.7682,-4.8209,-4.7832,-4.6677,-4.6903,-4.6592,-4.5397,-4.5849,-4.6326,-4.6652,-4.7179,-4.7857,-4.8736,-4.959,-4.9916,-4.9615,-4.9063,-4.8812,-4.8862,-4.8335,-4.7732,-4.7068,-4.6652,-4.6075,-4.5472,-4.497,-4.4568,-4.4242,-4.4016,-4.374,-4.3438,-4.3438,-4.2992,-4.2238,-4.2539,-4.2283,-4.1806,-4.1806,-4.1806,-4.1706,0.0,0.0,0.0,0.0,0.0,0.0,0.0,0.0,0.0,0.0,0.0,0.0,0.0,0.0,0.0,0.0,0.0,0.0,0.0,0.0,-3.0013,-3.1182,-3.1331,-3.1899,-3.3066,-3.3185,-3.4083,-3.5818,-3.4729,-3.5289,-3.7339,-3.6223,-3.5775,-3.5974,-3.6454,-3.6548,-3.6252,-3.5178,-3.4174,-3.3114,-3.11,-2.9654,-2.8612,0.0,-2.7645,-2.7168,-2.7168,-2.7519,-2.8273,-3.0105,-3.1537,-3.2767,-3.4048,-3.5253,-3.6686,-3.9446,-4.1756,-4.3991,-4.6627,-4.851,-4.9791,-5.0117,-4.8485,-4.6175,-4.379,-4.1379,-3.8492,-3.4399,-3.3018,-3.1964,-3.0131,-3.0733,-3.2616,-3.6078,-3.8039,-4.0827,-4.5824,-4.61,-4.6376,-4.7933,-4.7732,-4.7456,-4.7456,-4.738,-4.7355,-4.7355,-4.7682,-4.8109,-4.8535,-4.9213,-4.9565,-4.949,-4.9012,-4.846,-4.7807,-4.7355,-4.7054,-4.6903,-4.5949,-4.5422,-4.5221,-4.4242,-4.3765,-4.3664,-4.3187,-4.2986,-4.2986,-4.2986,-4.2665,-4.2112,-4.2187,-4.1781,-4.1175,-4.125,-4.1225,-4.11,0.0,0.0,0.0,0.0,0.0,0.0,0.0,0.0,0.0,0.0,-2.9116,-2.7585,0.0,0.0,0.0,0.0,0.0,0.0,0.0,0.0,0.0,-2.9894,-3.0402,-3.0791,-3.1031,-3.154,-3.2019,-3.2378,-3.2139,-3.2125,-3.2352,-3.2094,-3.192,-3.1702,-3.1748,-3.1784,-3.1711,-3.0829,-3.0325,-3.0079,-2.8971,-2.8147,-2.7544,-2.7469,0.0,0.0,-2.6625,-2.6977,-2.7821,-3.0382,-3.2616,-3.465,-3.6659,-3.8391,-4.0099,-4.2409,-4.4342,-4.6125,-4.7983,-4.9364,-5.0067,-4.9264,-4.7029,-4.4242,-4.1128,-3.7638,-3.4424,-3.2265,-3.0658,-2.9679,-2.9779,-3.1035,-3.3319,-3.7111,-3.9145,-4.1957,-4.6928,-4.7556,-4.7933,-4.9163,-4.9213,-4.9163,-4.9163,-4.8761,-4.8485,-4.8485,-4.8134,-4.7757,-4.7431,-4.8812,-4.9389,-4.8937,-4.8812,-4.8284,-4.728,-4.7179,-4.6677,-4.5773,-4.5573,-4.4995,-4.4091,-4.389,-4.3564,-4.3112,-4.3011,-4.2986,-4.2986,-4.2986,-4.2384,-4.153,-4.2037,-4.153,-4.0701,-4.1125,-4.1,-4.0651,0.0,0.0,0.0,0.0,0.0,0.0,0.0,-2.8996,-3.0821,-3.4143,-3.3484,-3.2048,-3.0342,-2.8633,0.0,0.0,0.0,0.0,0.0,0.0,0.0,0.0,-2.9684,-3.0163,-3.0492,-3.1152,-3.166,-3.2019,0.0,-3.1604,-3.1835,-3.1452,-3.1139,-3.0853,-3.0853,-3.0527,-2.9981,-2.9692,-2.9354,-2.8846,-2.817,-2.7739,-2.7473,0.0,0.0,0.0,-2.6499,-2.6851,-2.762,-2.9829,-3.2215,-3.4826,-3.7914,-4.0023,-4.1756,-4.3664,-4.5623,-4.7431,-4.8837,-5.0017,-5.0594,-4.949,-4.625,-4.2459,-3.9145,-3.5378,-3.2039,-3.008,-2.9277,-2.8988,-2.9302,-3.0683,-3.2692,-3.5429,-3.7287,-3.9998,-4.4694,-4.5824,-4.6928,-4.8937,-4.9414,-4.959,-4.959,-4.9088,-4.8661,-4.836,-4.8335,-4.8109,-4.7556,-4.8284,-4.8586,-4.8335,-4.8058,-4.7657,-4.7093,-4.6853,-4.6301,-4.5497,-4.5171,-4.4593,-4.379,-4.3514,-4.3212,-4.2986,-4.2986,-4.2986,-4.2986,-4.2986,-4.2484,-4.1756,-4.1731,-4.1404,-4.0899,-4.0874,-4.0874,-4.0902,0.0,0.0,0.0,0.0,0.0,0.0,0.0,-3.1597,-3.3514,-3.7434,-3.8003,-3.6896,-3.3903,-3.0612,-2.8364,0.0,0.0,0.0,0.0,0.0,0.0,0.0,0.0,0.0,-3.0283,0.0,0.0,-3.2288,-3.175,0.0,0.0,0.0,0.0,0.0,-3.1203,-3.068,-2.9849,-2.9881,-2.9498,0.0,0.0,-2.7868,-2.7604,0.0,0.0,0.0,0.0,-2.6776,-2.7404,-2.9051,-3.121,-3.3796,-3.7211,-3.9973,-4.2258,-4.3689,-4.5824,-4.8008,-4.9264,-5.0318,-5.077,-4.9414,-4.5397,-4.093,-3.7287,-3.3571,-3.0331,-2.8473,-2.8448,-2.8787,-2.9038,-3.0181,-3.1637,-3.3445,-3.4926,-3.7412,-4.1831,-4.3614,-4.5447,-4.8109,-4.9113,-4.959,-4.959,-4.9088,-4.8535,-4.7958,-4.8109,-4.8209,-4.8109,-4.7883,-4.7732,-4.7732,-4.7355,-4.7018,-4.6954,-4.6401,-4.5849,-4.5296,-4.4719,-4.4166,-4.3614,-4.3162,-4.2986,-4.2986,-4.2986,-4.2986,-4.2986,-4.2986,-4.2715,-4.2162,-4.1681,-4.1376,-4.125,-4.0978,-4.1078,-4.125,0.0,0.0,0.0,0.0,0.0,0.0,0.0,-3.3305,-3.6237,-4.1914,-4.1205,-3.932,-3.7195,-3.4023,-3.0851,0.0,0.0,0.0,0.0,0.0,0.0,0.0,0.0,0.0,0.0,0.0,0.0,-3.16,-3.154,0.0,0.0,0.0,0.0,0.0,0.0,-3.1396,-3.125,-3.0535,0.0,0.0,0.0,0.0,0.0,0.0,0.0,0.0,0.0,-2.6524,-2.6826,-2.8448,-2.9854,-3.1235,-3.3093,-3.7236,-4.1555,-4.2238,-4.4669,-4.7556,-4.9163,-5.0042,-4.9992,-4.7883,-4.3991,-3.9521,-3.5203,-3.1587,-2.8913,-2.8247,-2.8147,-2.8499,-2.9528,-2.9829,-3.0658,-3.2792,-3.3696,-3.568,-4.0124,-4.2559,-4.4719,-4.7004,-4.8661,-4.959,-4.959,-4.9088,-4.8535,-4.7958,-4.7054,-4.7179,-4.8611,-4.7757,-4.7143,-4.7143,-4.7093,-4.6903,-4.6401,-4.5849,-4.5271,-4.4694,-4.4141,-4.3589,-4.3062,-4.3011,-4.2986,-4.2986,-4.2986,-4.2986,-4.2986,-4.2986,-4.2715,-4.2213,-4.2162,-4.1781,-4.1351,-4.1831,-4.1731,-4.1351,0.0,0.0,0.0,0.0,0.0,0.0,-3.3496,-3.4722,-3.7341,-4.3823,-4.3586,-4.2061,-4.0051,-3.7195,-3.3335,0.0,0.0,0.0,0.0,0.0,0.0,0.0,0.0,0.0,0.0,0.0,-3.0642,-3.0883,-3.1301,0.0,0.0,0.0,0.0,0.0,0.0,-3.1219,-3.0807,-3.0955,0.0,0.0,0.0,0.0,0.0,0.0,0.0,0.0,0.0,0.0,-2.6072,-2.6691,-2.7896,-2.9176,-2.9478,-3.224,-3.5981,-3.922,-4.2283,-4.5146,-4.7481,-4.8987,-4.9389,-4.7179,-4.3062,-3.8542,-3.4751,-3.106,-2.8373,-2.8147,-2.8097,-2.8448,-2.9578,-2.9804,-3.008,-3.0959,-3.1286,-3.2616,-3.6056,-3.7864,-4.0275,-4.4166,-4.61,-4.7657,-4.8962,-4.8586,-4.8033,-4.7481,-4.6728,-4.6728,-4.7732,-4.6728,-4.6301,-4.6627,-4.6326,-4.6024,-4.5824,-4.5598,-4.502,-4.4116,-4.3915,-4.3514,-4.2986,-4.2986,-4.2986,-4.2986,-4.2986,-4.2986,-4.2986,-4.2986,-4.2836,-4.2665,-4.2338,-4.2233,-4.2308,-4.2263,-4.2233,-4.2308,0.0,0.0,0.0,0.0,0.0,-2.9253,-3.438,-3.5828,-3.8366,-4.3972,-4.4421,-4.3431,-4.1351,-3.8236,-3.4292,-2.9472,0.0,0.0,0.0,0.0,0.0,0.0,0.0,0.0,0.0,0.0,-3.0133,-3.0492,-3.0972,-3.1301,0.0,0.0,-3.1391,-3.1212,0.0,0.0,0.0,0.0,0.0,0.0,0.0,0.0,0.0,0.0,0.0,0.0,0.0,0.0,0.0,0.0,0.0,-2.7332,-2.6533,-2.7925,-3.0696,-3.5521,-3.922,-4.2333,-4.4945,-4.6878,-4.7682,-4.5799,-4.1706,-3.7287,-3.4123,-3.0532,-2.7921,-2.8072,-2.8097,-2.8448,-2.9578,-2.9804,-2.9804,-2.9804,-2.993,-3.0884,-3.3319,-3.4705,-3.6987,-4.1028,-4.2986,-4.4945,-4.7305,-4.7757,-4.7631,-4.6954,-4.6527,-4.6401,-4.6627,-4.5899,-4.5748,-4.6301,-4.5773,-4.5497,-4.5497,-4.5171,-4.4593,-4.379,-4.3639,-4.3363,-4.2986,-4.2986,-4.2986,-4.2986,-4.2986,-4.2986,-4.2986,-4.2986,-4.2986,-4.2936,-4.2615,-4.269,-4.2936,-4.259,-4.269,-4.2911,0.0,0.0,0.0,0.0,0.0,0.0,0.0,-3.6657,-3.9562,-4.2256,-4.3243,-4.2906,-4.0832,-3.6368,-3.3245,-3.2497,0.0,0.0,0.0,0.0,0.0,0.0,0.0,0.0,0.0,0.0,-2.9235,-3.0492,-3.0522,-3.0851,-3.1511,-3.1511,-3.1152,-3.0552,0.0,0.0,0.0,0.0,0.0,0.0,0.0,0.0,0.0,0.0,0.0,0.0,0.0,0.0,0.0,0.0,0.0,0.0,0.0,-2.4946,-2.6785,-3.1048,-3.5429,-3.9447,-4.1659,-4.3413,-4.4418,-4.3288,-3.9724,-3.5701,-3.2867,-2.9679,-2.7444,-2.7996,-2.8097,-2.8448,-2.9578,-2.9804,-2.9804,-2.9804,-3.0256,-3.1185,-3.2842,-3.45,-3.6135,-3.7864,-3.9546,-4.1656,-4.4392,-4.6627,-4.7456,-4.6401,-4.6301,-4.6075,-4.5522,-4.5497,-4.5748,-4.6301,-4.5773,-4.5497,-4.5497,-4.4367,-4.3815,-4.379,-4.3237,-4.2986,-4.2986,-4.2986,-4.2986,-4.2986,-4.2986,-4.2986,-4.2986,-4.2986,-4.2986,-4.2986,-4.2961,-4.2961,-4.2986,-4.2961,-4.2961,-4.2986,0.0,0.0,0.0,0.0,0.0,0.0,0.0,-3.3671,-3.5819,-4.0056,-3.9527,-3.9062,-3.9781,-3.5638,-3.2736,-3.2527,0.0,0.0,0.0,0.0,0.0,0.0,0.0,0.0,0.0,0.0,-3.0342,-3.1182,-3.2557,-3.3335,-3.3514,-3.2617,-3.1809,-3.1152,-3.0492,-2.9983,0.0,0.0,0.0,0.0,0.0,0.0,-2.6607,0.0,0.0,0.0,0.0,0.0,0.0,0.0,0.0,0.0,0.0,0.0,0.0,-2.7937,-3.0967,-3.4324,-3.6935,-3.8567,-3.927,-3.8165,-3.5705,-3.2993,-3.1009,-2.885,-2.7344,-2.7494,-2.7846,-2.8323,-2.9076,-2.9528,-3.003,-3.0758,-3.1035,-3.1461,-3.2365,-3.4204,-3.6386,-3.8868,-4.2961,-4.5899,-4.6778,-4.7179,-4.6928,-4.5824,-4.61,-4.5899,-4.4945,-4.5271,-4.5397,-4.5171,-4.4995,-4.4719,-4.4342,-4.3991,-4.3614,-4.3237,-4.3062,-4.2986,-4.2986,-4.2986,-4.2986,-4.2986,-4.2986,-4.276,-4.2489,-4.2866,-4.276,-4.2514,-4.2891,-4.2986,-4.2986,-4.2986,-4.2986,-4.2986,0.0,0.0,0.0,0.0,0.0,0.0,0.0,-3.1752,-3.3501,-3.687,-3.5973,-3.5887,-3.8122,-3.3997,-3.145,-3.2407,0.0,0.0,0.0,0.0,0.0,0.0,0.0,0.0,0.0,-2.9146,-3.0612,-3.2228,-3.3754,-3.4773,-3.5252,-3.4622,-3.3334,-3.1481,-3.0941,-3.0011,0.0,0.0,0.0,0.0,0.0,0.0,-2.5932,0.0,0.0,0.0,0.0,0.0,0.0,0.0,0.0,0.0,0.0,0.0,0.0,0.0,-2.7488,-2.9707,-3.281,-3.485,-3.5841,-3.4866,-3.2943,-3.0984,-2.9754,-2.8172,-2.7077,-2.7278,-2.772,-2.8273,-2.8787,-2.9402,-3.0005,-3.0683,-3.0783,-3.106,-3.1788,-3.3646,-3.6031,-3.9019,-4.3338,-4.605,-4.605,-4.6702,-4.6753,-4.5874,-4.5924,-4.5598,-4.4669,-4.497,-4.4794,-4.4016,-4.4192,-4.4141,-4.379,-4.3589,-4.3313,-4.2986,-4.2986,-4.2986,-4.2986,-4.2986,-4.2986,-4.2961,-4.2816,-4.264,0.0,-4.2665,-4.264,-4.2564,-4.2836,-4.2986,-4.2986,-4.2986,-4.2986,-4.2986,0.0,0.0,0.0,0.0,0.0,0.0,0.0,0.0,-3.2327,-3.3085,-3.2731,-3.3361,-3.5737,-3.1574,-2.9559,-3.1958,0.0,0.0,0.0,0.0,0.0,0.0,0.0,0.0,-2.8577,-2.8757,-3.0372,-3.3574,-3.4384,-3.5462,-3.6716,-3.7225,-3.54,-3.166,-3.2168,-3.0642,-2.7585,-2.7585,-2.7203,-2.6546,-2.5994,-2.5661,0.0,0.0,0.0,0.0,0.0,0.0,0.0,0.0,0.0,0.0,0.0,0.0,0.0,0.0,0.0,0.0,0.0,-3.192,-3.3513,-3.2769,-3.1009,-2.9352,-2.8875,-2.757,0.0,-2.7153,-2.767,-2.8222,-2.8737,-2.9352,-2.9779,-2.988,-2.9955,-3.0331,-3.1361,-3.3194,-3.5629,-3.8843,-4.1656,-4.3288,-4.3162,-4.5522,-4.6853,-4.6301,-4.5773,-4.5221,-4.4593,-4.4568,-4.4066,-4.2961,-4.3463,-4.374,-4.374,-4.3237,-4.2986,-4.2986,-4.2936,-4.2911,-4.2911,-4.2886,-4.2861,-4.2836,-4.2363,-4.2439,-4.2811,-4.2414,-4.2514,-4.2911,-4.2961,-4.2986,-4.2986,-4.2986,-4.2986,-4.2986,0.0,0.0,0.0,0.0,0.0,0.0,0.0,0.0,0.0,0.0,-3.0871,-3.09,-3.1038,-2.956,-2.8595,0.0,0.0,0.0,0.0,0.0,0.0,0.0,0.0,0.0,-2.8577,-3.0046,-3.1958,-3.4264,-3.645,-3.7913,-3.8721,-3.8332,-3.6327,-3.3006,-3.2108,-3.0193,-2.7585,-2.7585,-2.7484,-2.7276,-2.6588,-2.6326,0.0,0.0,0.0,0.0,-2.466,-2.5187,0.0,0.0,0.0,0.0,0.0,0.0,0.0,0.0,-2.5682,-2.5361,-2.6179,0.0,-2.7795,-2.7455,-2.6967,-2.6666,0.0,-2.6776,-2.6524,-2.665,-2.7128,-2.7645,-2.8197,-2.875,-2.9553,-3.0809,-3.1361,-3.1888,-3.2591,-3.6659,-4.035,-4.2409,-4.507,-4.625,-4.502,-4.5874,-4.6276,-4.5723,-4.5573,-4.5045,-4.4041,-4.3991,-4.3489,-4.2439,-4.2886,-4.3162,-4.3162,-4.3037,-4.2986,-4.2961,-4.2615,-4.2414,-4.2389,-4.1907,-4.1731,-4.1652,-4.158,-4.1605,-4.1756,-4.2032,-4.2288,-4.2439,-4.2811,-4.2986,-4.2986,-4.2986,-4.2986,-4.2986,0.0,0.0,0.0,0.0,0.0,0.0,0.0,0.0,0.0,0.0,0.0,0.0,0.0,0.0,0.0,0.0,0.0,0.0,0.0,0.0,0.0,0.0,0.0,-2.8064,-2.9026,-3.0372,-3.2497,-3.5432,-3.7404,-3.905,-4.0307,-3.9948,-3.7853,-3.4292,-3.145,-2.9205,-2.7585,-2.7585,-2.7435,-2.7056,-2.6079,0.0,0.0,0.0,0.0,0.0,-2.4128,-2.4868,0.0,-2.6782,-2.7158,-2.7417,0.0,0.0,0.0,0.0,-2.5661,-2.5255,-2.5253,-2.5944,-2.6608,-2.6147,-2.6189,-2.6499,-2.6801,-2.6675,-2.6499,-2.6499,-2.6927,-2.7444,-2.7996,-2.8549,-2.9364,-3.0809,-3.1286,-3.229,-3.4625,-3.799,-4.1204,-4.3865,-4.5497,-4.625,-4.5899,-4.5899,-4.5799,-4.5522,-4.502,-4.4443,-4.384,-4.3564,-4.3162,-4.2615,-4.2866,-4.2861,-4.2665,-4.2861,-4.2861,-4.2665,-4.2363,-4.2062,-4.1781,-4.148,-4.1275,-4.1275,-4.1025,-4.1254,-4.1731,-4.1756,-4.2082,-4.2615,-4.2861,-4.2986,-4.2986,-4.2986,-4.2986,-4.2986,0.0,0.0,0.0,0.0,0.0,0.0,0.0,0.0,0.0,0.0,0.0,0.0,0.0,0.0,0.0,0.0,0.0,0.0,0.0,0.0,0.0,0.0,0.0,-2.8423,-2.9834,-3.0492,-3.2677,-3.6477,-3.7973,-3.9619,-4.1384,-4.1683,-3.9559,-3.531,-3.0971,-2.8487,-2.7585,-2.7495,-2.7136,-2.6518,-2.5297,0.0,0.0,0.0,0.0,0.0,0.0,0.0,0.0,-2.672,-2.7129,-2.7167,-2.7059,0.0,0.0,0.0,0.0,0.0,-2.5549,-2.6562,-2.7311,-2.6443,-2.665,-2.7042,-2.7178,-2.6826,-2.6499,-2.6499,-2.6927,-2.7444,-2.7996,-2.8662,-2.9515,-3.0683,-3.121,-3.3018,-3.7337,-3.8894,-4.0777,-4.4217,-4.4844,-4.5271,-4.5974,-4.5698,-4.5497,-4.5497,-4.4367,-4.3689,-4.3689,-4.3062,-4.2685,-4.261,-4.2685,-4.2459,-4.1961,-4.2534,-4.2585,-4.2087,-4.2011,-4.1656,-4.115,-4.1075,-4.1025,-4.1,-4.0601,-4.1028,-4.2037,-4.153,-4.1982,-4.2986,-4.2986,-4.2986,-4.2986,-4.2986,-4.2986,-4.2986,0.0,0.0,0.0,0.0,0.0,0.0,0.0,0.0,0.0,0.0,0.0,0.0,0.0,0.0,0.0,0.0,0.0,0.0,0.0,0.0,0.0,-2.7585,-2.8128,-2.9325,-3.1152,-3.1869,-3.3604,-3.6477,-3.8901,-4.0546,-4.1452,-4.309,-4.0876,-3.537,-3.2378,-2.9774,-2.7555,-2.7016,-2.6692,-2.6542,-2.5759,0.0,0.0,0.0,0.0,0.0,0.0,0.0,0.0,-2.5069,-2.5798,-2.6527,-2.6014,0.0,0.0,0.0,0.0,0.0,-2.6131,-2.6739,-2.6418,-2.5343,-2.546,-2.5988,-2.6499,-2.6549,-2.6499,-2.6499,-2.6927,-2.7444,-2.7996,-2.9352,-3.0708,-3.1788,-3.3972,-3.6885,-4.088,-4.1986,-4.2911,-4.4443,-4.5874,-4.625,-4.4995,-4.5246,-4.5497,-4.5497,-4.4016,-4.3112,-4.3112,-4.2133,-4.1379,-4.0902,-4.13,-4.1329,-4.0777,-4.1835,-4.2007,-4.1401,-4.1003,-4.0727,-4.0626,-4.0149,-3.9948,-3.9948,-3.9848,-4.045,-4.1401,-4.1326,-4.1982,-4.2986,-4.2986,-4.2986,-4.2986,-4.2986,-4.2986,-4.2986,0.0,0.0,0.0,0.0,0.0,0.0,0.0,0.0,0.0,0.0,0.0,0.0,0.0,0.0,0.0,0.0,0.0,0.0,0.0,0.0,0.0,-2.9654,-3.0342,-3.0943,-3.1481,-3.3215,-3.5609,-3.8601,-4.0876,-4.2701,-4.4018,-4.2402,-3.926,-3.4831,-3.1809,-2.9385,-2.7585,-2.7285,-2.6722,-2.6033,0.0,0.0,0.0,0.0,0.0,0.0,0.0,0.0,0.0,0.0,-2.5708,-2.6273,-2.5718,0.0,0.0,0.0,0.0,0.0,-2.5298,-2.5366,-2.5159,-2.5234,-2.6113,-2.7017,-2.7293,-2.7153,-2.7027,-2.7293,-2.7544,-2.7896,-2.8411,-2.9905,-3.1888,-3.4474,-3.701,-3.9346,-4.143,-4.2183,-4.3062,-4.4468,-4.5296,-4.5598,-4.5121,-4.5045,-4.4895,-4.4593,-4.3313,-4.259,-4.259,-4.1781,-4.1175,-4.0924,-4.115,-4.1025,-4.0526,-4.1028,-4.1128,-4.0849,-4.0651,-4.035,-4.0074,-3.9798,-3.9697,-3.9697,-3.9697,-4.0149,-4.0902,-4.0902,-4.153,-4.259,-4.259,-4.271,-4.2986,-4.2986,-4.2986,-4.2986,0.0,0.0,0.0,0.0,0.0,0.0,0.0,0.0,0.0,0.0,0.0,0.0,0.0,0.0,0.0,0.0,0.0,0.0,0.0,0.0,-2.9325,-3.0972,-3.2138,-3.2946,-3.3334,-3.5337,-3.7943,-4.1115,-4.324,-4.4994,-4.6471,-4.2132,-3.8182,-3.4623,-3.1599,-2.9292,-2.7585,-2.7435,-2.6752,-2.5824,0.0,0.0,0.0,0.0,0.0,0.0,0.0,0.0,0.0,0.0,0.0,0.0,0.0,0.0,0.0,-2.5238,-2.5025,-2.5075,-2.4742,-2.4442,-2.4456,-2.5536,-2.6666,-2.7695,-2.8348,-2.8072,-2.7896,-2.8699,-2.8875,-2.9001,-2.9428,-3.1185,-3.3721,-3.7211,-3.9647,-4.143,-4.2304,-4.276,-4.3463,-4.4844,-4.4895,-4.4945,-4.5246,-4.4644,-4.4066,-4.3639,-4.2459,-4.1835,-4.1835,-4.1254,-4.0953,-4.0953,-4.0953,-4.0752,-4.0325,-4.0325,-4.0325,-4.0325,-4.0325,-4.0099,-3.9697,-3.9697,-3.9697,-3.9697,-3.9697,-3.9998,-4.0526,-4.0526,-4.1153,-4.2213,-4.2062,-4.2363,-4.2866,-4.2936,-4.2986,-4.2986,0.0,0.0,0.0,0.0,0.0,0.0,0.0,0.0,0.0,0.0,0.0,0.0,0.0,0.0,0.0,0.0,0.0,0.0,0.0,0.0,-2.8936,-2.9684,-3.2108,-3.513,-3.8745,-3.9014,-4.0457,-4.318,-4.5753,-4.71,-4.716,-4.3788,-3.9775,-3.534,-3.3245,-3.0522,-2.7555,-2.6956,-2.6626,-2.6422,-2.5173,0.0,0.0,0.0,0.0,0.0,0.0,0.0,0.0,0.0,0.0,0.0,0.0,0.0,-2.4855,-2.6001,-2.5412,-2.4575,-2.5542,-2.5261,-2.5034,-2.6147,-2.6122,-2.6465,-2.9076,-2.9227,-2.9252,-3.0834,-3.116,-3.116,-3.121,-3.3872,-3.681,-3.9145,-4.1354,-4.3539,-4.5648,-4.5547,-4.5472,-4.61,-4.5748,-4.5221,-4.4744,-4.3714,-4.3087,-4.3037,-4.1555,-4.0626,-4.0626,-4.0124,-3.9823,-3.9823,-3.9823,-3.9798,-3.9747,-3.9747,-3.9747,-3.9747,-3.9747,-3.9747,-3.9697,-3.9697,-3.9697,-3.9697,-3.9697,-3.9998,-4.0526,-4.0526,-4.1153,-4.2162,-4.1605,-4.1731,-4.2338,-4.2841,-4.2986,-4.2986,0.0,0.0,0.0,0.0,0.0,0.0,0.0,0.0,0.0,0.0,0.0,0.0,0.0,0.0,0.0,0.0,0.0,0.0,0.0,-2.8244,-2.9445,-3.133,-3.2736,-3.516,-3.8691,-4.0816,-4.318,-4.5813,-4.7638,-4.7908,-4.6621,-4.2462,-3.8512,-3.4771,-3.2347,-3.0372,-2.8783,-2.7675,-2.7225,-2.7076,-2.5292,-2.4365,0.0,0.0,0.0,0.0,0.0,0.0,0.0,0.0,-2.4007,-2.4456,-2.4393,-2.4978,-2.556,-2.4813,-2.445,-2.4268,-2.418,-2.4475,-2.4976,-2.5737,-2.6289,-2.7293,-2.9754,-3.0382,-3.1035,-3.3043,-3.3746,-3.3928,-3.3928,-3.5579,-3.7739,-4.03,-4.2283,-4.4041,-4.5573,-4.5296,-4.502,-4.5246,-4.4769,-4.4217,-4.3664,-4.2911,-4.2333,-4.1982,-4.1053,-4.0526,-4.0526,-3.9998,-3.9697,-3.9697,-3.9697,-3.9697,-3.9697,-3.9697,-3.9697,-3.9697,-3.9697,-3.9697,-3.9697,-3.9697,-3.9697,-3.9697,-3.9697,-3.9823,-3.9998,-3.9998,-4.045,-4.1178,-4.1656,-4.1982,-4.2263,-4.2816,-4.2986,-4.2986,0.0,0.0,0.0,0.0,0.0,0.0,0.0,0.0,0.0,0.0,0.0,0.0,0.0,0.0,0.0,0.0,0.0,0.0,-2.791,-2.8347,-2.9505,-3.1509,-3.2796,-3.4831,-3.7734,-4.1474,-4.4466,-4.6681,-4.8207,-4.7848,-4.5562,-4.1384,-3.7973,-3.528,-3.2407,-3.1031,-3.0702,-2.8963,-2.8244,-2.8034,-2.5824,-2.4634,0.0,0.0,0.0,0.0,0.0,0.0,0.0,0.0,-2.4088,-2.4574,-2.4048,-2.48,-2.5597,-2.412,-2.3981,-2.4105,-2.3305,-2.3672,-2.4474,-2.5385,-2.644,-2.8047,-3.0984,-3.1938,-3.2867,-3.5253,-3.578,-3.5855,-3.6031,-3.681,-3.8241,-4.0676,-4.261,-4.4141,-4.507,-4.4719,-4.4292,-4.4116,-4.3614,-4.3062,-4.2509,-4.1957,-4.148,-4.105,-4.0576,-4.0249,-4.0249,-3.9898,-3.9697,-3.9697,-3.9697,-3.9697,-3.9697,-3.9697,-3.9697,-3.9697,-3.9697,-3.9697,-3.9697,-3.9697,-3.9697,-3.9697,-3.9697,-3.9697,-3.9697,-3.9697,-4.0023,-4.0626,-4.1785,-4.2213,-4.2263,-4.2816,-4.2986,-4.2986,0.0,0.0,0.0,0.0,0.0,0.0,0.0,0.0,0.0,0.0,0.0,0.0,0.0,0.0,0.0,0.0,0.0,0.0,-2.8487,-2.8546,-2.8876,-2.9562,-3.2078,-3.4382,-3.6387,-4.0868,-4.3928,-4.5304,-4.7279,-4.689,-4.4197,-4.0935,-3.8691,-3.7255,-3.3993,-3.2886,-3.3305,-3.073,-2.9621,-2.9382,-2.6692,-2.5615,-2.5465,0.0,0.0,0.0,0.0,0.0,0.0,0.0,-2.3259,-2.2924,-2.4124,-2.4498,-2.4475,-2.4305,-2.4279,-2.4131,-2.3305,-2.3095,-2.3521,-2.5184,-2.6465,-2.8473,-3.2893,-3.3897,-3.47,-3.7462,-3.7161,-3.6606,-3.7111,-3.7638,-3.8567,-4.0249,-4.2333,-4.3966,-4.4518,-4.4116,-4.3589,-4.3037,-4.2539,-4.1932,-4.1326,-4.0827,-4.0501,-4.0501,-3.9998,-3.9697,-3.9697,-3.9697,-3.9697,-3.9697,-3.9697,-3.9697,-3.9697,-3.9697,-3.9697,-3.9697,-3.9697,-3.9697,-3.9697,-3.9697,-3.9697,-3.9697,-3.9697,-3.9697,-3.9697,-3.9697,-4.0023,-4.0626,-4.1706,-4.2213,-4.2263,-4.276,-4.2961,-4.2986,0.0,0.0,0.0,0.0,0.0,0.0,0.0,0.0,0.0,0.0,0.0,0.0,0.0,0.0,0.0,0.0,0.0,0.0,-2.8504,-2.7692,-2.7679,-2.8846,-3.0492,-3.1659,-3.2258,-3.6387,-4.0995,-4.6022,-4.6142,-4.4586,-4.1504,-3.9589,-3.7494,-3.5342,-3.4831,-3.3933,-3.2677,-3.0492,-2.9621,-2.9382,-2.6692,-2.5322,-2.4844,0.0,0.0,0.0,0.0,0.0,0.0,0.0,0.0,0.0,-2.3406,-2.4022,-2.4638,-2.2911,-2.3194,-2.3857,-2.2833,-2.3396,-2.4632,-2.5921,-2.7921,-3.0382,-3.3244,-3.45,-3.5909,-3.912,-3.9195,-3.8642,-3.8466,-3.8818,-3.9346,-3.9848,-4.1128,-4.2258,-4.2811,-4.2409,-4.1952,-4.1856,-4.1329,-4.0927,-4.0777,-4.0249,-3.9948,-3.9948,-3.9798,-3.9697,-3.9697,-3.9697,-3.9697,-3.9697,-3.9697,-3.9697,-3.9697,-3.9697,-3.9697,-3.9697,-3.9697,-3.9697,-3.9697,-3.9697,-3.9697,-3.9697,-3.9697,-3.9697,-3.9697,-3.9697,-3.9798,-3.9998,-4.0727,-4.1229,-4.1656,-4.2208,-4.2715,-4.2986,0.0,0.0,0.0,0.0,0.0,0.0,0.0,0.0,0.0,0.0,-2.8518,-2.8822,0.0,0.0,0.0,0.0,0.0,0.0,0.0,-2.7686,-2.7615,-2.8936,-2.9714,-3.0881,-3.2467,-3.537,-3.8542,-4.2013,-4.2641,-4.1534,-3.8841,-3.8811,-3.7973,-3.6477,-3.7135,-3.6327,-3.4322,-3.2347,-3.1091,-3.0163,-2.7769,-2.6393,-2.5734,0.0,0.0,0.0,0.0,0.0,0.0,0.0,0.0,0.0,-2.2677,-2.3117,-2.3822,-2.2061,-2.241,-2.3175,-2.2498,-2.3521,-2.5184,-2.6716,-2.9202,-3.2014,-3.4876,-3.6558,-3.8216,-4.0953,-4.0526,-3.9722,-3.9823,-3.9597,-3.9521,-3.9948,-4.0752,-4.1401,-4.1781,-4.1354,-4.0949,-4.0949,-4.0526,-4.0199,-4.0199,-3.9898,-3.9597,-3.9371,-3.9371,-3.9371,-3.9371,-3.9145,-3.912,-3.9346,-3.9145,-3.9019,-3.9019,-3.9019,-3.9019,-3.9019,-3.927,-3.9371,-3.9371,-3.9597,-3.9697,-3.9697,-3.9697,-3.9697,-3.9697,-3.9697,-3.9823,-4.0049,-4.0375,-4.0852,-4.1351,-4.1957,-4.2414,-4.274,0.0,0.0,-2.6725,-2.6793,0.0,0.0,0.0,0.0,0.0,0.0,-2.779,-2.806,0.0,0.0,0.0,0.0,0.0,0.0,0.0,0.0,-2.8124,-2.9472,-2.9681,-3.1539,-3.534,-3.6357,-3.6327,-3.522,-3.7853,-3.8153,-3.6267,-3.8362,-3.932,-3.9349,-3.9948,-3.911,-3.7105,-3.4983,-3.2946,-3.1062,-2.9175,-2.8008,-2.7285,-2.6063,0.0,0.0,0.0,0.0,0.0,0.0,0.0,0.0,-2.1982,-2.2049,-2.2489,-2.1602,-2.182,-2.2368,-2.2368,-2.3602,-2.5402,-2.777,-3.0507,-3.3646,-3.7387,-3.9421,-4.0927,-4.2384,-4.1178,-4.0149,-4.105,-4.0074,-3.9396,-4.03,-4.0902,-4.12,-4.115,-4.0701,-4.0375,-4.0425,-3.9898,-3.9572,-3.9622,-3.9572,-3.9346,-3.8818,-3.8844,-3.8844,-3.8844,-3.8291,-3.8241,-3.8768,-3.8291,-3.8015,-3.8015,-3.8015,-3.8015,-3.8015,-3.8592,-3.8919,-3.8944,-3.9446,-3.9697,-3.9697,-3.9697,-3.9697,-3.9697,-3.9697,-3.9998,-4.045,-4.045,-4.0724,-4.1275,-4.1882,-4.2162,-4.2288,0.0,0.0,-2.6894,-2.7452,0.0,0.0,0.0,0.0,0.0,0.0,0.0,0.0,0.0,-2.9277,0.0,0.0,0.0,0.0,0.0,0.0,-2.741,-2.8757,-3.0283,-3.2228,-3.4683,-3.3455,-3.2886,-3.3155,-3.5818,-3.6088,-3.4203,-3.7195,-3.8601,-3.8631,-3.8751,-3.7734,-3.5699,-3.2138,-3.0103,-2.9116,-2.7619,-2.6632,-2.6004,-2.5704,-2.4777,0.0,0.0,0.0,0.0,0.0,0.0,0.0,-2.1542,-2.1995,-2.2819,-2.0758,-2.1493,-2.292,-2.292,-2.4155,-2.6163,-2.9302,-3.3119,-3.6784,-3.9396,-4.0249,-4.0501,-4.0425,-4.0701,-4.0874,-4.0727,-4.0752,-4.0601,-3.9973,-4.0325,-4.0551,-4.0099,-3.9572,-3.9396,-3.9823,-3.8994,-3.8542,-3.9045,-3.8642,-3.8316,-3.8191,-3.8191,-3.8191,-3.8191,-3.8065,-3.8065,-3.8191,-3.8065,-3.8015,-3.8015,-3.8015,-3.8015,-3.8015,-3.8592,-3.8919,-3.8944,-3.9446,-3.9697,-3.9697,-3.9697,-3.9697,-3.9697,-3.9697,-3.9772,-3.9873,-3.9873,-4.0199,-4.0752,-4.1304,-4.1781,-4.2288,0.0,0.0,0.0,0.0,0.0,0.0,0.0,0.0,0.0,0.0,0.0,0.0,0.0,-2.9093,0.0,0.0,-2.9264,0.0,0.0,0.0,-2.732,-2.8996,-3.124,-3.2497,-3.2557,-3.127,-3.0612,-3.0642,-3.1689,-3.2497,-3.3095,-3.6088,-3.7644,-3.7943,-3.8601,-3.7255,-3.4382,-3.1988,-3.0073,-2.8517,-2.7495,-2.6686,-2.6033,-2.5734,-2.4777,-2.361,-2.361,0.0,0.0,0.0,0.0,0.0,0.0,0.0,-2.2217,-2.0348,-2.1016,-2.2347,-2.2347,-2.413,-2.7067,-3.1486,-3.4901,-3.7688,-3.9672,-4.0124,-3.9973,-3.9421,-4.0174,-4.0724,-4.0224,-4.035,-4.0174,-3.9069,-3.9371,-3.9546,-3.8969,-3.8642,-3.8567,-3.8843,-3.8366,-3.8115,-3.8442,-3.8191,-3.7889,-3.7638,-3.7613,-3.7613,-3.7613,-3.7362,-3.7337,-3.7613,-3.7362,-3.7211,-3.7211,-3.7211,-3.7211,-3.7236,-3.8065,-3.8743,-3.927,-3.9572,-3.9697,-3.9697,-3.9697,-3.9697,-3.9697,-3.9697,-3.9697,-3.9697,-3.9697,-3.9873,-4.0224,-4.0974,-4.153,-4.1882,0.0,0.0,0.0,0.0,0.0,0.0,0.0,0.0,0.0,0.0,0.0,0.0,0.0,0.0,-2.9484,0.0,0.0,0.0,0.0,0.0,0.0,-2.9532,-3.1749,-3.2198,-3.0552,-2.9774,-2.9172,-2.8607,-2.7944,-2.9232,-3.2378,-3.4951,-3.6656,-3.7614,-3.8272,-3.6686,-3.3395,-3.2078,-3.0163,-2.8038,-2.7375,-2.6776,-2.6183,-2.5644,-2.4687,-2.361,-2.361,-2.361,-2.3588,-2.3471,0.0,0.0,0.0,0.0,-2.1496,-2.0446,-2.07,-2.1448,-2.1736,-2.4331,-2.8133,-3.3169,-3.568,-3.7337,-3.9019,-3.9396,-3.927,-3.8818,-3.9521,-4.0074,-3.9496,-3.9396,-3.9094,-3.8165,-3.8417,-3.8542,-3.8065,-3.7914,-3.7889,-3.799,-3.7839,-3.7713,-3.7713,-3.7713,-3.7462,-3.681,-3.6835,-3.686,-3.6759,-3.6408,-3.6383,-3.6759,-3.6556,-3.6355,-3.6279,-3.6355,-3.6405,-3.6405,-3.7387,-3.8467,-3.9546,-3.9546,-3.9597,-3.9697,-3.9697,-3.9697,-3.9697,-3.9697,-3.9697,-3.9697,-3.9697,-3.9697,-3.9823,-4.0874,-4.1275,-4.1451,0.0,0.0,0.0,0.0,0.0,0.0,0.0,0.0,0.0,0.0,-2.9228,-2.8874,0.0,0.0,0.0,-2.9281,-2.8174,0.0,0.0,0.0,0.0,-2.9562,-3.0432,-3.0761,-3.0522,-2.9355,-2.8697,-2.8607,-2.7944,-2.8966,-3.169,-3.3784,-3.6031,-3.8182,-3.6088,-3.4563,-3.3215,-2.9116,-2.6841,-2.5944,-2.5262,-2.4963,-2.4874,-2.4784,-2.4246,-2.361,-2.361,-2.361,-2.3523,-2.2987,-2.3165,0.0,0.0,0.0,-2.1687,-2.152,-2.1143,-2.1129,-2.2654,-2.5767,-2.9352,-3.2516,-3.455,-3.616,-3.7864,-3.8241,-3.8216,-3.814,-3.8642,-3.8919,-3.8341,-3.8241,-3.8191,-3.804,-3.8065,-3.809,-3.8015,-3.7588,-3.7462,-3.7939,-3.7161,-3.6631,-3.6631,-3.6631,-3.6157,-3.5127,-3.5458,-3.5508,-3.5077,-3.5382,-3.5433,-3.5052,-3.5906,-3.6132,-3.5608,-3.6132,-3.6405,-3.6405,-3.6985,-3.7889,-3.902,-3.902,-3.9245,-3.9697,-3.9697,-3.9697,-3.9697,-3.9697,-3.9697,-3.9697,-3.9697,-3.9697,-3.9823,-4.0874,-4.1275,-4.1451,0.0,0.0,0.0,0.0,0.0,0.0,0.0,0.0,0.0,0.0,0.0,-2.96,0.0,0.0,0.0,0.0,0.0,0.0,0.0,0.0,0.0,-2.8483,-2.9086,-2.9086,-2.8338,-2.741,-2.7111,-2.747,-2.6811,-2.8218,-3.154,-3.2407,-3.4233,-3.6686,-3.4771,-3.3365,-3.2138,-2.8248,-2.6213,-2.5525,-2.4455,-2.4036,-2.4036,-2.4036,-2.3879,-2.361,-2.361,-2.361,-2.3566,-2.3275,-2.3363,-2.3428,-2.2552,0.0,0.0,0.0,-2.0964,-2.1226,-2.3514,-2.5362,-2.7519,-3.121,-3.2918,-3.4274,-3.6584,-3.7337,-3.7538,-3.7538,-3.7513,-3.7536,-3.7538,-3.7789,-3.7713,-3.6737,-3.6885,-3.686,-3.6257,-3.5956,-3.5906,-3.6132,-3.573,-3.5454,-3.5454,-3.5454,-3.5253,-3.4751,-3.4906,-3.4931,-3.468,-3.4906,-3.4931,-3.4726,-3.5203,-3.5328,-3.5031,-3.5629,-3.6207,-3.6883,-3.7061,-3.7764,-3.8919,-3.8919,-3.917,-3.9697,-3.9697,-3.9697,-3.9697,-3.9697,-3.9697,-3.9697,-3.9697,-3.9697,-3.9798,-4.0576,-4.1025,-4.1401,0.0,0.0,0.0,0.0,0.0,0.0,0.0,0.0,0.0,0.0,0.0,0.0,0.0,0.0,0.0,0.0,0.0,0.0,0.0,0.0,0.0,0.0,0.0,-2.7705,-2.6363,-2.5704,-2.5585,-2.6093,-2.5764,-2.7534,-3.1241,-3.16,-3.3095,-3.5459,-3.4113,-3.2677,-3.1062,-2.8098,-2.6452,-2.5734,-2.4208,-2.361,-2.361,-2.361,-2.361,-2.361,-2.361,-2.361,-2.361,-2.361,-2.361,-2.3523,-2.3054,-2.2483,0.0,0.0,0.0,-2.1159,-2.321,-2.3979,-2.5109,-2.895,-3.0658,-3.2064,-3.4751,-3.5855,-3.6383,-3.6533,-3.6232,-3.6081,-3.6483,-3.6885,-3.6759,-3.5483,-3.568,-3.5655,-3.4826,-3.468,-3.4675,-3.4525,-3.4525,-3.4399,-3.4123,-3.4223,-3.4248,-3.4098,-3.4223,-3.4299,-3.4299,-3.4424,-3.4449,-3.4299,-3.4575,-3.4605,-3.4525,-3.5157,-3.5909,-3.6759,-3.691,-3.7487,-3.8492,-3.8492,-3.8818,-3.9496,-3.9647,-3.9622,-3.9496,-3.9647,-3.9697,-3.9697,-3.9697,-3.9697,-3.9772,-4.0475,-4.0924,-4.1376,0.0,0.0,0.0,0.0,0.0,0.0,0.0,0.0,0.0,0.0,0.0,0.0,0.0,-3.0514,-3.0142,-3.0156,0.0,0.0,0.0,0.0,0.0,0.0,0.0,0.0,-2.5674,-2.4993,-2.4664,-2.4694,-2.5315,-2.732,-3.0582,-3.1869,-3.3544,-3.5459,-3.4113,-3.2407,-3.0432,-2.8393,-2.7165,-2.6387,-2.4388,-2.361,-2.361,-2.361,-2.361,-2.361,-2.361,-2.361,-2.361,-2.361,-2.361,-2.361,-2.3566,-2.3143,-2.2649,0.0,0.0,0.0,-2.0904,-2.1644,-2.3,-2.531,-2.7519,-2.964,-3.1913,-3.3294,-3.4223,-3.4751,-3.4826,-3.4826,-3.4851,-3.4831,-3.4831,-3.4776,-3.4801,-3.4801,-3.4726,-3.468,-3.4525,-3.3997,-3.3947,-3.352,-3.2441,-3.2842,-3.2943,-3.239,-3.2842,-3.3169,-3.3169,-3.3671,-3.3696,-3.3212,-3.4173,-3.4474,-3.3947,-3.4956,-3.5533,-3.5583,-3.6157,-3.6757,-3.7262,-3.7262,-3.7864,-3.8994,-3.9471,-3.9396,-3.8994,-3.9471,-3.9697,-3.9697,-3.9697,-3.9697,-3.9823,-4.0849,-4.125,-4.1451,0.0,0.0,0.0,0.0,0.0,0.0,0.0,0.0,0.0,0.0,0.0,0.0,0.0,-3.0954,-3.0818,-3.0818,-3.0009,0.0,0.0,0.0,0.0,0.0,0.0,0.0,0.0,-2.46,-2.4498,-2.4605,-2.4844,-2.6243,-2.8663,-2.9564,-3.0612,-3.1749,-3.2527,-3.2228,-3.0913,-2.7679,-2.6183,-2.5824,-2.4238,-2.361,-2.361,-2.361,-2.361,-2.361,-2.361,-2.361,-2.361,-2.361,-2.361,-2.361,-2.361,-2.3187,-2.2535,-2.1714,-2.1164,-2.0931,-2.1614,-2.1521,-2.1882,-2.451,-2.5706,-2.6756,-2.8624,-3.0482,-3.1938,-3.2466,-3.2867,-3.3119,-3.3119,-3.3696,-3.4073,-3.3721,-3.337,-3.2993,-3.2641,-3.2591,-3.2516,-3.2315,-3.229,-3.2139,-3.1712,-3.1863,-3.1913,-3.1712,-3.1888,-3.1989,-3.1989,-3.219,-3.2365,-3.2516,-3.2918,-3.337,-3.3897,-3.4299,-3.4806,-3.5508,-3.5708,-3.6307,-3.7186,-3.7186,-3.7412,-3.7839,-3.8768,-3.9245,-3.9421,-3.9622,-3.9697,-3.9697,-3.9697,-3.9697,-3.9798,-4.0526,-4.0974,-4.1401,0.0,0.0,0.0,0.0,0.0,-3.119,-3.119,0.0,0.0,0.0,0.0,0.0,0.0,0.0,-3.119,-3.119,-3.0838,-3.0601,-3.0601,-2.9535,0.0,0.0,0.0,0.0,0.0,-2.4327,-2.4177,-2.4246,-2.4485,-2.5501,-2.7285,-2.7949,-2.8727,-2.9651,-3.0462,-3.112,-3.1301,-2.8461,-2.7141,-2.6811,-2.5226,-2.4597,-2.4597,-2.4597,-2.4747,-2.4896,-2.4687,-2.4597,-2.4567,-2.4358,-2.4118,-2.3939,-2.3939,-2.3363,-2.2535,-2.1667,-2.1259,-2.1276,-2.1976,-2.1459,-2.1324,-2.3757,-2.4141,-2.4456,-2.6289,-2.8021,-2.9478,-3.0382,-3.1009,-3.1512,-3.1863,-3.2416,-3.2742,-3.2541,-3.219,-3.1813,-3.1436,-3.1386,-3.1311,-3.116,-3.1135,-3.106,-3.0859,-3.0859,-3.0934,-3.111,-3.1135,-3.121,-3.1386,-3.1386,-3.1562,-3.1913,-3.2114,-3.2566,-3.3319,-3.3721,-3.4349,-3.5232,-3.5408,-3.6031,-3.6958,-3.6958,-3.701,-3.7236,-3.7965,-3.8617,-3.9145,-3.9546,-3.9697,-3.9697,-3.9697,-3.9697,-3.9747,-4.03,-4.0852,-4.1376,0.0,-3.119,-3.119,-3.119,-3.119,-3.119,-3.119,-3.119,-3.119,-3.119,0.0,0.0,0.0,0.0,0.0,-3.1258,-3.1258,-3.1258,-3.119,-3.0514,0.0,0.0,0.0,0.0,-2.5453,-2.4264,-2.3653,-2.364,-2.4246,-2.5232,-2.6512,-2.7195,-2.8214,-2.9442,-2.8154,-2.8996,-3.1331,-3.0642,-3.0013,-2.9352,-2.732,-2.6542,-2.6602,-2.6572,-2.6986,-2.7465,-2.6806,-2.6572,-2.6452,-2.5824,-2.5173,-2.4634,-2.4605,-2.3746,-2.2717,-2.2694,-2.2253,-2.1734,0.0,0.0,0.0,-2.2853,-2.2765,-2.2854,-2.4958,-2.5971,-2.6851,-2.8411,-2.9277,-3.003,-3.106,-3.0859,-3.0708,-3.121,-3.1311,-3.1336,-3.1336,-3.1336,-3.116,-3.0658,-3.0583,-3.0382,-2.9854,-2.9804,-3.0005,-3.0557,-3.0583,-3.0809,-3.1311,-3.1361,-3.1361,-3.1361,-3.1913,-3.219,-3.2215,-3.3294,-3.4148,-3.4726,-3.5232,-3.5805,-3.6405,-3.6405,-3.6707,-3.7161,-3.7186,-3.7487,-3.8065,-3.9195,-3.9672,-3.9697,-3.9697,-3.9697,-3.9747,-4.03,-4.0852,-4.1376,-3.048,-3.0818,-3.119,-3.119,-3.119,-3.119,-3.119,-3.119,-3.119,0.0,0.0,0.0,-3.1989,-3.2949,-3.3355,-3.2848,-3.278,-3.2341,-3.1258,-3.0514,-3.0032,-2.9864,-2.8256,-2.7202,-2.6798,-2.5431,-2.4596,-2.4306,-2.4007,-2.4059,-2.4448,-2.5136,-2.5884,-2.6722,-2.6811,-2.7555,-2.8547,-2.6931,-2.6722,-2.7315,-2.5764,-2.5734,-2.6542,-2.6063,-2.6004,-2.6123,-2.5944,-2.5884,-2.5854,-2.5674,-2.5495,-2.5232,-2.4754,-2.4037,-2.3253,-2.283,-2.2581,0.0,-2.2415,0.0,0.0,0.0,0.0,0.0,-2.2037,-2.3075,-2.4305,-2.5184,-2.644,-2.763,-2.8334,-2.8624,-2.885,-2.9001,-2.9704,-3.0231,-3.0231,-3.0231,-3.0181,-3.003,-3.003,-2.9955,-2.9804,-2.9804,-2.9854,-3.0005,-3.003,-3.008,-3.0231,-3.0608,-3.0834,-3.0834,-3.1336,-3.1813,-3.2215,-3.2516,-3.337,-3.468,-3.4831,-3.5454,-3.6405,-3.6405,-3.648,-3.6656,-3.701,-3.7262,-3.7487,-3.8617,-3.932,-3.9697,-3.9697,-3.9697,-3.9747,-4.03,-4.0852,-4.1376,-3.0649,-3.092,-3.1292,-3.1616,-3.1901,-3.2104,-3.2104,-3.2104,-3.2104,0.0,0.0,0.0,-3.2733,-3.3795,-3.4201,-3.3457,-3.3119,-3.2577,-3.1718,-3.0683,-3.0108,-3.0108,-2.874,-2.7879,-2.7685,-2.6643,-2.5904,-2.5393,-2.4724,-2.426,-2.4007,-2.4126,-2.4365,-2.4777,-2.5166,-2.5578,-2.5848,-2.4687,-2.5136,-2.6572,-2.6363,-2.6572,-2.7016,-2.6901,-2.72,-2.759,-2.7051,-2.72,-2.753,-2.6692,-2.6243,-2.5854,-2.4903,-2.4515,-2.4321,-2.3664,-2.3691,0.0,0.0,0.0,-2.3001,-2.3157,0.0,0.0,-2.1508,-2.1961,-2.2614,-2.3185,-2.4255,-2.531,-2.6113,-2.6691,-2.7067,-2.7067,-2.7996,-2.89,-2.9377,-2.9628,-2.9804,-2.9804,-2.9804,-2.9804,-2.9804,-2.9804,-2.9804,-2.9804,-2.9804,-2.9804,-2.9804,-3.0105,-3.0281,-3.0281,-3.0783,-3.121,-3.1537,-3.1989,-3.2817,-3.4048,-3.45,-3.5177,-3.6031,-3.6304,-3.6405,-3.643,-3.6757,-3.696,-3.7262,-3.814,-3.8843,-3.9371,-3.9597,-3.9697,-3.9747,-4.03,-4.0852,-4.1376,0.0,-3.119,-3.1427,-3.2158,-3.2848,-3.3322,0.0,-3.3457,-3.3457,0.0,-3.3152,-3.3106,-3.3931,-3.4539,-3.4573,-3.3829,-3.3038,-3.2462,-3.2327,-3.0987,-3.0224,-3.0224,-2.9054,-2.8437,-2.8425,-2.781,-2.7211,-2.6704,-2.5956,-2.5315,-2.4776,-2.404,-2.3687,-2.3687,-2.3653,-2.361,-2.361,-2.367,-2.4747,-2.6482,-2.7769,-2.8038,-2.7794,-2.8368,-2.9265,-3.0043,-2.8996,-2.9295,-2.9894,-2.8184,-2.7165,-2.6393,-2.5202,-2.5173,-2.5472,-2.4903,-2.5143,0.0,0.0,0.0,0.0,-2.5156,-2.4069,0.0,-2.2432,-2.1957,-2.172,-2.2062,-2.2543,-2.3246,-2.4299,-2.5034,-2.5385,-2.5335,-2.6314,-2.7494,-2.8562,-2.9252,-2.9603,-2.9603,-2.9654,-2.9704,-2.9704,-2.9704,-2.9729,-2.9779,-2.9804,-2.9804,-2.9804,-2.9804,-2.9804,-2.9804,-3.0256,-3.0557,-3.0608,-3.1612,-3.2441,-3.3093,-3.4123,-3.4881,-3.5433,-3.6031,-3.6329,-3.6329,-3.638,-3.6681,-3.7136,-3.7739,-3.8341,-3.8919,-3.9471,-3.9697,-3.9747,-4.0249,-4.0802,-4.1351,-3.119,-3.119,-3.1427,-3.2158,-3.2429,-3.2903,0.0,-3.3795,-3.3829,-3.5025,-3.5622,-3.6423,-3.7753,-3.7516,-3.6941,-3.622,-3.4866,-3.358,-3.2395,-3.1461,-3.0987,-3.0987,-3.02,-2.978,-2.9869,-2.8688,-2.8026,-2.804,-2.6743,-2.6077,-2.5955,-2.4813,-2.4246,-2.4225,-2.3794,-2.361,-2.364,-2.4186,-2.4634,-2.5053,-2.5884,-2.7081,-2.8427,-2.8547,-2.8397,-2.8214,-2.8487,-2.8397,-2.8124,-2.7735,-2.7165,-2.6542,-2.6273,-2.5944,-2.5561,-2.5465,-2.5525,-2.5615,-2.5615,-2.5521,-2.5331,-2.4911,-2.4542,0.0,-2.2292,-2.1849,-2.1642,-2.1131,-2.1446,-2.202,-2.2673,-2.3627,-2.4155,-2.3672,-2.4908,-2.6314,-2.7444,-2.8097,-2.8423,-2.8423,-2.8825,-2.9063,-2.9063,-2.9063,-2.9302,-2.9754,-2.9804,-2.9804,-2.9804,-2.9804,-2.9804,-2.9804,-2.9905,-3.0156,-3.0608,-3.1235,-3.2064,-3.3136,-3.3746,-3.4349,-3.4856,-3.5408,-3.5658,-3.5683,-3.6182,-3.6455,-3.6656,-3.7588,-3.8341,-3.8919,-3.9471,-3.9697,-3.9697,-3.9823,-4.0475,-4.13,-3.119,-3.119,-3.1529,-3.2645,0.0,0.0,0.0,0.0,-3.5487,-3.658,-3.7415,-3.7912,-3.7912,-3.7889,-3.7449,-3.6299,-3.5148,-3.4189,-3.3444,-3.2361,-3.1752,-3.1752,-3.1021,-3.0701,-3.0757,-3.0062,-2.9569,-2.9339,-2.8306,-2.7308,-2.6377,-2.5737,-2.5061,-2.44,-2.4563,-2.4573,-2.4511,-2.495,-2.5292,-2.5644,-2.5974,-2.6692,-2.7619,-2.7949,-2.8124,-2.8124,-2.8124,-2.7884,-2.7645,-2.8004,-2.7859,-2.747,-2.6811,-2.6841,-2.6961,-2.6303,-2.6333,-2.6602,-2.6602,-2.6602,-2.6439,-2.5815,-2.5418,0.0,0.0,-2.2502,-2.2046,-2.1303,-2.1145,-2.1218,-2.1476,-2.1974,-2.2322,-2.2322,-2.3477,-2.4682,-2.5511,-2.659,-2.7293,-2.7293,-2.7519,-2.7821,-2.8072,-2.8097,-2.8448,-2.9302,-2.9352,-2.9478,-2.9779,-2.9804,-2.9804,-2.9804,-2.9804,-2.993,-3.0206,-3.0733,-3.1411,-3.224,-3.3093,-3.3771,-3.4349,-3.5132,-3.5508,-3.5533,-3.6132,-3.6405,-3.648,-3.7563,-3.8191,-3.8517,-3.9371,-3.9697,-3.9722,-3.9998,-4.0626,-4.1326,-3.119,-3.119,-3.1664,-3.3152,0.0,0.0,0.0,0.0,-3.6874,-3.7787,-3.8531,-3.8531,-3.7371,-3.7618,-3.7483,-3.6343,-3.5182,-3.4607,-3.4912,-3.341,-3.2496,-3.2496,-3.1935,-3.1562,-3.1393,-3.1393,-3.1093,-3.0477,-2.9788,-2.867,-2.7189,-2.6955,-2.6167,-2.4988,-2.5663,-2.5765,-2.5453,-2.5667,-2.6092,-2.6602,-2.6602,-2.6686,-2.6866,-2.7555,-2.8064,-2.8338,-2.7794,-2.7585,-2.7675,-2.8218,-2.8397,-2.8218,-2.7111,-2.753,-2.8188,-2.7136,-2.7195,-2.7585,-2.7585,-2.7675,-2.7645,-2.6956,-2.6482,-2.583,0.0,0.0,0.0,-2.1995,-2.1267,-2.0779,-2.073,-2.0723,-2.0792,-2.1117,-2.2096,-2.292,-2.3301,-2.4639,-2.5695,-2.6122,-2.6273,-2.6549,-2.7102,-2.7318,-2.777,-2.8512,-2.8762,-2.9088,-2.9603,-2.9729,-2.9804,-2.9804,-2.9804,-2.9804,-2.9804,-3.0331,-3.0884,-3.1411,-3.2416,-3.3194,-3.3771,-3.4731,-3.5232,-3.5382,-3.5956,-3.6304,-3.648,-3.7563,-3.8015,-3.8115,-3.9245,-3.9697,-3.9747,-4.0199,-4.0777,-4.1351,-3.119,-3.119,-3.1664,-3.3152,0.0,0.0,0.0,0.0,-3.6265,-3.7719,-3.8531,-3.8937,-3.8768,-3.8227,-3.8091,-3.8565,-3.6096,-3.5081,-3.6457,-3.4472,-3.3288,-3.3288,-3.3186,-3.2848,-3.2192,-3.2192,-3.1813,-3.1112,-3.0369,-2.9907,-2.9671,-2.853,-2.7627,-2.6987,-2.7136,-2.657,-2.5611,-2.6167,-2.6482,-2.6602,-2.6602,-2.6956,-2.7555,-2.8218,-2.8158,-2.7705,-2.7615,-2.7585,-2.7615,-2.7675,-2.7705,-2.7675,-2.7525,-2.7585,-2.7675,-2.7525,-2.7525,-2.7585,-2.7585,-2.8034,-2.8308,-2.7645,-2.7859,-2.7765,-2.5887,0.0,-2.4124,-2.2831,0.0,-2.0797,-2.0801,0.0,0.0,-2.0062,-2.0941,-2.1518,-2.1144,-2.1647,-2.2799,-2.4782,-2.541,-2.5912,-2.6524,-2.7444,-2.7871,-2.7494,-2.8373,-2.8913,-2.8988,-2.9528,-2.9804,-2.9804,-2.9804,-2.9804,-2.9804,-3.0331,-3.0884,-3.1411,-3.2014,-3.2616,-3.3194,-3.3796,-3.4349,-3.4806,-3.5357,-3.5906,-3.648,-3.7563,-3.8015,-3.8115,-3.9245,-3.9697,-3.9697,-3.9772,-4.045,-4.13,-3.1292,-3.1529,-3.2171,-3.322,0.0,0.0,0.0,0.0,-3.7821,-3.8464,-3.9174,-3.9639,-3.9639,-3.9377,-3.8971,-3.8396,-3.7212,-3.6366,-3.6129,-3.481,-3.4032,-3.4032,-3.3626,-3.3051,-3.2327,-3.2293,-3.1955,-3.119,-3.0886,-3.0378,-2.9615,-2.9496,-2.8845,-2.7818,-2.7985,-2.7713,-2.7167,-2.7163,-2.714,-2.7195,-2.7195,-2.7345,-2.7615,-2.7914,-2.7854,-2.7585,-2.7585,-2.7585,-2.7585,-2.7585,-2.7854,-2.8124,-2.7735,-2.7884,-2.8124,-2.7705,-2.7585,-2.7585,-2.7585,-2.7794,-2.7974,-2.7675,-2.7525,-2.724,-2.6426,-2.5702,-2.5038,-2.4462,0.0,0.0,0.0,0.0,0.0,0.0,-2.1483,-2.1477,-2.1199,-2.137,-2.1945,-2.3195,-2.3552,-2.418,-2.5385,-2.6189,-2.6816,-2.7278,-2.8021,-2.8562,-2.8863,-2.9478,-2.9804,-2.9804,-2.9804,-2.9804,-2.9804,-3.003,-3.0407,-3.0959,-3.1486,-3.2039,-3.2616,-3.3495,-3.4198,-3.4705,-3.5257,-3.5855,-3.648,-3.7563,-3.8015,-3.8115,-3.9245,-3.9697,-3.9697,-3.9697,-4.0199,-4.0849,-3.1901,-3.2205,-3.2835,-3.3558,-3.4134,0.0,0.0,-3.755,-3.8464,-3.8667,-3.9343,-3.9876,-4.0079,-4.029,-4.0054,-3.9174,-3.8734,-3.8024,-3.6918,-3.5757,-3.5013,-3.481,-3.4303,-3.366,-3.2936,-3.2699,-3.2259,-3.1515,-3.1292,-3.0729,-2.9836,-3.0327,-2.9914,-2.8781,-2.9327,-2.9107,-2.837,-2.857,-2.8238,-2.7615,-2.7794,-2.7764,-2.7585,-2.7585,-2.7585,-2.7585,-2.7585,-2.7585,-2.7585,-2.7585,-2.7914,-2.8218,-2.7764,-2.7944,-2.8218,-2.7735,-2.7585,-2.7585,-2.7585,-2.7735,-2.7824,-2.7645,-2.7375,-2.7081,-2.6926,-2.6482,-2.6069,-2.5867,-2.5346,0.0,0.0,0.0,-2.2906,-2.2666,0.0,-2.1823,-2.1587,-2.1551,-2.1713,-2.2221,-2.2573,-2.3251,-2.4481,-2.5084,-2.5787,-2.6741,-2.7344,-2.7971,-2.8637,-2.9252,-2.9628,-2.9779,-2.9804,-2.9804,-2.9804,-2.9804,-3.008,-3.0633,-3.1135,-3.1687,-3.224,-3.3219,-3.3972,-3.4525,-3.5031,-3.5629,-3.6232,-3.7487,-3.8015,-3.8115,-3.9245,-3.9697,-3.9697,-3.9697,-4.0049,-4.0601,-3.3322,-3.3355,-3.3592,-3.4336,-3.4472,-3.4742,-3.5532,-3.6332,-3.7134,-3.7855,-3.8565,-3.9309,-4.0011,-4.073,-4.1441,-4.2083,-4.0857,-3.9986,-3.9961,-3.7922,-3.6366,-3.56,-3.5532,-3.516,-3.4438,-3.3728,-3.2983,-3.2259,-3.1549,-3.119,-3.1137,-3.1171,-3.0825,-3.0297,-3.1603,-3.0827,-2.8621,-3.0561,-2.9904,-2.7645,-2.8308,-2.8158,-2.7585,-2.7585,-2.7585,-2.7585,-2.7585,-2.7585,-2.7585,-2.7585,-2.7615,-2.7615,-2.7615,-2.7615,-2.7615,-2.7615,-2.7585,-2.7585,-2.7585,-2.8068,-2.8397,-2.7764,-2.8068,-2.8368,-2.7735,-2.7555,-2.7345,-2.6697,-2.6021,-2.5391,-2.4784,-2.4145,-2.3467,-2.2785,-2.2702,0.0,0.0,-2.1624,-2.1771,-2.2229,-2.3276,-2.3979,-2.4029,-2.4531,-2.5084,-2.5611,-2.6223,-2.7027,-2.8072,-2.8612,-2.9227,-2.9779,-2.9804,-2.9804,-2.9804,-2.9804,-3.008,-3.0633,-3.1135,-3.1687,-3.224,-3.2842,-3.3395,-3.3947,-3.45,-3.5006,-3.5658,-3.7337,-3.8015,-3.8115,-3.9245,-3.9697,-3.9697,-3.9697,-4.0049,-4.0601,-3.4754,-3.4856,-3.4754,-3.4539,-3.4912,-3.5487,-3.6265,-3.7043,-3.8125,-3.9851,-4.073,-4.1847,-4.3606,-4.4045,-4.4079,-4.3842,-4.2861,-4.1677,-4.0189,-3.8497,-3.7178,-3.6434,-3.5893,-3.5228,-3.4506,-3.4269,-3.3525,-3.2293,-3.2056,-3.1684,-3.119,-3.119,-3.1092,-3.0878,-3.0949,-3.0486,-2.9716,-3.0022,-2.939,-2.818,-2.8032,-2.8094,-2.8188,-2.7764,-2.7585,-2.7585,-2.7585,-2.7585,-2.7585,-2.7585,-2.7585,-2.7585,-2.7585,-2.7585,-2.7585,-2.7585,-2.7585,-2.7585,-2.7585,-2.7764,-2.7884,-2.7645,-2.7764,-2.7884,-2.7645,-2.7944,-2.8068,-2.7405,-2.7437,-2.7373,-2.6717,-2.607,-2.5392,-2.4737,-2.4262,-2.3798,0.0,-2.3296,-2.358,-2.3742,-2.3544,-2.3948,-2.5305,-2.4751,-2.4855,-2.6239,-2.6417,-2.6977,-2.8047,-2.8587,-2.9202,-2.9779,-2.9804,-2.9804,-2.9804,-2.9804,-2.988,-3.008,-3.0608,-3.116,-3.1687,-3.224,-3.3018,-3.3922,-3.4474,-3.4981,-3.5633,-3.7337,-3.8015,-3.8115,-3.9245,-3.9697,-3.9697,-3.9697,-3.9798,-4.0099,-3.5498,-3.56,-3.543,-3.4979,-3.552,-3.6197,-3.6728,-3.8091,-3.958,-4.1001,-4.2557,-4.4079,-4.5534,-4.6177,-4.6177,-4.5461,-4.4925,-4.3436,-4.0663,-3.9614,-3.8396,-3.6863,-3.6299,-3.5791,-3.534,-3.4776,-3.4053,-3.3072,-3.2564,-3.2056,-3.1582,-3.1326,-3.119,-3.119,-3.1065,-3.075,-3.0333,-3.0477,-2.988,-2.8772,-2.8149,-2.8057,-2.8188,-2.7764,-2.7735,-2.7914,-2.7675,-2.7585,-2.7585,-2.7585,-2.7585,-2.7585,-2.7585,-2.7585,-2.7585,-2.7585,-2.7585,-2.7585,-2.7585,-2.7585,-2.7585,-2.7585,-2.7585,-2.7585,-2.7585,-2.8098,-2.8397,-2.7735,-2.8128,-2.8397,-2.7735,-2.7255,-2.6743,-2.6054,-2.5624,-2.511,0.0,-2.4615,-2.4926,-2.5205,-2.4441,-2.4324,-2.5422,-2.4652,-2.4556,-2.5645,-2.5833,-2.6364,-2.7469,-2.8222,-2.89,-2.9478,-2.9679,-2.9804,-2.9804,-2.9804,-2.9804,-2.9804,-3.0357,-3.0884,-3.1411,-3.1964,-3.2717,-3.3646,-3.4399,-3.4881,-3.5332,-3.7036,-3.7839,-3.809,-3.9044,-3.9521,-3.9697,-3.9697,-3.9948,-4.0375,-3.5633,-3.5701,-3.5701,-3.5701,-3.6332,-3.6863,-3.6897,-3.9343,-4.1238,-4.1373,-4.3944,-4.5805,-4.5872,-4.7124,-4.7665,-4.6955,-4.6887,-4.5297,-4.1677,-4.1373,-4.002,-3.71,-3.6931,-3.6863,-3.6795,-3.5351,-3.4539,-3.4438,-3.3038,-3.2327,-3.2226,-3.1549,-3.119,-3.1224,-3.1921,-3.1536,-3.0417,-3.178,-3.1215,-2.9403,-2.8795,-2.8229,-2.7745,-2.769,-2.8085,-2.8569,-2.7854,-2.7585,-2.7585,-2.7585,-2.7585,-2.7585,-2.7585,-2.7585,-2.7585,-2.7585,-2.7585,-2.7585,-2.7585,-2.7585,-2.7585,-2.7585,-2.7585,-2.7585,-2.7585,-2.8098,-2.8397,-2.7735,-2.8128,-2.8397,-2.7735,-2.7585,-2.7375,-2.6776,-2.6632,-2.6382,-2.5702,-2.56,-2.5856,-2.6491,-2.5933,-2.5217,-2.4538,-2.4366,-2.4249,-2.414,-2.457,-2.5317,-2.6424,-2.7566,-2.8385,-2.8863,-2.9503,-2.9804,-2.9804,-2.9804,-2.9804,-2.9804,-3.0331,-3.0859,-3.1411,-3.1938,-3.2491,-3.3187,-3.4248,-3.468,-3.4851,-3.6508,-3.7513,-3.8065,-3.8642,-3.922,-3.9697,-3.9697,-4.04,-4.1275,-3.6366,-3.6941,-3.729,-3.729,-3.7483,-3.7787,-3.8328,-4.002,-4.1813,-4.3504,-4.5365,-4.6921,-4.8037,-4.8511,-4.8646,-4.8443,-4.7936,-4.6752,-4.4688,-4.3443,-4.1779,-3.9377,-3.8734,-3.7946,-3.6829,-3.6423,-3.5407,-3.3694,-3.3288,-3.2544,-3.1481,-3.1292,-3.119,-3.119,-3.1393,-3.13,-3.1006,-3.1427,-3.103,-3.0096,-2.9448,-2.9382,-2.9603,-2.8625,-2.8676,-2.9123,-2.8001,-2.7585,-2.7585,-2.7585,-2.7585,-2.7585,-2.7585,-2.7585,-2.7585,-2.7585,-2.7585,-2.7585,-2.7585,-2.7585,-2.7585,-2.7585,-2.7585,-2.7585,-2.7585,-2.8098,-2.8397,-2.7735,-2.8128,-2.8397,-2.7735,-2.7585,-2.7525,-2.7375,-2.7345,-2.7295,-2.7089,-2.7064,-2.7123,-2.7302,-2.7152,-2.6967,-2.6785,-2.5273,-2.4662,-2.5571,-2.5708,-2.5975,-2.6458,-2.8142,-2.9016,-2.89,-2.9503,-2.9804,-2.9804,-2.9804,-2.9804,-2.9804,-2.993,-3.0482,-3.1386,-3.1537,-3.2139,-3.3187,-3.4248,-3.468,-3.4851,-3.6508,-3.7513,-3.8065,-3.8642,-3.922,-3.9697,-3.9697,-4.04,-4.1275,-3.6728,-3.7652,-3.8396,-3.8396,-3.9174,-3.9851,-3.9952,-4.0933,-4.2388,-4.4344,-4.6143,-4.7462,-4.797,-4.8612,-4.8883,-4.8545,-4.7834,-4.665,-4.4823,-4.4215,-4.2794,-4.0197,-3.9715,-3.8768,-3.7313,-3.6965,-3.5994,-3.4349,-3.3728,-3.2983,-3.2138,-3.1495,-3.119,-3.119,-3.119,-3.119,-3.1205,-3.1232,-3.0902,-3.0312,-2.9945,-2.9855,0.0,-2.9177,-2.8943,-2.8965,-2.8253,-2.7835,-2.7585,-2.7585,-2.7585,-2.7585,-2.7585,-2.7585,-2.7585,-2.7585,-2.7585,-2.7585,-2.7585,-2.7585,-2.7585,-2.7585,-2.7585,-2.7585,-2.7585,-2.7884,-2.8064,-2.7675,-2.7914,-2.8064,-2.7675,-2.7585,-2.7585,-2.7585,-2.7585,-2.7585,-2.7585,-2.7585,-2.7585,-2.7585,-2.7585,-2.7585,-2.7585,-2.6174,-2.5438,-2.5825,-2.6025,-2.6175,-2.6231,-2.7743,-2.8585,-2.8549,-2.9782,-3.0254,-2.9804,-3.0509,-3.0509,-2.9804,-2.9804,-3.0357,-3.1386,-3.1386,-3.2014,-3.3187,-3.4248,-3.468,-3.4826,-3.6232,-3.7287,-3.809,-3.8919,-3.9421,-3.9697,-3.9697,-4.04,-4.1275,-3.7066,-3.8217,-3.914,-3.914,-4.0798,-4.2049,-4.1711,-4.2354,-4.3362,-4.4581,-4.6684,-4.7733,-4.6887,-4.8037,-4.8578,-4.7834,-4.7158,-4.5906,-4.3815,-4.4248,-4.3335,-4.0502,-4.029,-3.9512,-3.7922,-3.7246,-3.64,-3.5295,-3.4032,-3.3322,-3.3085,-3.1799,-3.119,-3.119,-3.119,-3.119,-3.119,-3.1292,-3.1033,-3.0567,-3.0567,-3.0271,-2.9758,-2.9572,-2.918,-2.8724,-2.8559,-2.81,-2.7585,-2.7585,-2.7585,-2.7585,-2.7585,-2.7585,-2.7585,-2.7585,-2.7585,-2.7585,-2.7585,-2.7585,-2.7585,-2.7585,-2.7585,-2.7585,-2.7585,-2.7675,-2.7705,-2.7615,-2.7675,-2.7705,-2.7615,-2.7585,-2.7585,-2.7585,-2.7585,-2.7585,-2.7585,-2.7585,-2.7585,-2.7585,-2.7585,0.0,-2.7585,-2.6945,-2.6229,-2.5605,-2.6077,-2.6282,-2.6096,-2.7141,-2.7892,-2.8265,-3.0058,-3.0771,-3.0252,-3.1331,-3.1331,-3.0213,-2.9932,-3.0331,-3.1286,-3.1361,-3.1964,-3.3043,-3.4198,-3.468,-3.4801,-3.5952,-3.701,-3.8115,-3.9245,-3.9697,-3.9697,-3.9697,-4.035,-4.12,-3.8386,-3.9334,-3.991,-3.991,-4.073,-4.1982,-4.3768,-4.5128,-4.5872,-4.5534,-4.7428,-4.8308,-4.6955,-4.7564,-4.78,-4.7056,-4.6853,-4.638,-4.5365,-4.4857,-4.3802,-4.1982,-4.1339,-4.002,-3.7956,-3.7787,-3.6434,-3.3795,-3.3525,-3.278,-3.1562,-3.1326,-3.119,-3.119,-3.119,-3.119,-3.1224,-3.1853,-3.2029,-3.1948,-3.1948,-3.1887,-3.1662,-3.0549,-3.0064,-2.9848,-2.8834,-2.81,-2.7585,-2.7585,-2.7585,-2.7585,-2.7585,-2.7585,-2.7585,-2.7585,-2.7585,-2.7585,-2.7585,-2.7585,-2.7585,-2.7585,-2.7585,-2.7585,-2.7585,-2.8034,-2.8248,-2.7705,-2.8064,-2.8248,-2.7705,-2.7585,-2.7585,-2.7585,-2.7585,-2.7585,-2.7585,-2.7585,-2.7585,-2.7585,-2.7585,-2.7585,-2.7585,-2.6945,-2.6443,-2.631,-2.6909,-2.7173,-2.6973,-2.8001,-2.8777,-2.9144,-2.9255,-3.0393,-3.2606,-3.101,-3.101,-3.2606,-3.0688,-3.0131,-3.0758,-3.1185,-3.1738,-3.2466,-3.4048,-3.468,-3.4801,-3.5952,-3.701,-3.8115,-3.9245,-3.9697,-3.9697,-3.9697,-4.0099,-4.0727,-3.9368,-3.9876,-4.0214,-4.0595,-4.1948,-4.3436,-4.4925,-4.6413,-4.7124,-4.638,-4.6853,-4.7022,-4.6312,-4.6549,-4.6616,-4.6244,-4.5872,-4.5331,-4.4587,-4.4181,-4.3301,-4.1813,-4.1407,-4.0155,-3.7956,-3.7922,-3.6806,-3.4518,-3.3795,-3.3051,-3.2307,-3.1562,-3.119,-3.119,-3.119,-3.119,-3.1258,-3.1989,-3.2293,-3.2293,-3.2293,-3.2293,-3.2205,-3.1146,-3.0559,-3.0213,-2.9651,-2.8834,-2.8033,-2.771,-2.7585,-2.7585,-2.7585,-2.7585,-2.7585,-2.7585,-2.7585,-2.7585,-2.7585,-2.7585,-2.7585,-2.7585,-2.7585,-2.7585,-2.7585,-2.7854,-2.8094,-2.8124,-2.8124,-2.7974,-2.7645,-2.7884,-2.8004,-2.7645,-2.7884,-2.8004,-2.7645,-2.7585,-2.7585,-2.7585,-2.7585,-2.7585,-2.7585,-2.728,-2.7074,-2.7074,-2.7394,-2.7605,-2.7767,-2.8241,-2.8797,-2.9364,-3.0041,-3.0729,-3.141,-3.1177,-3.1177,-3.1436,-3.0341,-3.0231,-3.1035,-3.1286,-3.1863,-3.2742,-3.4123,-3.468,-3.4851,-3.6533,-3.7538,-3.8115,-3.9245,-3.9697,-3.9697,-3.9697,-4.0049,-4.0601,-4.0214,-4.035,-4.0587,-4.1305,-4.3031,-4.4654,-4.5568,-4.6684,-4.7293,-4.6853,-4.6278,-4.5805,-4.55,-4.5602,-4.5568,-4.5263,-4.4688,-4.4012,-4.3234,-4.3003,-4.2395,-4.1271,-4.1035,-3.9986,-3.7956,-3.7922,-3.7077,-3.5363,-3.4201,-3.3558,-3.3389,-3.2036,-3.1427,-3.1427,-3.1427,-3.1529,-3.1698,-3.2462,-3.2767,-3.2767,-3.2767,-3.2666,-3.2462,-3.1698,-3.1033,-3.0477,-3.0351,-2.9695,-2.8764,-2.8057,-2.771,-2.7585,-2.7585,-2.7585,-2.7585,-2.7585,-2.7585,-2.7585,-2.7585,-2.7585,-2.7585,-2.7585,-2.7585,-2.7585,-2.7585,-2.7705,-2.7914,-2.8308,-2.8094,-2.7854,-2.8004,-2.8338,-2.8457,-2.8094,-2.8364,-2.8397,-2.7884,-2.7824,-2.7764,-2.7615,-2.7585,-2.7585,-2.7585,-2.7585,-2.7585,-2.7585,-2.7735,-2.8017,-2.8565,-2.854,-2.8973,-2.9962,-3.1028,-3.145,-3.1135,-3.1887,-3.18,-3.0843,-3.0445,-3.0618,-3.1235,-3.1461,-3.2039,-3.2943,-3.4073,-3.4675,-3.5006,-3.7136,-3.8015,-3.8115,-3.9245,-3.9697,-3.9697,-3.9697,-4.0049,-4.0601,-4.0933,-4.1102,-4.1339,-4.2049,-4.2929,-4.4012,-4.55,-4.5838,-4.6109,-4.6718,-4.6718,-4.6177,-4.4852,-4.5297,-4.5162,-4.3713,-4.3544,-4.32,-4.2455,-4.1779,-4.1339,-4.1204,-4.0561,-3.9478,-3.7922,-3.7922,-3.6806,-3.4607,-3.4438,-3.4066,-3.3389,-3.2564,-3.2192,-3.2192,-3.2192,-3.2564,-3.3254,-3.3964,-3.4269,-3.4269,-3.4269,-3.3897,-3.322,-3.2496,-3.1745,-3.1052,-3.0497,-3.0246,-2.9957,-2.8787,-2.8057,-2.7585,-2.7585,-2.7585,-2.7585,-2.7585,-2.7585,-2.7585,-2.7585,-2.7585,-2.7585,-2.7585,-2.7585,-2.7585,-2.7585,-2.8094,-2.8338,-2.7824,-2.8154,-2.8697,-2.9322,-2.8966,-2.8786,-2.9322,-2.8936,-2.8577,-2.8517,-2.8517,-2.8278,-2.7675,-2.7585,-2.7585,-2.7585,-2.7585,-2.7585,-2.7585,-2.8158,-2.879,-2.9453,-2.9317,-3.0004,-3.1793,-3.1221,-3.2339,-3.536,-3.3525,-3.3119,-3.4128,-3.2566,-3.141,-3.0708,-3.1687,-3.219,-3.2365,-3.3495,-3.455,-3.5558,-3.7312,-3.8015,-3.8115,-3.9245,-3.9697,-3.9697,-3.9697,-4.0049,-4.0601,-4.1779,-4.1847,-4.2083,-4.2828,-4.3606,-4.4485,-4.5534,-4.5703,-4.5805,-4.6109,-4.6143,-4.5906,-4.5331,-4.4722,-4.4051,-4.3443,-4.2997,-4.2422,-4.1677,-4.1373,-4.1001,-4.0561,-4.0282,-3.9436,-3.7922,-3.7922,-3.7009,-3.5182,-3.4709,-3.4336,-3.4032,-3.3322,-3.2949,-3.2949,-3.2949,-3.3119,-3.3457,-3.4201,-3.4506,-3.4506,-3.4506,-3.4066,-3.3322,-3.2598,-3.1853,-3.1171,-3.0918,-3.0601,-3.0246,-2.9739,-2.8927,-2.8107,-2.771,-2.7585,-2.7585,-2.7585,-2.7585,-2.7585,-2.7585,-2.7585,-2.7585,-2.7585,-2.7585,-2.7705,-2.8124,-2.8124,-2.8154,-2.8693,-2.9022,-2.9146,-2.9026,-2.9415,-2.9714,-2.9621,-2.9684,-2.9475,-2.8697,-2.8607,-2.8338,-2.7675,-2.7585,-2.7585,-2.7585,-2.7585,-2.7764,-2.8184,-2.8457,-2.8876,-2.9562,-2.9885,-3.066,-3.2051,-3.1785,-3.2342,-3.3959,-3.3056,-3.2878,-3.3412,-3.2691,-3.2556,-3.2874,-3.2671,-3.296,-3.3746,-3.4198,-3.5027,-3.6107,-3.7111,-3.7713,-3.809,-3.8894,-3.9396,-3.9697,-3.9697,-3.9848,-4.0149,-4.2591,-4.2625,-4.2861,-4.3639,-4.4215,-4.4852,-4.5602,-4.5534,-4.5466,-4.5669,-4.55,-4.5365,-4.5365,-4.4418,-4.3673,-4.3409,-4.2726,-4.1982,-4.1271,-4.1001,-4.0629,-4.0113,-4.0113,-3.9436,-3.7922,-3.7922,-3.7121,-3.56,-3.5081,-3.481,-3.481,-3.4066,-3.3728,-3.3728,-3.3728,-3.3829,-3.41,-3.4607,-3.481,-3.481,-3.4573,-3.4066,-3.3322,-3.2598,-3.1853,-3.119,-3.119,-3.0918,-3.0539,-3.0372,-2.9739,-2.888,-2.81,-2.786,-2.7835,-2.7635,-2.7585,-2.7585,-2.7585,-2.7585,-2.7585,-2.7585,-2.7585,-2.7794,-2.8457,-2.8218,-2.8274,-2.9592,-2.9741,-2.9564,-2.9475,-2.9714,-2.9983,-3.0133,-3.0043,-2.9714,-2.8996,-2.8727,-2.8338,-2.7675,-2.7585,-2.7675,-2.7884,-2.7884,-2.8184,-2.8846,-2.9056,-2.9355,-2.9834,-3.0642,-3.1516,-3.2463,-3.2695,-3.3013,-3.3463,-3.3429,-3.329,-3.3045,-3.3409,-3.3879,-3.4379,-3.3685,-3.384,-3.471,-3.471,-3.5152,-3.5956,-3.6835,-3.7513,-3.8065,-3.8642,-3.922,-3.9697,-3.9697,-3.9798,-4.0074,-4.324,-4.3375,-4.3639,-4.4445,-4.4615,-4.4852,-4.5602,-4.506,-4.4886,-4.5602,-4.506,-4.4615,-4.4615,-4.4615,-4.4248,-4.3443,-4.2726,-4.1982,-4.1271,-4.0493,-4.0113,-4.0113,-4.0113,-3.9436,-3.7922,-3.7922,-3.7121,-3.56,-3.56,-3.56,-3.5566,-3.4844,-3.4472,-3.4472,-3.4472,-3.4878,-3.5566,-3.5566,-3.56,-3.5532,-3.4776,-3.4066,-3.3322,-3.2598,-3.1853,-3.119,-3.119,-3.119,-3.1112,-3.0497,-3.0309,-3.0064,-2.8889,-2.8487,-2.8367,-2.776,-2.7585,-2.7585,-2.7585,-2.7585,-2.7585,-2.7585,-2.7585,-2.7794,-2.8457,-2.8577,-2.8936,-3.0223,-3.0013,-2.9983,-3.1241,-2.9896,-2.9265,-3.1182,-2.9866,-2.8846,-2.9502,-2.8996,-2.8338,-2.7675,-2.7585,-2.7854,-2.8517,-2.8577,-2.8876,-2.9562,-3.0133,-3.0492,-3.0492,-3.1749,-3.2796,-3.3484,-3.4113,-3.4801,-3.5457,-3.5457,-3.4968,-3.4007,-3.5238,-3.537,-3.4406,-3.458,-3.4692,-3.4714,-3.471,-3.4726,-3.4876,-3.6508,-3.7513,-3.8065,-3.8642,-3.922,-3.9697,-3.9697,-4.0049,-4.0576,-4.4147,-4.4215,-4.4282,-4.4581,-4.4615,-4.4682,-4.4891,-4.475,-4.4682,-4.4919,-4.475,-4.4615,-4.4615,-4.4113,-4.347,-4.2726,-4.1982,-4.1238,-4.0519,-4.0248,-4.0113,-4.0113,-4.0113,-3.9436,-3.7922,-3.7922,-3.7121,-3.56,-3.56,-3.56,-3.56,-3.5363,-3.5228,-3.5228,-3.5228,-3.5363,-3.56,-3.56,-3.56,-3.5566,-3.5329,-3.4506,-3.3389,-3.3152,-3.2273,-3.119,-3.119,-3.119,-3.1171,-3.0958,-3.0918,-3.0777,-2.9978,-2.9157,-2.8463,-2.8271,-2.7934,-2.7585,-2.7585,-2.7585,-2.7585,-2.7585,-2.7944,-2.8457,-2.9116,-2.9594,-2.9894,-2.9894,-3.0043,-3.0193,-3.0193,-3.0043,-3.0103,-3.0731,-2.9953,-2.9475,-3.0133,-2.9295,-2.8697,-2.8933,-2.8547,-2.8547,-2.9232,-2.9265,-2.9535,-3.0163,-3.0402,-3.0492,-3.0492,-3.1779,-3.2826,-3.3484,-3.4174,-3.4801,-3.5489,-3.5519,-3.5359,-3.5034,-3.5891,-3.6195,-3.6031,-3.6578,-3.6248,-3.531,-3.6503,-3.6349,-3.5399,-3.7114,-3.7877,-3.8015,-3.8216,-3.8868,-3.9697,-3.9697,-3.9798,-4.0099,-4.4615,-4.4615,-4.4615,-4.4615,-4.4615,-4.4615,-4.4615,-4.4615,-4.4615,-4.4615,-4.4615,-4.4615,-4.4615,-4.3876,-4.3206,-4.276,-4.1779,-4.1001,-4.0527,-4.0248,-4.0113,-4.0113,-4.0113,-3.9537,-3.8328,-3.8058,-3.7313,-3.6062,-3.5735,-3.56,-3.56,-3.56,-3.56,-3.56,-3.56,-3.56,-3.56,-3.56,-3.56,-3.5566,-3.5295,-3.4641,-3.3761,-3.3186,-3.2408,-3.1562,-3.1292,-3.119,-3.119,-3.119,-3.119,-3.1131,-3.0777,-2.9957,-2.9134,-2.888,-2.8583,-2.8295,-2.8295,-2.8295,-2.8295,-2.8295,-2.8578,-2.9162,-3.0109,-3.1032,-3.1555,-3.1182,-3.1186,-3.1247,-3.1151,-3.1001,-3.1094,-3.1586,-3.0727,-3.0111,-3.0479,-2.9422,-2.8757,-2.9175,-2.8846,-2.8936,-2.9834,-2.9924,-3.0193,-3.0823,-3.112,-3.127,-3.127,-3.2287,-3.3185,-3.3844,-3.4532,-3.519,-3.5878,-3.5878,-3.5878,-3.5878,-3.6537,-3.7302,-3.8135,-3.7907,-3.7427,-3.6771,-3.769,-3.7252,-3.5935,-3.7475,-3.7945,-3.7713,-3.7914,-3.8567,-3.9396,-3.9622,-3.9697,-3.9823,-4.4615,-4.4615,-4.4615,-4.4615,-4.4615,-4.4615,-4.4615,-4.4615,-4.4615,-4.4615,-4.4615,-4.4615,-4.4615,-4.3842,-4.3308,-4.3308,-4.2016,-4.117,-4.1136,-4.0485,-4.0113,-4.0113,-4.0113,-3.974,-3.8937,-3.8261,-3.7516,-3.6728,-3.596,-3.56,-3.56,-3.56,-3.56,-3.56,-3.56,-3.56,-3.56,-3.56,-3.56,-3.5532,-3.4844,-3.4539,-3.4336,-3.2936,-3.2327,-3.2192,-3.1481,-3.119,-3.119,-3.119,-3.119,-3.119,-3.119,-3.0818,-3.0234,-2.9651,-2.9429,-2.9406,-2.9406,-2.9406,-2.9406,-2.947,-2.9534,-2.9982,-3.135,-3.2663,-3.3598,-3.3598,-3.3079,-3.2848,-3.3431,-3.2488,-3.1975,-3.3239,-3.1779,-3.0554,-3.0647,-2.9515,-2.8715,-2.8775,-2.8753,-2.9235,-3.0462,-3.0582,-3.0851,-3.1511,-3.2138,-3.2557,-3.2647,-3.3215,-3.3874,-3.4474,-3.519,-3.5878,-3.6477,-3.6537,-3.6567,-3.6626,-3.7195,-3.8482,-4.027,-3.866,-3.8265,-3.8755,-3.844,-3.763,-3.6567,-3.7748,-3.7878,-3.7381,-3.7838,-3.8366,-3.8944,-3.9496,-3.9697,-3.9772,-4.4615,-4.4615,-4.4615,-4.4615,-4.4615,-4.4615,-4.4615,-4.4615,-4.4615,-4.4615,-4.4615,-4.4615,-4.4615,-4.3369,-4.2557,-4.2557,-4.1745,-4.0967,-4.0417,-4.0214,-4.0113,-4.0113,-4.0113,-3.9503,-3.8193,-3.799,-3.7246,-3.5893,-3.5701,-3.56,-3.56,-3.56,-3.56,-3.56,-3.56,-3.56,-3.56,-3.56,-3.56,-3.5566,-3.5397,-3.5013,-3.4404,-3.3491,-3.278,-3.2192,-3.1481,-3.119,-3.119,-3.119,-3.119,-3.119,-3.119,-3.1112,-3.0858,-3.0234,-2.9761,-2.9406,-2.9406,-2.9406,-2.9534,-3.0092,-3.1053,-3.2079,-3.2919,-3.3367,-3.3598,-3.3598,-3.3463,-3.3239,-3.2912,-3.2111,-3.163,-3.1958,-3.0696,-3.0037,-3.1068,-3.0086,-2.9659,-3.0615,-3.0313,-3.0372,-3.1182,-3.1271,-3.154,-3.2198,-3.2407,-3.2946,-3.3963,-3.4204,-3.4354,-3.4503,-3.5672,-3.6327,-3.6477,-3.6956,-3.7434,-3.7943,-3.8093,-3.8691,-3.9612,-3.9215,-3.8935,-3.89,-4.011,-3.9774,-3.8425,-3.9191,-3.9087,-3.8449,-3.8106,-3.8366,-3.8944,-3.9496,-3.9697,-3.9772,-4.4615,-4.4615,-4.4615,-4.4615,-4.4615,-4.4615,-4.4615,-4.4615,-4.4615,-4.4615,-4.4615,-4.4615,-4.4615,-4.3227,-4.2286,-4.2286,-4.1305,-4.0553,-4.0146,-4.0113,-4.0113,-4.0113,-4.0113,-3.9571,-3.843,-3.8058,-3.7121,-3.56,-3.56,-3.56,-3.56,-3.56,-3.56,-3.56,-3.56,-3.56,-3.56,-3.56,-3.56,-3.56,-3.56,-3.5363,-3.4912,-3.4167,-3.366,-3.3173,-3.209,-3.1718,-3.1718,-3.1718,-3.1718,-3.1752,-3.2104,-3.2205,-3.2077,-3.1386,-3.0763,-3.0213,-3.0213,-3.0213,-3.041,-3.1144,-3.2406,-3.3557,-3.3928,-3.4266,-3.452,-3.452,-3.452,-3.4421,-3.405,-3.3623,-3.3261,-3.2932,-3.2275,-3.1806,-3.1889,-3.1333,-3.1162,-3.1892,-3.1667,-3.1688,-3.2329,-3.2404,-3.2587,-3.2946,-3.3245,-3.3724,-3.4474,-3.4771,-3.4951,-3.4951,-3.5938,-3.6626,-3.6896,-3.7554,-3.8332,-3.929,-3.8691,-3.905,-4.0307,-4.0008,-3.9743,-3.9648,-4.1156,-4.0881,-3.9365,-4.0294,-4.0166,-3.9301,-3.8943,-3.9002,-3.9338,-3.9575,-3.9697,-3.9747,-4.4615,-4.4615,-4.4615,-4.4615,-4.4615,-4.4615,-4.4615,-4.4615,-4.4615,-4.4615,-4.4615,-4.4547,-4.4418,-4.3132,-4.2252,-4.2117,-4.0891,-4.0113,-4.0113,-4.0113,-4.0113,-4.0113,-4.0113,-3.9774,-3.9005,-3.8159,-3.7043,-3.56,-3.56,-3.56,-3.56,-3.56,-3.56,-3.56,-3.56,-3.56,-3.56,-3.56,-3.56,-3.56,-3.56,-3.56,-3.5532,-3.4776,-3.4506,-3.4303,-3.297,-3.2462,-3.2462,-3.2462,-3.2462,-3.2598,-3.3186,-3.3423,-3.3288,-3.2666,-3.2022,-3.1495,-3.1393,-3.1529,-3.1833,-3.2496,-3.366,-3.4675,-3.4675,-3.5148,-3.56,-3.56,-3.56,-3.56,-3.56,-3.543,-3.5059,-3.4438,-3.4286,-3.3832,-3.263,-3.2606,-3.2772,-3.2868,-3.2903,-3.3142,-3.3627,-3.3694,-3.3667,-3.3665,-3.4204,-3.4593,-3.4803,-3.534,-3.5699,-3.5789,-3.6327,-3.6985,-3.7704,-3.8272,-3.917,-4.0397,-3.923,-3.9649,-4.1392,-4.0816,-4.0546,-4.0606,-4.1871,-4.1479,-4.0105,-4.1167,-4.0916,-3.9892,-3.9847,-3.9685,-3.9555,-3.9677,-3.9697,-3.9697,-4.4615,-4.4615,-4.4615,-4.4615,-4.4615,-4.4615,-4.4615,-4.4615,-4.4615,-4.4615,-4.4615,-4.4316,-4.3673,-4.2828,-4.2049,-4.1441,-4.0595,-4.0113,-4.0113,-4.0113,-4.0113,-4.0113,-4.0113,-3.9774,-3.9005,-3.7675,-3.6502,-3.56,-3.56,-3.56,-3.56,-3.56,-3.56,-3.56,-3.56,-3.56,-3.56,-3.56,-3.56,-3.56,-3.56,-3.56,-3.5532,-3.4776,-3.4506,-3.437,-3.3525,-3.322,-3.322,-3.322,-3.322,-3.3254,-3.3355,-3.3423,-3.3389,-3.3254,-3.3152,-3.2916,-3.2293,-3.3038,-3.3998,-3.4155,-3.481,-3.543,-3.543,-3.5532,-3.56,-3.56,-3.56,-3.56,-3.56,-3.4585,-3.3694,-3.3592,-3.3056,-3.2588,-3.2373,-3.2907,-3.3594,-3.4209,-3.433,-3.4406,-3.4514,-3.4527,-3.4482,-3.4325,-3.4444,-3.5013,-3.6151,-3.6267,-3.6567,-3.7105,-3.7225,-3.7853,-3.9074,-3.92,-3.9649,-4.0397,-4.0187,-4.0546,-4.1422,-4.1265,-4.1235,-4.1265,-4.2081,-4.2204,-4.195,-4.1709,-4.0916,-3.9892,-3.9847,-3.9184,-3.8388,-3.9321,-3.9697,-3.9697,-4.4615,-4.4615,-4.4615,-4.4615,-4.4615,-4.4615,-4.4615,-4.4615,-4.4615,-4.4615,-4.4615,-4.4479,-4.4079,-4.2997,-4.2151,-4.1813,-4.073,-4.0113,-4.0113,-4.0113,-4.0113,-4.0113,-4.0113,-3.9774,-3.9005,-3.7574,-3.6626,-3.6231,-3.5802,-3.56,-3.56,-3.56,-3.56,-3.56,-3.56,-3.56,-3.56,-3.56,-3.56,-3.56,-3.56,-3.56,-3.5566,-3.5194,-3.5115,-3.5013,-3.4269,-3.3998,-3.3998,-3.3998,-3.3998,-3.4066,-3.4472,-3.4585,-3.4484,-3.41,-3.3728,-3.3322,-3.2983,-3.366,-3.4506,-3.4506,-3.5047,-3.5701,-3.6163,-3.6231,-3.6366,-3.6772,-3.6535,-3.6231,-3.6231,-3.5351,-3.445,-3.4066,-3.4032,-3.3931,-3.3525,-3.4522,-3.5379,-3.5736,-3.6123,-3.6362,-3.6392,-3.5983,-3.5704,-3.5645,-3.5235,-3.5459,-3.6447,-3.6477,-3.6926,-3.7913,-3.7943,-3.8422,-3.9373,-3.9373,-3.9918,-4.0935,-4.0576,-4.0935,-4.1961,-4.1961,-4.1752,-4.1482,-4.2432,-4.2671,-4.2402,-4.2484,-4.2222,-4.1619,-4.0673,-4.0121,-3.986,-3.9397,-3.9446,-3.9697,-4.4615,-4.4615,-4.4615,-4.4615,-4.4615,-4.4615,-4.4615,-4.4615,-4.4615,-4.4615,-4.4615,-4.4547,-4.4316,-4.3098,-4.2219,-4.2049,-4.0857,-4.0113,-4.0113,-4.0113,-4.0113,-4.0113,-4.0113,-3.9774,-3.9005,-3.7912,-3.7235,-3.7066,-3.6434,-3.6039,-3.5893,-3.5893,-3.5769,-3.56,-3.56,-3.56,-3.56,-3.56,-3.56,-3.56,-3.56,-3.56,-3.56,-3.56,-3.56,-3.5532,-3.4979,-3.4742,-3.4742,-3.4742,-3.4742,-3.4844,-3.543,-3.56,-3.5498,-3.4912,-3.437,-3.3875,-3.3694,-3.4201,-3.4742,-3.4742,-3.5318,-3.6062,-3.666,-3.6931,-3.7235,-3.7787,-3.7449,-3.7066,-3.7066,-3.6265,-3.5397,-3.4844,-3.525,-3.5397,-3.4844,-3.6062,-3.7134,-3.7303,-3.7761,-3.8051,-3.8058,-3.7495,-3.6994,-3.663,-3.6101,-3.6014,-3.669,-3.6716,-3.7285,-3.8571,-3.8631,-3.8871,-3.9373,-3.9559,-4.0217,-4.1422,-4.1025,-4.1474,-4.262,-4.262,-4.2261,-4.1722,-4.2821,-4.297,-4.244,-4.306,-4.317,-4.2799,-4.1737,-4.1239,-4.0982,-3.9912,-3.9626,-3.9697,-4.4615,-4.4615,-4.4615,-4.4615,-4.4615,-4.4615,-4.4615,-4.4615,-4.4615,-4.4615,-4.4615,-4.4316,-4.3572,-4.2794,-4.2016,-4.1339,-4.0561,-4.0113,-4.0113,-4.0113,-4.0113,-4.0113,-4.0113,-3.9774,-3.9005,-3.887,-3.8497,-3.7821,-3.7753,-3.7381,-3.6728,-3.6728,-3.6299,-3.56,-3.56,-3.56,-3.56,-3.56,-3.56,-3.56,-3.56,-3.56,-3.56,-3.56,-3.56,-3.56,-3.5532,-3.5532,-3.5532,-3.5532,-3.5532,-3.5532,-3.5566,-3.56,-3.56,-3.5532,-3.5464,-3.5295,-3.4607,-3.4979,-3.5532,-3.5532,-3.6129,-3.6728,-3.6795,-3.7313,-3.7855,-3.7889,-3.7855,-3.7821,-3.7821,-3.658,-3.5566,-3.5532,-3.5566,-3.5566,-3.5532,-3.6874,-3.8058,-3.8768,-3.8854,-3.8883,-3.883,-3.8767,-3.8129,-3.6691,-3.6538,-3.6779,-3.7289,-3.7345,-3.7943,-3.9254,-3.9349,-3.9343,-3.9373,-4.0038,-4.0696,-4.1384,-4.1991,-4.2581,-4.323,-4.323,-4.291,-4.2381,-4.303,-4.297,-4.244,-4.306,-4.267,-4.1827,-4.2826,-4.1852,-4.0055,-4.1044,-4.0667,-3.9697,-4.5263,-4.5635,-4.5805,-4.5365,-4.5263,-4.5128,-4.4682,-4.4615,-4.4615,-4.4615,-4.4615,-4.4479,-4.4181,-4.3436,-4.2861,-4.2591,-4.1474,-4.0764,-4.0764,-4.035,-4.0113,-4.0113,-4.0113,-3.9977,-3.9706,-3.9208,-3.887,-3.8565,-3.8125,-3.7753,-3.7483,-3.7032,-3.666,-3.6332,-3.5802,-3.56,-3.56,-3.56,-3.56,-3.56,-3.56,-3.56,-3.56,-3.56,-3.56,-3.56,-3.56,-3.56,-3.56,-3.56,-3.56,-3.56,-3.56,-3.56,-3.56,-3.56,-3.596,-3.6265,-3.6017,-3.6129,-3.6434,-3.6907,-3.728,-3.7584,-3.8058,-3.8362,-3.87,-3.9174,-3.8903,-3.8565,-3.8565,-3.7753,-3.7019,-3.7019,-3.7019,-3.7019,-3.7019,-3.7922,-3.87,-3.8971,-3.9377,-3.9674,-3.9629,-3.9209,-3.8663,-3.8072,-3.8027,-3.8059,-3.8155,-3.8461,-3.8901,-3.9373,-3.9798,-4.0038,-4.0038,-4.0696,-4.1354,-4.2021,-4.2291,-4.2701,-4.329,-4.329,-4.314,-4.297,-4.32,-4.314,-4.3,-4.32,-4.3021,-4.2648,-4.2386,-4.2164,-4.1917,-4.0876,-4.0667,-4.0794,-4.5365,-4.5737,-4.594,-4.5432,-4.5365,-4.5162,-4.4682,-4.4615,-4.4615,-4.4615,-4.4615,-4.4615,-4.4615,-4.3876,-4.3308,-4.3064,-4.1914,-4.1102,-4.0865,-4.0383,-4.0113,-4.0113,-4.0113,-4.0113,-4.0113,-3.9605,-3.9368,-3.9368,-3.8836,-3.8464,-3.8227,-3.7719,-3.7235,-3.6795,-3.6231,-3.5836,-3.56,-3.56,-3.56,-3.56,-3.56,-3.56,-3.56,-3.56,-3.56,-3.56,-3.56,-3.56,-3.56,-3.56,-3.56,-3.56,-3.56,-3.56,-3.5633,-3.5926,-3.6366,-3.6897,-3.7371,-3.7506,-3.755,-3.7821,-3.8058,-3.8396,-3.887,-3.9174,-3.9503,-4.0011,-3.9706,-3.9368,-3.9368,-3.8734,-3.8261,-3.8261,-3.8261,-3.8261,-3.8261,-3.887,-3.9368,-3.9368,-3.9808,-4.0113,-4.0113,-3.961,-3.9183,-3.8908,-3.9121,-3.9289,-3.9343,-3.9627,-3.9809,-3.9809,-4.0394,-4.0696,-4.0696,-4.1392,-4.1961,-4.241,-4.262,-4.291,-4.329,-4.329,-4.329,-4.329,-4.329,-4.329,-4.329,-4.329,-4.329,-4.324,-4.2908,-4.3008,-4.3255,-4.203,-4.1582,-4.1468,-4.4615,-4.4615,-4.4615,-4.4615,-4.4615,-4.4615,-4.4615,-4.4615,-4.4615,-4.4615,-4.4615,-4.4615,-4.4615,-4.3876,-4.3132,-4.2388,-4.1644,-4.0899,-4.0146,-4.0113,-4.0113,-4.0113,-4.0113,-4.0113,-4.0113,-4.0113,-4.0113,-4.0113,-4.0113,-3.974,-3.9029,-3.9029,-3.8217,-3.6852,-3.6795,-3.6355,-3.5622,-3.5622,-3.56,-3.56,-3.56,-3.56,-3.56,-3.56,-3.56,-3.56,-3.56,-3.56,-3.56,-3.56,-3.56,-3.56,-3.56,-3.56,-3.5769,-3.6569,-3.6829,-3.7134,-3.8599,-3.9005,-3.8836,-3.8091,-3.8464,-3.9005,-3.9005,-3.9571,-4.0113,-4.0113,-4.0113,-4.0113,-4.0113,-3.9503,-3.9005,-3.9005,-3.9005,-3.9005,-3.9005,-3.9639,-4.0113,-4.0113,-4.0113,-4.0113,-4.0113,-4.0113,-3.9765,-3.8962,-3.9627,-4.0369,-4.0955,-4.0819,-4.0724,-4.069,-4.1152,-4.1422,-4.1384,-4.2081,-4.241,-4.241,-4.303,-4.329,-4.329,-4.329,-4.329,-4.329,-4.329,-4.329,-4.329,-4.329,-4.329,-4.3409,-4.4766,-4.4503,-4.3588,-4.4899,-4.3787,-4.164,-4.5365,-4.5771,-4.5974,-4.5466,-4.5365,-4.5196,-4.4682,-4.4615,-4.4615,-4.4615,-4.4615,-4.4615,-4.4615,-4.4412,-4.4147,-4.3938,-4.2726,-4.1441,-4.018,-4.0113,-4.0113,-4.0113,-4.0113,-4.0113,-4.0113,-4.0113,-4.0113,-4.0113,-4.049,-4.0535,-4.0352,-4.0234,-3.9966,-3.9483,-3.8391,-3.7796,-3.7566,-3.7128,-3.6625,-3.617,-3.6378,-3.6096,-3.56,-3.56,-3.56,-3.5667,-3.6231,-3.6434,-3.6434,-3.6434,-3.6434,-3.6434,-3.6434,-3.6434,-3.6569,-3.7347,-3.7922,-3.843,-3.887,-3.9377,-3.974,-3.9503,-3.9605,-3.9774,-3.9774,-3.9943,-4.0113,-4.0113,-4.0113,-4.0113,-4.0113,-3.991,-3.9774,-3.9774,-3.9774,-3.9774,-3.9774,-3.9977,-4.0113,-4.0113,-4.0113,-4.0113,-4.0113,-4.0113,-3.9978,-3.974,-4.037,-4.1066,-4.1811,-4.1725,-4.1549,-4.1403,-4.1981,-4.221,-4.2111,-4.2731,-4.303,-4.303,-4.32,-4.329,-4.329,-4.329,-4.329,-4.329,-4.329,-4.329,-4.329,-4.329,-4.329,-4.3379,-4.4287,-4.4649,-4.4706,-4.4704,-4.4516,-4.4022,-4.5263,-4.5602,-4.5771,-4.5331,-4.5263,-4.5094,-4.4682,-4.4615,-4.4615,-4.4615,-4.4615,-4.4479,-4.4147,-4.4412,-4.4344,-4.3768,-4.2855,-4.1779,-4.0595,-4.0527,-4.0417,-4.0113,-4.0294,-4.0417,-4.0417,-4.0204,-4.0204,-4.0417,-4.0733,-4.092,-4.0886,-4.1059,-4.1002,-4.0668,-3.9747,-3.9144,-3.8841,-3.85,-3.788,-3.719,-3.7128,-3.6625,-3.5898,-3.5689,-3.5802,-3.6129,-3.6626,-3.6998,-3.7246,-3.7246,-3.7246,-3.7246,-3.7246,-3.7246,-3.7381,-3.8125,-3.8633,-3.9039,-3.9368,-3.9774,-4.0113,-4.0113,-4.0113,-4.0113,-4.0113,-4.0113,-4.0113,-4.0113,-4.0113,-4.0113,-4.0113,-4.0113,-4.0113,-4.0113,-4.0113,-4.0113,-4.0113,-4.0113,-4.0113,-4.0113,-4.0113,-4.0113,-4.0113,-4.0113,-4.0214,-4.0493,-4.1151,-4.1871,-4.2637,-4.2561,-4.2462,-4.2358,-4.2556,-4.2658,-4.253,-4.3046,-4.329,-4.329,-4.329,-4.329,-4.329,-4.329,-4.329,-4.329,-4.329,-4.329,-4.329,-4.329,-4.329,-4.3349,-4.4047,-4.4706,-4.5281,-4.5183,-4.5227,-4.5161,-4.4615,-4.4615,-4.4615,-4.4615,-4.4615,-4.4615,-4.4615,-4.4615,-4.4615,-4.4615,-4.4615,-4.4316,-4.3606,-4.4147,-4.4005,-4.2523,-4.232,-4.1982,-4.1271,-4.1204,-4.0899,-4.0248,-4.0659,-4.0943,-4.0955,-4.0514,-4.0514,-4.0955,-4.1024,-4.1047,-4.107,-4.1647,-4.1588,-4.0953,-4.0882,-4.0475,-3.9854,-3.9759,-3.9294,-3.8506,-3.8055,-3.7366,-3.6561,-3.6059,-3.631,-3.6931,-3.6965,-3.7415,-3.799,-3.799,-3.7956,-3.7922,-3.799,-3.799,-3.8159,-3.887,-3.9073,-3.9242,-3.991,-4.0113,-4.0113,-4.0113,-4.0113,-4.0113,-4.0113,-4.0113,-4.0113,-4.0113,-4.0113,-4.0113,-4.0113,-4.0113,-4.0113,-4.0113,-4.0113,-4.0113,-4.0113,-4.0113,-4.0113,-4.0113,-4.0113,-4.0113,-4.0113,-4.0113,-4.0417,-4.1136,-4.188,-4.2625,-4.3341,-4.3398,-4.3416,-4.3388,-4.2956,-4.2771,-4.2788,-4.3075,-4.323,-4.329,-4.329,-4.329,-4.329,-4.329,-4.329,-4.329,-4.329,-4.329,-4.329,-4.329,-4.329,-4.3349,-4.4047,-4.4676,-4.5304,-4.6052,-4.5961,-4.5467,-4.4615,-4.4615,-4.4615,-4.4615,-4.4615,-4.4615,-4.4615,-4.4615,-4.4615,-4.4615,-4.4615,-4.4547,-4.435,-4.4513,-4.4215,-4.3267,-4.2625,-4.1982,-4.1271,-4.1204,-4.1136,-4.0967,-4.091,-4.1115,-4.1582,-4.1508,-4.1508,-4.1582,-4.2062,-4.2302,-4.2322,-4.2847,-4.3069,-4.285,-4.223,-4.1865,-4.1702,-4.1196,-4.056,-3.9894,-4.0,-3.928,-3.817,-3.8061,-3.7877,-3.7753,-3.8328,-3.8633,-3.8768,-3.8768,-3.8396,-3.8024,-3.8565,-3.8768,-3.8903,-3.9673,-3.9876,-3.991,-4.0079,-4.0113,-4.0113,-4.0113,-4.0113,-4.0113,-4.0113,-4.0113,-4.0113,-4.0113,-4.0113,-4.0113,-4.0113,-4.0113,-4.0113,-4.0113,-4.0113,-4.0113,-4.0113,-4.0113,-4.0113,-4.0113,-4.0113,-4.0113,-4.0113,-4.0113,-4.0417,-4.1136,-4.188,-4.2625,-4.3341,-4.4007,-4.4244,-4.4115,-4.3363,-4.3091,-4.3468,-4.2902,-4.2821,-4.329,-4.329,-4.329,-4.329,-4.329,-4.329,-4.329,-4.329,-4.329,-4.329,-4.329,-4.329,-4.3349,-4.4047,-4.4407,-4.4676,-4.5873,-4.6241,-4.5916,-4.4615,-4.4615,-4.4615,-4.4615,-4.4615,-4.4615,-4.4615,-4.4615,-4.4615,-4.4615,-4.4615,-4.4479,-4.4079,-4.435,-4.4418,-4.4012,-4.3606,-4.3192,-4.2749,-4.2438,-4.2202,-4.205,-4.1928,-4.1969,-4.2221,-4.2501,-4.2501,-4.2241,-4.2557,-4.2693,-4.2693,-4.325,-4.3515,-4.3478,-4.3057,-4.2873,-4.2856,-4.2539,-4.1977,-4.125,-4.1118,-4.0428,-3.9418,-3.9209,-3.8986,-3.8847,-3.9224,-3.9443,-3.9512,-3.9512,-3.9276,-3.9005,-3.9377,-3.9512,-3.9605,-4.0011,-4.0113,-4.0113,-4.0113,-4.0113,-4.0113,-4.0113,-4.0113,-4.0113,-4.0113,-4.0113,-4.0113,-4.0113,-4.0113,-4.0113,-4.0113,-4.0113,-4.0113,-4.0113,-4.0113,-4.0113,-4.0113,-4.0113,-4.0113,-4.0113,-4.0113,-4.0113,-4.0113,-4.0113,-4.0417,-4.1136,-4.188,-4.2625,-4.3341,-4.4147,-4.4552,-4.4423,-4.3901,-4.3912,-4.45,-4.353,-4.3373,-4.4004,-4.3527,-4.329,-4.329,-4.329,-4.329,-4.329,-4.329,-4.329,-4.329,-4.329,-4.329,-4.3319,-4.3678,-4.4047,-4.4436,-4.5454,-4.6232,-4.6572,-4.4615,-4.4615,-4.4615,-4.4615,-4.4615,-4.4615,-4.4615,-4.4615,-4.4615,-4.4615,-4.4615,-4.4378,-4.3673,-4.4079,-4.4384,-4.4384,-4.4384,-4.4409,-4.4385,-4.387,-4.3519,-4.3404,-4.3336,-4.3236,-4.3126,-4.3488,-4.3414,-4.2863,-4.2863,-4.2863,-4.2827,-4.3286,-4.3515,-4.3515,-4.3515,-4.3515,-4.3515,-4.3515,-4.3094,-4.2472,-4.2014,-4.1379,-4.0654,-4.0276,-4.0143,-4.0142,-4.0142,-4.0239,-4.0368,-4.0279,-4.0254,-4.0229,-4.0104,-4.0113,-4.0113,-4.0113,-4.0113,-4.0113,-4.0113,-4.018,-4.0307,-4.0433,-4.056,-4.0628,-4.0628,-4.0459,-4.0282,-4.0282,-4.0383,-4.0485,-4.0485,-4.0485,-4.0485,-4.0485,-4.0383,-4.035,-4.0451,-4.0248,-4.0146,-4.0282,-4.018,-4.0113,-4.0113,-4.0214,-4.0595,-4.1339,-4.2083,-4.2828,-4.3572,-4.4215,-4.4682,-4.4784,-4.4474,-4.471,-4.5597,-4.4516,-4.4241,-4.4774,-4.3966,-4.3488,-4.329,-4.329,-4.329,-4.329,-4.329,-4.329,-4.329,-4.329,-4.329,-4.329,-4.329,-4.3618,-4.4227,-4.5005,-4.6142,-4.7106,-4.4615,-4.4615,-4.4615,-4.4615,-4.4615,-4.4615,-4.4615,-4.4615,-4.4615,-4.4615,-4.4615,-4.4581,-4.4445,-4.391,-4.3572,-4.3572,-4.3572,-4.3829,-4.435,-4.43,-4.4495,-4.4984,-4.4871,-4.4802,-4.4775,-4.462,-4.416,-4.3374,-4.3374,-4.3374,-4.3374,-4.348,-4.3515,-4.3515,-4.3515,-4.3515,-4.3515,-4.3515,-4.3441,-4.3314,-4.3262,-4.2869,-4.2368,-4.2311,-4.1971,-4.1527,-4.1527,-4.1533,-4.1508,-4.0967,-4.0803,-4.0709,-4.0254,-4.0113,-4.0113,-4.0113,-4.0113,-4.0113,-4.0113,-4.0561,-4.1189,-4.1778,-4.2407,-4.2856,-4.2856,-4.1937,-4.1068,-4.1068,-4.1542,-4.1982,-4.1982,-4.1982,-4.1982,-4.1982,-4.1474,-4.1271,-4.1914,-4.0925,-4.035,-4.0967,-4.0493,-4.0113,-4.0113,-4.0663,-4.1373,-4.2083,-4.2828,-4.3606,-4.4412,-4.4547,-4.4891,-4.5534,-4.477,-4.5003,-4.6354,-4.5427,-4.4938,-4.4812,-4.4662,-4.4159,-4.329,-4.329,-4.329,-4.329,-4.329,-4.329,-4.329,-4.329,-4.329,-4.329,-4.329,-4.3349,-4.3589,-4.4855,-4.6142,-4.7106,-4.4615,-4.4615,-4.475,-4.5128,-4.4886,-4.475,-4.5128,-4.4857,-4.4615,-4.4615,-4.4615,-4.4615,-4.4615,-4.4282,-4.4079,-4.4079,-4.4079,-4.4468,-4.5439,-4.5202,-4.5409,-4.6292,-4.591,-4.5671,-4.5548,-4.5443,-4.4966,-4.4158,-4.3718,-4.3515,-4.3515,-4.3515,-4.3515,-4.3515,-4.3515,-4.3515,-4.3515,-4.3515,-4.3515,-4.3515,-4.3515,-4.3339,-4.316,-4.316,-4.2808,-4.2262,-4.1916,-4.181,-4.1768,-4.1473,-4.1385,-4.134,-4.1127,-4.0838,-4.0552,-4.0552,-4.0319,-4.0256,-4.1062,-4.1503,-4.2019,-4.3069,-4.3581,-4.3804,-4.3804,-4.3663,-4.3158,-4.2064,-4.2049,-4.2286,-4.2286,-4.2286,-4.2286,-4.2286,-4.2016,-4.1914,-4.2252,-4.1373,-4.0663,-4.0595,-4.0316,-4.0113,-4.0113,-4.0764,-4.1508,-4.2219,-4.2997,-4.3775,-4.4581,-4.4615,-4.4925,-4.5703,-4.535,-4.5811,-4.7283,-4.6388,-4.605,-4.6346,-4.53,-4.4243,-4.329,-4.329,-4.329,-4.329,-4.329,-4.329,-4.329,-4.329,-4.329,-4.329,-4.329,-4.3529,-4.4007,-4.5364,-4.6232,-4.6715]},{"header":{"parameterUnit":"m.s-1","parameterCategory":1,"la1":30.6,"la2":28.766,"lo1":-90.7593,"lo2":-88.6598,"dy":0.0162,"dx":0.0183,"nx":116,"ny":114,"refTime":"2024-02-06T18:00:00:Z","depth":0,"parameterNumber":3,"parameterNumberName":"V-component_of_WINDS"},"data":[0.0,0.0,0.0,0.0,0.0,0.0,0.0,0.0,0.0,0.0,0.0,0.0,0.0,0.0,0.0,0.0,0.0,0.0,0.0,0.0,0.0,0.0,0.0,0.0,0.0,0.0,0.0,0.0,0.0,0.0,0.0,0.0,0.0,0.0,0.0,0.0,0.0,0.0,0.0,0.0,0.0,0.0,0.0,0.0,0.0,0.0,0.0,0.0,0.0,0.0,0.0,0.0,0.0,0.0,0.0,0.0,0.0,0.0,0.0,0.0,0.0,0.0,0.0,0.0,0.0,0.0,0.0,0.0,0.0,0.0,0.0,0.0,0.0,0.0,0.0,0.0,0.0,0.0,0.0,0.0,0.0,0.0,0.0,0.0,0.0,0.0,0.0,0.0,0.0,0.0,0.0,0.0,0.0,0.0,0.0,0.0,0.0,0.0,0.0,0.0,0.0,0.0,0.0,0.0,0.0,0.0,0.0,0.0,0.0,0.0,0.0,0.0,0.0,0.0,0.0,0.0,0.0,0.0,0.0,0.0,0.0,0.0,0.0,0.0,0.0,0.0,0.0,0.0,0.0,0.0,0.0,0.0,0.0,0.0,0.0,0.0,0.0,0.0,0.0,0.0,0.0,0.0,0.0,0.0,0.0,0.0,0.0,0.0,0.0,0.0,0.0,0.0,0.0,0.0,0.0,0.0,0.0,0.0,0.0,0.0,0.0,0.0,0.0,0.0,0.0,0.0,0.0,0.0,0.0,0.0,0.0,0.0,0.0,0.0,0.0,0.0,0.0,0.0,0.0,0.0,0.0,0.0,0.0,0.0,0.0,0.0,0.0,0.0,0.0,0.0,0.0,0.0,0.0,0.0,0.0,0.0,0.0,0.0,0.0,0.0,0.0,0.0,0.0,0.0,0.0,0.0,0.0,0.0,0.0,0.0,0.0,0.0,0.0,0.0,0.0,0.0,0.0,0.0,0.0,0.0,0.0,0.0,0.0,0.0,0.0,0.0,0.0,0.0,0.0,0.0,0.0,0.0,0.0,0.0,0.0,0.0,0.0,0.0,0.0,0.0,0.0,0.0,0.0,0.0,0.0,0.0,0.0,0.0,0.0,0.0,0.0,0.0,0.0,0.0,0.0,0.0,0.0,0.0,0.0,0.0,0.0,0.0,0.0,0.0,0.0,0.0,0.0,0.0,0.0,0.0,0.0,0.0,0.0,0.0,0.0,0.0,0.0,0.0,0.0,0.0,0.0,0.0,0.0,0.0,0.0,0.0,0.0,0.0,0.0,0.0,0.0,0.0,0.0,0.0,0.0,0.0,0.0,0.0,0.0,0.0,0.0,0.0,0.0,0.0,0.0,0.0,0.0,0.0,0.0,0.0,0.0,0.0,0.0,0.0,0.0,0.0,0.0,0.0,0.0,0.0,0.0,0.0,0.0,0.0,0.0,0.0,0.0,0.0,0.0,0.0,0.0,0.0,0.0,0.0,0.0,0.0,0.0,0.0,0.0,0.0,0.0,0.0,0.0,0.0,0.0,0.0,0.0,0.0,0.0,0.0,0.0,0.0,0.0,0.0,0.0,0.0,0.0,0.0,0.0,0.0,0.0,0.0,0.0,0.0,0.0,0.0,0.0,0.0,0.0,0.0,0.0,0.0,0.0,0.0,0.0,0.0,0.0,0.0,0.0,0.0,0.0,0.0,0.0,0.0,0.0,0.0,0.0,0.0,0.0,0.0,0.0,0.0,0.0,0.0,0.0,0.0,0.0,0.0,0.0,0.0,0.0,0.0,0.0,0.0,0.0,0.0,0.0,0.0,0.0,0.0,0.0,0.0,0.0,0.0,0.0,0.0,0.0,0.0,0.0,0.0,0.0,0.0,0.0,0.0,0.0,0.0,0.0,0.0,0.0,0.0,0.0,0.0,0.0,0.0,0.0,0.0,0.0,0.0,0.0,0.0,0.0,0.0,0.0,0.0,0.0,0.0,0.0,0.0,0.0,0.0,0.0,0.0,0.0,0.0,0.0,0.0,0.0,0.0,0.0,0.0,0.0,0.0,0.0,0.0,0.0,0.0,0.0,0.0,0.0,0.0,0.0,0.0,0.0,0.0,0.0,0.0,0.0,0.0,0.0,0.0,0.0,0.0,0.0,0.0,0.0,0.0,0.0,0.0,0.0,0.0,0.0,0.0,0.0,0.0,0.0,0.0,0.0,0.0,0.0,0.0,0.0,0.0,0.0,0.0,0.0,0.0,0.0,0.0,0.0,0.0,0.0,0.0,0.0,0.0,0.0,0.0,0.0,0.0,0.0,0.0,0.0,0.0,0.0,0.0,0.0,0.0,0.0,0.0,0.0,0.0,0.0,0.0,0.0,0.0,0.0,0.0,0.0,0.0,0.0,0.0,0.0,0.0,0.0,0.0,0.0,0.0,0.0,0.0,0.0,0.0,0.0,0.0,0.0,0.0,0.0,0.0,0.0,0.0,0.0,0.0,0.0,0.0,0.0,0.0,0.0,0.0,0.0,0.0,0.0,0.0,0.0,0.0,0.0,0.0,0.0,0.0,0.0,0.0,0.0,0.0,0.0,0.0,0.0,0.0,0.0,0.0,0.0,0.0,0.0,0.0,0.0,0.0,0.0,0.0,0.0,0.0,0.0,0.0,0.0,0.0,0.0,0.0,0.0,0.0,0.0,0.0,0.0,0.0,0.0,0.0,0.0,0.0,0.0,0.0,0.0,0.0,0.0,0.0,0.0,0.0,0.0,0.0,0.0,0.0,0.0,0.0,0.0,0.0,0.0,0.0,0.0,0.0,0.0,0.0,0.0,0.0,0.0,0.0,0.0,0.0,0.0,0.0,0.0,0.0,0.0,0.0,0.0,0.0,0.0,0.0,0.0,0.0,0.0,0.0,0.0,0.0,0.0,0.0,0.0,0.0,0.0,0.0,0.0,0.0,0.0,0.0,0.0,0.0,0.0,0.0,0.0,0.0,0.0,0.0,0.0,0.0,0.0,0.0,0.0,0.0,0.0,0.0,0.0,0.0,0.0,0.0,0.0,0.0,0.0,0.0,0.0,0.0,0.0,0.0,0.0,0.0,0.0,0.0,0.0,0.0,0.0,0.0,0.0,0.0,0.0,0.0,0.0,0.0,0.0,0.0,0.0,0.0,0.0,0.0,0.0,0.0,0.0,0.0,0.0,0.0,0.0,0.0,0.0,0.0,0.0,0.0,0.0,0.0,0.0,0.0,0.0,0.0,0.0,0.0,0.0,0.0,0.0,0.0,0.0,0.0,0.0,0.0,0.0,0.0,0.0,0.0,0.0,0.0,0.0,0.0,0.0,0.0,0.0,0.0,0.0,0.0,0.0,0.0,0.0,0.0,0.0,0.0,0.0,0.0,0.0,0.0,0.0,0.0,0.0,0.0,0.0,0.0,0.0,0.0,0.0,0.0,0.0,0.0,0.0,0.0,0.0,0.0,0.0,0.0,0.0,0.0,0.0,0.0,0.0,0.0,0.0,0.0,0.0,0.0,0.0,0.0,0.0,0.0,0.0,0.0,0.0,0.0,0.0,0.0,0.0,0.0,0.0,0.0,0.0,0.0,0.0,0.0,0.0,0.0,0.0,0.0,0.0,0.0,0.0,0.0,0.0,0.0,0.0,0.0,0.0,0.0,0.0,0.0,0.0,0.0,0.0,0.0,0.0,0.0,0.0,0.0,0.0,0.0,0.0,0.0,0.0,0.0,0.0,0.0,0.0,0.0,0.0,0.0,0.0,0.0,0.0,0.0,0.0,0.0,0.0,0.0,0.0,0.0,0.0,0.0,0.0,0.0,0.0,0.0,0.0,0.0,0.0,0.0,0.0,0.0,0.0,0.0,0.0,0.0,0.0,0.0,0.0,0.0,0.0,0.0,0.0,0.0,0.0,0.0,0.0,0.0,0.0,0.0,0.0,0.0,0.0,0.0,0.0,0.0,0.0,0.0,0.0,0.0,0.0,0.0,0.0,0.0,0.0,0.0,0.0,0.0,0.0,0.0,0.0,0.0,0.0,0.0,0.0,0.0,0.0,0.0,0.0,0.0,0.0,0.0,0.0,0.0,0.0,0.0,0.0,0.0,0.0,0.0,0.0,0.0,0.0,0.0,0.0,0.0,0.0,0.0,0.0,0.0,0.0,0.0,0.0,0.0,0.0,0.0,0.0,0.0,0.0,0.0,0.0,0.0,0.0,0.0,0.0,0.0,0.0,0.0,0.0,0.0,0.0,0.0,0.0,0.0,0.0,0.0,0.0,0.0,0.0,0.0,0.0,0.0,0.0,0.0,0.0,0.0,0.0,0.0,0.0,0.0,0.0,0.0,0.0,0.0,0.0,0.0,0.0,0.0,0.0,0.0,0.0,0.0,0.0,0.0,0.0,0.0,0.0,0.0,0.0,0.0,0.0,0.0,0.0,0.0,0.0,0.0,0.0,0.0,0.0,0.0,0.0,0.0,0.0,0.0,0.0,0.0,0.0,0.0,0.0,0.0,0.0,0.0,0.0,0.0,0.0,0.0,0.0,0.0,0.0,0.0,0.0,0.0,0.0,0.0,0.0,0.0,0.0,0.0,0.0,0.0,0.0,0.0,0.0,0.0,0.0,0.0,0.0,0.0,0.0,0.0,0.0,0.0,0.0,0.0,0.0,0.0,0.0,0.0,0.0,0.0,0.0,0.0,0.0,0.0,0.0,0.0,0.0,0.0,0.0,0.0,0.0,0.0,0.0,0.0,0.0,0.0,0.0,0.0,0.0,0.0,0.0,0.0,0.0,0.0,0.0,0.0,0.0,0.0,0.0,0.0,0.0,0.0,0.0,0.0,0.0,0.0,0.0,0.0,0.0,0.0,0.0,0.0,0.0,0.0,0.0,0.0,0.0,0.0,0.0,0.0,0.0,0.0,0.0,0.0,0.0,0.0,0.0,0.0,0.0,0.0,0.0,0.0,0.0,0.0,0.0,0.0,0.0,0.0,0.0,0.0,0.0,0.0,0.0,0.0,0.0,0.0,0.0,0.0,0.0,0.0,0.0,0.0,0.0,0.0,0.0,0.0,0.0,0.0,0.0,0.0,0.0,0.0,0.0,0.0,0.0,0.0,0.0,0.0,0.0,0.0,0.0,0.0,0.0,0.0,0.0,0.0,0.0,0.0,0.0,0.0,0.0,0.0,0.0,0.0,0.0,0.0,0.0,0.0,0.0,0.0,0.0,0.0,0.0,0.0,0.0,0.0,0.0,0.0,0.0,0.0,0.0,0.0,0.0,0.0,0.0,0.0,0.0,0.0,0.0,0.0,0.0,0.0,0.0,0.0,0.0,0.0,0.0,0.0,0.0,0.0,0.0,0.0,0.0,0.0,0.0,0.0,0.0,0.0,0.0,0.0,0.0,0.0,0.0,0.0,0.0,0.0,0.0,0.0,0.0,0.0,0.0,0.0,0.0,0.0,0.0,0.0,0.0,0.0,0.0,0.0,0.0,0.0,0.0,0.0,0.0,0.0,0.0,0.0,0.0,0.0,0.0,0.0,0.0,0.0,0.0,0.0,0.0,0.0,0.0,0.0,0.0,0.0,0.0,0.0,0.0,0.0,0.0,0.0,0.0,0.0,0.0,0.0,0.0,0.0,0.0,0.0,0.0,0.0,0.0,0.0,0.0,0.0,0.0,0.0,0.0,0.0,0.0,0.0,0.0,0.0,0.0,0.0,0.0,0.0,0.0,0.0,0.0,0.0,0.0,0.0,0.0,0.0,0.0,0.0,0.0,0.0,0.0,0.0,0.0,0.0,0.0,0.0,0.0,0.0,0.0,0.0,0.0,0.0,0.0,0.0,0.0,0.0,0.0,0.0,0.0,0.0,0.0,0.0,0.0,0.0,0.0,0.0,0.0,0.0,0.0,0.0,0.0,0.0,0.0,0.0,0.0,0.0,0.0,0.0,0.0,0.0,0.0,0.0,0.0,0.0,0.0,0.0,0.0,0.0,0.0,0.0,0.0,0.0,0.0,0.0,0.0,0.0,0.0,0.0,0.0,0.0,0.0,0.0,0.0,0.0,0.0,0.0,0.0,0.0,0.0,0.0,0.0,0.0,0.0,0.0,0.0,0.0,3.9858,3.9469,0.0,0.0,0.0,0.0,0.0,0.0,0.0,0.0,0.0,0.0,0.0,0.0,0.0,0.0,0.0,0.0,0.0,0.0,0.0,0.0,0.0,0.0,0.0,0.0,0.0,0.0,3.0533,3.0696,3.1119,3.2514,0.0,0.0,0.0,0.0,3.8077,3.8941,3.9888,4.0876,4.0876,4.1713,4.3299,4.3629,4.3629,4.329,0.0,0.0,0.0,0.0,0.0,0.0,0.0,0.0,0.0,0.0,0.0,0.0,0.0,0.0,0.0,0.0,0.0,0.0,0.0,0.0,0.0,0.0,0.0,0.0,0.0,0.0,0.0,0.0,0.0,0.0,0.0,0.0,0.0,0.0,0.0,0.0,0.0,0.0,0.0,0.0,0.0,0.0,0.0,0.0,0.0,0.0,0.0,0.0,0.0,0.0,0.0,0.0,0.0,0.0,0.0,0.0,0.0,0.0,0.0,0.0,0.0,0.0,0.0,0.0,0.0,0.0,0.0,0.0,0.0,0.0,4.2731,4.0965,0.0,0.0,0.0,0.0,0.0,0.0,0.0,0.0,0.0,0.0,0.0,0.0,0.0,0.0,0.0,0.0,0.0,0.0,0.0,0.0,0.0,0.0,0.0,2.9934,3.0318,3.1052,3.0851,3.1254,3.26,3.3451,3.4361,3.5309,3.7105,3.8245,3.8571,3.923,4.0187,4.1422,4.2192,4.3599,4.5544,4.6322,4.6022,4.4814,4.4007,0.0,0.0,0.0,0.0,0.0,0.0,0.0,0.0,0.0,0.0,0.0,0.0,0.0,0.0,0.0,0.0,0.0,0.0,0.0,0.0,0.0,0.0,0.0,0.0,0.0,0.0,0.0,0.0,0.0,0.0,0.0,0.0,0.0,0.0,0.0,0.0,0.0,0.0,0.0,0.0,0.0,0.0,0.0,0.0,0.0,0.0,0.0,0.0,0.0,0.0,0.0,0.0,0.0,0.0,0.0,0.0,0.0,0.0,0.0,0.0,0.0,0.0,0.0,4.9164,5.0391,5.1738,5.1242,5.1362,5.1618,4.6591,4.3698,4.2402,4.2162,0.0,0.0,0.0,0.0,0.0,0.0,0.0,0.0,0.0,0.0,0.0,0.0,0.0,0.0,0.0,0.0,0.0,0.0,0.0,0.0,0.0,3.0533,3.0915,3.0708,3.2907,3.3907,3.3019,3.5915,3.7403,3.6743,3.8318,3.9205,3.9254,3.9948,4.0636,4.1422,4.5394,4.8386,5.0331,5.1558,5.1738,5.087,4.683,4.5992,4.7489,0.0,0.0,0.0,0.0,0.0,0.0,0.0,0.0,0.0,0.0,0.0,0.0,0.0,0.0,0.0,0.0,0.0,0.0,0.0,0.0,0.0,0.0,0.0,0.0,0.0,0.0,0.0,0.0,0.0,0.0,0.0,0.0,0.0,0.0,0.0,0.0,0.0,0.0,0.0,0.0,0.0,3.7195,3.7285,0.0,0.0,0.0,0.0,0.0,0.0,0.0,0.0,0.0,0.0,0.0,0.0,0.0,4.7309,4.9119,5.099,5.1768,5.1588,5.3982,5.467,5.3832,5.4311,5.4581,5.4581,5.3234,0.0,4.6441,4.5274,0.0,0.0,0.0,0.0,0.0,0.0,0.0,0.0,0.0,0.0,0.0,0.0,0.0,0.0,0.0,0.0,0.0,0.0,0.0,0.0,0.0,3.2657,3.3973,3.4717,3.7142,3.8086,3.6684,3.8937,3.9606,3.7883,3.8835,3.9373,3.9373,4.0068,4.1833,4.4706,4.8955,5.1678,5.2935,5.3862,5.4162,5.3803,5.1768,4.9703,4.7638,4.6082,0.0,0.0,0.0,0.0,0.0,0.0,0.0,0.0,0.0,0.0,0.0,0.0,0.0,0.0,0.0,0.0,0.0,0.0,0.0,0.0,0.0,0.0,0.0,0.0,0.0,0.0,0.0,0.0,0.0,0.0,0.0,0.0,0.0,0.0,0.0,0.0,0.0,0.0,0.0,3.8033,3.896,3.8571,3.8871,3.8542,0.0,0.0,0.0,0.0,0.0,0.0,0.0,0.0,0.0,4.7535,4.8865,5.0451,5.2456,5.3683,5.5089,5.6645,5.8201,5.9219,5.9727,5.9638,5.9817,6.0057,5.868,5.6496,5.3623,4.9703,4.6531,4.4018,0.0,0.0,0.0,0.0,4.2043,4.2611,0.0,0.0,0.0,0.0,0.0,0.0,0.0,0.0,0.0,0.0,0.0,0.0,3.3169,3.5504,3.7579,3.9229,4.1279,4.1959,4.0837,4.1057,4.0547,3.8955,3.908,3.914,3.914,4.0965,4.4257,4.9075,5.2845,5.5299,5.6496,5.7334,5.7603,5.7423,5.7094,5.4281,4.9703,4.7848,4.6411,4.5143,0.0,0.0,0.0,0.0,0.0,0.0,0.0,0.0,0.0,0.0,0.0,0.0,0.0,0.0,0.0,0.0,0.0,0.0,0.0,0.0,0.0,0.0,0.0,0.0,0.0,0.0,0.0,0.0,0.0,0.0,0.0,0.0,0.0,0.0,0.0,0.0,0.0,3.9679,4.0786,3.9798,4.0995,4.0935,0.0,0.0,0.0,0.0,0.0,0.0,4.6471,4.7997,4.9703,5.1678,5.2725,5.4371,5.6675,5.7363,5.9009,6.1613,6.2301,6.3109,6.3977,6.3707,6.3647,6.3677,6.2241,6.0954,5.9458,5.4012,5.0212,4.7698,4.6309,4.5454,4.4885,4.4706,4.5035,4.5603,0.0,0.0,0.0,0.0,0.0,0.0,0.0,0.0,0.0,0.0,0.0,3.1978,3.5953,3.8945,4.1277,4.2913,4.4282,4.4934,4.4458,4.1342,3.9755,4.0277,3.911,3.8452,3.8452,4.3419,4.8596,5.3862,5.7184,6.0116,6.266,6.3947,6.4186,6.3498,6.2301,5.9847,5.6286,5.1306,4.9793,5.0331,4.4687,0.0,0.0,0.0,0.0,0.0,0.0,0.0,0.0,0.0,0.0,0.0,0.0,0.0,0.0,0.0,0.0,0.0,0.0,0.0,0.0,0.0,0.0,0.0,0.0,0.0,0.0,0.0,0.0,0.0,0.0,0.0,0.0,0.0,0.0,0.0,0.0,0.0,0.0,4.0576,4.3718,0.0,0.0,0.0,0.0,4.4855,4.683,4.8566,4.9867,5.1828,5.3803,5.5807,5.7723,6.0266,6.3468,6.4186,6.4934,6.5712,6.637,6.5742,6.4006,6.4635,6.4276,6.3109,6.3019,6.26,6.1642,5.7543,5.4311,5.1768,5.0405,4.9553,4.894,4.8267,4.8491,4.888,0.0,0.0,0.0,0.0,0.0,0.0,0.0,0.0,2.7452,2.9276,3.2019,3.5381,3.9567,4.3767,4.7244,4.9486,5.0882,5.0879,4.9021,4.5722,4.3778,4.3569,4.0666,4.0636,4.4047,4.7638,5.1858,5.6735,6.0027,6.2361,6.3677,6.4605,6.4904,6.4635,6.4186,6.2839,6.0565,5.485,5.1498,4.9673,4.6292,4.4526,0.0,0.0,0.0,0.0,0.0,0.0,0.0,0.0,0.0,0.0,0.0,0.0,0.0,0.0,0.0,0.0,0.0,0.0,0.0,0.0,0.0,0.0,0.0,0.0,0.0,0.0,0.0,0.0,0.0,0.0,0.0,0.0,0.0,0.0,0.0,0.0,0.0,4.6082,4.8835,0.0,4.6937,4.7369,4.8147,4.9045,5.096,5.3054,5.5158,5.6795,5.874,6.1134,6.1882,6.3228,6.5263,6.5114,6.5353,6.6011,6.6251,6.5772,6.4665,6.4904,6.4545,6.3647,6.3258,6.2929,6.26,6.1194,5.88,5.5837,5.4102,5.3025,5.2306,5.1199,5.1229,5.1648,0.0,0.0,0.0,0.0,0.0,0.0,0.0,0.0,2.7105,2.9717,3.3578,3.8076,4.3182,4.8283,5.2306,5.494,5.5388,5.4581,5.2366,4.7878,4.4915,4.4018,4.1683,4.288,4.8177,5.1738,5.5688,6.0116,6.2989,6.4725,6.5353,6.5802,6.6011,6.6011,6.6011,6.5413,6.4096,5.9249,5.5029,5.1396,4.8476,4.7189,4.6501,0.0,0.0,0.0,0.0,0.0,0.0,0.0,0.0,0.0,0.0,0.0,0.0,0.0,0.0,0.0,0.0,0.0,0.0,0.0,0.0,0.0,0.0,0.0,0.0,0.0,0.0,0.0,0.0,0.0,0.0,0.0,0.0,0.0,0.0,4.6322,4.9374,5.0497,5.3503,5.4551,5.2157,5.2468,5.3264,5.4132,5.5867,5.7723,5.9697,6.1044,6.245,6.3947,6.4216,6.4994,6.6311,6.5682,6.5682,6.634,6.6131,6.5533,6.4695,6.4695,6.4306,6.3647,6.3258,6.3079,6.3049,6.2839,6.1463,5.9308,5.7782,5.6795,5.5987,5.4431,5.4132,5.4371,0.0,0.0,0.0,0.0,0.0,0.0,0.0,2.4908,2.6912,3.0616,3.4573,3.9659,4.6629,5.2127,5.6376,5.9009,5.7363,5.5628,5.4371,4.7355,4.2761,4.1504,4.2201,4.5065,5.0315,5.5487,6.0116,6.4066,6.6041,6.7358,6.7956,6.7986,6.8016,6.8016,6.8016,6.7657,6.6849,6.4336,6.0625,5.6098,5.1396,5.0571,5.1648,0.0,0.0,0.0,0.0,0.0,0.0,0.0,0.0,0.0,0.0,0.0,0.0,0.0,0.0,0.0,0.0,0.0,0.0,0.0,0.0,0.0,0.0,0.0,0.0,0.0,0.0,0.0,0.0,0.0,0.0,0.0,0.0,0.0,4.5424,4.9434,5.2636,5.3354,5.7453,5.8979,5.5837,5.7244,5.889,6.0176,6.1463,6.248,6.3139,6.4366,6.4725,6.4066,6.4695,6.5652,6.6909,6.6311,6.6311,6.6909,6.6281,6.5293,6.4006,6.4006,6.3647,6.3079,6.3049,6.3049,6.2989,6.2331,6.2061,6.1972,6.1313,6.0655,5.9817,5.7812,5.7064,5.6855,0.0,0.0,0.0,0.0,0.0,0.0,2.3879,2.4582,2.6472,3.056,3.6136,4.218,4.8716,5.4581,5.9099,6.1762,5.8411,5.6068,5.5658,4.7459,4.2671,4.2751,4.5723,5.0062,5.5786,5.8321,6.1493,6.5443,6.6969,6.7807,6.7986,6.8495,6.8704,6.8734,6.9213,6.8794,6.7687,6.7478,6.5533,6.2121,5.6526,5.3443,5.1887,0.0,0.0,0.0,0.0,0.0,0.0,0.0,0.0,0.0,0.0,0.0,0.0,0.0,0.0,0.0,0.0,0.0,0.0,0.0,0.0,0.0,0.0,0.0,0.0,0.0,0.0,0.0,0.0,0.0,0.0,0.0,4.5316,4.8221,4.8221,5.2546,5.6526,5.868,6.1283,6.2959,6.3019,6.3079,6.3468,6.4306,6.4276,6.4515,6.5173,6.5084,6.5173,6.5443,6.5652,6.5682,6.5562,6.5862,6.5862,6.5562,6.5383,6.4844,6.4006,6.4006,6.3647,6.3049,6.257,6.2361,6.2301,6.1642,6.1104,6.0625,6.0446,5.9967,5.9189,5.7663,5.6526,5.5508,0.0,0.0,0.0,0.0,0.0,0.0,2.3502,2.4274,2.618,3.0025,3.7018,4.3757,4.9304,5.5432,5.9727,6.1283,5.7932,5.494,5.2995,4.68,4.3838,4.5334,4.9494,5.4132,5.9279,6.1732,6.4515,6.7687,6.8435,6.8824,6.8824,6.9213,6.9542,6.9812,7.0201,6.9931,6.9183,6.9064,6.7926,6.5922,6.2211,5.9279,5.6735,5.3114,5.1947,5.1887,4.9045,4.8745,4.9344,4.713,0.0,0.0,0.0,0.0,0.0,0.0,0.0,0.0,0.0,0.0,0.0,0.0,0.0,0.0,0.0,0.0,0.0,0.0,0.0,0.0,0.0,0.0,0.0,0.0,4.876,5.2127,5.3234,5.6496,5.9757,6.245,6.4246,6.5682,6.6729,6.649,6.643,6.6819,6.649,6.6071,6.5622,6.5503,6.5353,6.5173,6.5443,6.5413,6.5024,6.5114,6.4964,6.4605,6.4336,6.4006,6.3617,6.3617,6.3258,6.266,6.2271,6.1942,6.1642,6.0954,6.0296,5.9668,0.0,0.0,0.0,0.0,5.5478,5.4221,0.0,0.0,0.0,0.0,0.0,0.0,2.292,2.3923,2.5804,2.9194,3.7035,4.4065,4.8489,5.4649,5.853,5.874,5.6226,5.2785,4.8446,4.6112,4.6172,4.9045,5.3384,5.7633,6.1702,6.5353,6.8136,6.9991,7.0051,7.0081,7.0081,7.0171,7.044,7.0919,7.1128,7.1158,7.0949,6.9961,6.9064,6.8256,6.7657,6.6101,6.3528,5.8141,5.7393,5.871,5.497,5.2636,5.1152,5.0242,0.0,0.0,0.0,0.0,0.0,0.0,0.0,0.0,0.0,0.0,0.0,0.0,0.0,0.0,0.0,0.0,0.0,0.0,0.0,0.0,0.0,0.0,0.0,0.0,5.2665,5.6526,5.9069,6.0595,6.2301,6.4635,6.6071,6.7178,6.7897,6.7897,6.7926,6.8076,6.7867,6.6999,6.5233,6.5533,0.0,0.0,0.0,6.4874,6.4814,6.4276,6.3977,6.3887,6.3348,6.3079,6.3079,6.2989,6.266,6.2091,6.1942,6.1493,6.0835,6.0146,5.9428,5.877,5.877,5.8411,5.7663,5.5777,5.4311,5.3264,0.0,0.0,0.0,0.0,0.0,0.0,2.2322,2.2995,2.4759,2.8564,3.5287,4.1083,4.4632,5.0621,5.497,5.6585,5.3354,5.0152,4.7668,4.7997,5.0258,5.4511,5.7543,6.1253,6.5742,6.7657,6.9064,6.9991,7.047,7.0739,7.0739,7.1278,7.1308,7.0979,7.2595,7.2714,7.1757,7.2595,7.1936,7.032,7.0201,6.8016,6.4575,6.2391,6.0864,5.9578,5.7184,5.7124,5.7752,5.497,5.4401,5.4132,5.0106,4.689,0.0,0.0,0.0,0.0,0.0,0.0,0.0,0.0,0.0,0.0,0.0,0.0,0.0,0.0,0.0,0.0,0.0,0.0,0.0,5.1678,5.5688,5.9099,6.1224,6.263,6.3617,6.4126,6.5383,6.667,6.7867,6.7478,6.7627,6.8734,6.7298,6.6221,6.5832,6.4904,6.4276,6.4006,6.4126,6.3947,6.3468,6.3827,6.3737,6.3258,6.3139,0.0,6.3049,6.254,6.2211,6.2032,6.0954,6.0086,5.9428,5.877,5.7812,5.6735,5.6735,5.6645,5.6376,5.494,5.4251,5.3862,0.0,0.0,0.0,0.0,0.0,0.0,2.2146,2.2744,2.4216,2.7307,3.3003,3.7838,4.0701,4.5142,4.8162,4.8803,4.6623,4.5776,4.7206,5.0092,5.3803,5.8441,6.2091,6.5413,6.8405,6.9752,7.062,7.0919,7.1248,7.1218,7.0919,7.1577,7.1697,7.1457,7.2804,7.2834,7.1966,7.2984,7.2624,7.1427,7.1787,7.0739,6.8734,6.64,6.4904,6.3797,6.2151,6.1343,6.0745,5.8411,5.6974,5.5688,5.3054,4.9942,4.689,0.0,0.0,0.0,0.0,0.0,0.0,0.0,0.0,0.0,0.0,0.0,0.0,0.0,0.0,4.4855,4.6501,0.0,5.2815,5.6107,5.859,6.0805,6.278,6.3588,6.4126,6.4485,6.5413,6.652,6.7837,6.7687,6.7777,6.8435,6.7268,6.6221,6.5562,6.4545,6.3857,6.3558,6.3528,6.3378,6.3079,6.3378,6.3378,6.3079,6.3079,6.2899,6.257,6.2241,6.1732,6.1044,6.0386,5.9518,5.853,5.7543,5.6765,5.6188,5.5807,5.5478,5.5059,5.4072,5.3473,5.3054,0.0,0.0,0.0,0.0,0.0,0.0,0.0,2.2493,2.3602,2.5896,3.0497,3.4372,3.6452,3.9338,4.0971,4.052,4.0843,4.3001,4.7524,5.242,5.7334,6.2241,6.637,6.9153,7.047,7.1547,7.2086,7.2086,7.2086,7.1816,7.1308,7.1966,7.2206,7.2116,7.2924,7.2924,7.2325,7.3013,7.2894,7.2295,7.2744,7.2834,7.2385,6.9333,6.8256,6.8166,6.6729,6.4246,6.1583,6.0745,5.8291,5.5508,5.5239,5.2965,4.9972,4.7728,4.5783,0.0,0.0,0.0,0.0,0.0,0.0,0.0,0.0,4.1683,4.294,4.4407,4.6711,4.9164,5.1558,5.4162,5.6915,5.9817,6.0984,6.2032,6.3588,6.3827,6.4066,6.4755,6.5533,6.649,6.7657,6.7657,6.7657,6.7777,6.6939,6.5951,6.4874,6.4186,6.3588,6.3079,6.3079,6.3019,6.2899,6.3019,6.3019,6.2899,6.2899,6.26,6.2091,6.1822,6.1044,5.9877,5.9488,5.871,5.7633,5.6316,5.5777,5.5718,5.5059,5.4491,5.3952,5.3533,5.2965,5.2306,0.0,0.0,0.0,0.0,0.0,0.0,0.0,0.0,2.2472,2.4707,2.7814,3.0231,3.1405,3.4168,3.6089,3.649,4.1373,4.5931,4.9479,5.5248,6.1134,6.6939,6.9363,7.1188,7.2565,7.2714,7.2804,7.2804,7.2804,7.2774,7.2714,7.3373,7.3373,7.2864,7.4091,7.43,7.3702,7.436,7.427,7.3612,7.3103,7.2535,7.1757,6.9692,6.9243,6.9453,6.7567,6.4036,6.0475,6.1523,5.9638,5.7064,5.8201,5.6705,5.3892,5.0674,4.7146,4.3838,4.1743,4.0427,3.9738,4.0187,4.0786,4.2013,0.0,4.6112,4.7189,4.903,5.1109,5.2965,5.4461,5.6885,5.9189,6.0745,6.2061,6.2929,6.3139,6.3169,6.3408,6.4036,6.5233,6.6281,6.7029,6.658,6.646,6.7059,6.5383,6.4276,6.4126,6.3528,6.3139,6.3079,6.3079,6.278,6.2211,6.278,6.278,6.2211,6.2211,6.2181,6.2061,6.0864,5.9907,5.9129,5.7363,5.6526,5.6286,5.497,5.4431,5.4371,5.3683,5.3354,5.3354,5.3892,5.3653,5.2965,0.0,0.0,0.0,0.0,0.0,0.0,0.0,0.0,0.0,2.3597,2.5467,2.6926,2.7661,2.9162,3.0263,3.0643,3.6251,4.1595,4.5959,5.4309,6.138,6.6246,7.0462,7.2924,7.3462,7.3851,7.3881,7.3492,7.3492,7.3283,7.2924,7.3582,7.3552,7.2984,7.43,7.43,7.3402,7.442,7.448,7.3881,7.3582,7.3073,7.2235,6.9901,6.7717,6.5742,6.4126,6.1343,0.0,5.7693,5.6316,5.4999,5.5957,5.4431,5.1887,4.9733,4.6561,4.326,4.1354,4.0696,4.0726,4.1422,4.321,4.5394,4.7549,4.9134,5.072,5.2695,5.4999,5.7034,5.8381,6.0146,6.1732,6.263,6.2959,6.3199,6.3558,6.266,6.1882,6.1732,6.1882,6.3019,6.5592,6.5592,6.5562,6.5832,6.4695,6.4006,6.4006,6.3408,6.3079,6.3079,6.272,6.2361,6.2091,6.2002,6.1792,6.1523,6.1523,6.1313,6.0894,6.0356,5.9518,5.8441,5.6855,5.6008,5.5538,5.4581,5.3982,5.3593,5.3294,5.3174,5.3174,5.3084,5.2845,5.2516,0.0,0.0,0.0,0.0,0.0,0.0,0.0,0.0,0.0,0.0,2.3722,2.4525,2.5109,2.5695,2.6155,2.6505,3.1777,3.7288,4.2594,5.1909,5.9437,6.4193,6.9734,7.2786,7.3073,7.4305,7.4629,7.418,7.418,7.3821,7.3193,7.3672,7.3552,7.2954,7.3911,7.3911,7.3253,7.421,7.433,7.3851,7.3283,7.2445,7.1158,6.7627,6.4036,6.0805,6.0027,5.7453,5.4172,5.2785,5.1618,5.096,5.2187,5.1259,4.9404,4.7908,4.4975,4.1914,4.0516,4.1025,4.2231,4.321,4.6082,4.9045,5.0571,5.2426,5.4401,5.6406,5.8321,6.0027,6.1164,6.2181,6.2959,6.3408,6.3258,6.3169,6.3438,6.1792,6.0236,5.9368,5.8381,5.8949,6.2032,6.3139,6.3887,6.4455,6.3857,6.3558,6.3737,6.3318,6.3079,6.3079,6.245,6.2002,6.1822,6.1343,6.1014,6.0835,6.0835,6.0565,6.0057,5.9518,5.865,5.7513,5.6406,5.5628,5.5119,5.4281,5.3623,5.3144,5.2785,5.2636,5.2576,5.2097,5.2037,5.2127,0.0,0.0,0.0,0.0,0.0,0.0,0.0,0.0,0.0,0.0,0.0,0.0,0.0,2.4531,2.5059,2.5594,2.9977,3.5224,4.118,4.8365,5.528,6.1747,6.6822,7.0043,7.1047,7.3556,7.4869,7.4839,7.4839,7.451,7.3881,7.3881,7.3552,7.2924,7.2954,7.3313,7.3881,7.3911,7.3911,7.3732,7.1787,6.9842,6.7478,6.1642,5.7752,5.5508,5.6107,5.2576,4.7608,4.7549,4.6202,4.5035,4.7638,4.8416,4.7967,4.5963,4.2611,3.9493,3.9433,4.1354,4.3808,4.5723,4.9164,5.2576,5.4551,5.6526,5.8501,6.0535,6.0984,6.1253,6.1942,6.2091,6.2121,6.2151,6.266,6.2869,6.2241,6.0446,5.868,5.7334,5.5508,5.467,5.5418,5.8381,6.1044,6.2989,6.254,6.2421,6.3079,6.3079,6.3079,6.3079,6.245,6.1792,6.1164,6.1134,6.0775,6.0116,6.0116,6.0116,6.0027,5.8082,5.6825,5.6248,5.5508,5.5209,5.5089,5.3743,5.3204,5.3054,5.1768,5.1289,5.1289,5.1259,5.1648,5.2187,0.0,0.0,0.0,0.0,0.0,0.0,0.0,0.0,0.0,0.0,0.0,0.0,0.0,0.0,0.0,0.0,2.8176,3.1963,3.618,4.4079,5.0397,5.4494,6.1026,6.5535,6.7525,6.7896,6.9495,7.2235,7.1078,7.096,7.1906,7.1906,7.1787,7.1577,7.1577,7.1697,7.1906,7.1906,7.0649,6.8555,6.7448,6.5293,6.2331,5.859,5.47,5.099,0.0,4.6172,4.324,4.2372,4.1624,4.1294,4.2641,4.2761,4.2013,4.0038,3.9738,4.0277,4.1145,4.3629,4.6681,4.9523,5.2845,5.5987,5.7992,5.9308,6.0176,6.0386,5.9368,5.8261,5.7633,5.7513,5.7932,5.9249,6.0386,6.1164,6.1403,6.0475,5.8291,5.4311,5.3653,5.2935,5.1409,5.464,5.7842,6.0266,6.0625,6.1074,6.1732,6.2181,6.2241,6.1792,6.0685,6.0206,6.0416,5.9578,5.9249,5.9428,5.9009,5.853,5.8052,5.6974,5.6376,5.6188,5.5478,5.47,5.3832,5.3384,5.2665,5.1828,5.1379,5.1229,5.1229,5.1229,5.1349,5.1558,0.0,0.0,0.0,0.0,0.0,0.0,0.0,0.0,0.0,0.0,0.0,0.0,0.0,0.0,0.0,0.0,0.0,2.9227,3.2767,3.8787,4.3729,4.7092,5.3109,5.7422,5.9565,6.0055,6.181,6.4855,6.4347,6.4915,6.6444,6.7083,6.7418,6.7418,6.7657,6.7897,6.8106,6.7867,6.6251,6.3767,6.2151,5.9518,5.6196,5.2845,4.9164,0.0,4.2252,4.0038,3.8512,3.8153,3.8033,3.8093,3.8512,3.8362,3.7913,3.7345,3.8691,4.0935,4.3449,4.6531,4.9793,5.2845,5.5897,5.8441,5.9488,6.0086,5.9997,5.862,5.6735,5.488,5.3354,5.2875,5.3354,5.5329,5.6555,5.7842,5.9458,5.8291,5.6107,5.2935,5.2097,5.1199,4.9763,5.1917,5.47,5.7812,5.9099,6.0027,6.0715,6.1373,6.1553,6.1134,5.9817,5.9428,6.0086,5.877,5.8351,5.874,5.8082,5.7393,5.6735,5.6107,5.5688,5.5448,5.476,5.3982,5.3174,5.2935,5.2336,5.1558,5.1319,5.1229,5.1229,5.1229,5.1229,5.1229,0.0,0.0,0.0,0.0,0.0,0.0,0.0,0.0,0.0,0.0,0.0,0.0,0.0,0.0,0.0,0.0,0.0,0.0,3.0884,3.2767,3.5629,3.9898,4.3651,4.641,4.8076,5.0513,5.2306,5.3608,5.523,5.6683,5.7965,5.9652,6.051,6.0625,6.1253,6.1882,6.2421,6.1792,6.0715,5.9099,5.5987,5.2755,4.9269,4.4844,4.1526,3.899,3.6447,3.4681,3.3694,3.5011,3.5489,3.5579,3.5579,3.5639,3.6028,3.7973,3.9559,4.1713,4.6262,4.9912,5.3025,5.5658,5.8201,5.9847,5.9159,5.889,5.8052,5.5418,5.3204,5.1169,4.9269,4.8446,4.8775,5.084,5.1828,5.3473,5.6735,5.4551,5.2755,5.3174,5.1126,4.9823,5.0255,5.0345,5.2007,5.5888,5.7872,5.9249,5.9937,6.0685,6.1044,6.1014,5.9727,5.9368,6.0027,5.877,5.8082,5.8022,5.7363,5.6705,5.6098,5.5418,5.479,5.4132,5.3473,5.3144,5.3084,5.2456,5.2157,5.2037,5.1439,5.1199,5.1169,5.1169,5.1169,5.1169,0.0,0.0,0.0,0.0,0.0,0.0,0.0,0.0,0.0,0.0,0.0,0.0,0.0,0.0,0.0,0.0,0.0,0.0,2.7605,3.0055,3.2315,3.4248,3.7995,4.1043,4.3237,4.3413,4.5173,4.8546,4.7647,4.8663,5.1391,5.1865,5.2694,5.3743,5.3922,5.4072,5.4221,5.4072,5.2396,4.9763,4.8925,4.6591,4.3449,4.1773,3.9798,3.7764,3.6656,3.507,3.3634,3.4472,3.54,3.6327,3.6776,3.7255,3.8033,4.0038,4.2611,4.5603,4.9224,5.2636,5.5658,5.7812,5.886,5.9039,5.7872,5.6107,5.3952,5.1366,4.8027,4.5185,4.3658,4.4466,4.6471,4.9897,5.2695,5.5388,5.8201,5.8291,5.7064,5.4281,5.4221,5.3683,5.1887,5.2606,5.3832,5.5329,5.6346,5.7423,5.856,5.9727,6.0116,5.9638,5.88,5.868,5.9338,5.853,5.7633,5.6675,5.6496,5.5807,5.47,5.4551,5.4072,5.3443,5.3264,5.2905,5.2426,5.2276,5.1618,5.0734,5.1079,5.0883,5.0435,5.0435,5.0435,5.0375,0.0,0.0,0.0,0.0,0.0,0.0,0.0,0.0,0.0,0.0,0.0,0.0,0.0,0.0,0.0,0.0,0.0,0.0,0.0,2.7218,2.8549,2.9654,3.1788,3.3785,3.5588,3.5239,3.658,3.9605,3.9186,4.0449,4.3279,4.3887,4.5069,4.6785,4.7052,4.757,4.8147,4.7578,4.5933,0.0,0.0,4.0546,3.8307,3.7614,3.6477,3.522,3.4861,3.4203,3.3694,3.4951,3.6271,3.7494,3.8422,3.9379,4.0673,4.324,4.6112,4.9194,5.2486,5.5388,5.7782,5.9189,5.868,5.7304,5.5388,5.2905,4.9942,4.6172,4.3389,4.1055,3.917,4.0157,4.2581,4.6518,4.9523,5.2725,5.6825,5.7453,5.7004,5.5628,5.5897,5.5649,5.4102,5.464,5.5209,5.5598,5.6226,5.7034,5.8082,5.9099,5.9488,5.9129,5.8471,5.8171,5.8231,5.7603,5.6885,5.6218,5.5598,5.491,5.4192,5.3593,5.3114,5.2725,5.2456,5.2127,5.1768,5.1768,5.1122,5.0226,5.0584,5.0391,4.9823,4.9823,4.9823,4.9703,0.0,0.0,0.0,0.0,0.0,0.0,0.0,0.0,0.0,0.0,0.0,0.0,0.0,0.0,0.0,0.0,0.0,0.0,0.0,0.0,2.5184,2.6223,2.6348,2.6826,2.7745,2.7846,2.8599,3.0055,3.1133,3.2836,3.5048,3.6144,3.7781,3.9778,4.0398,4.1309,4.2446,4.1462,4.0368,3.9116,3.6982,3.534,3.4174,0.0,3.2946,3.2377,3.2377,3.2796,3.3694,3.5878,3.7584,3.905,4.0576,4.2013,4.3818,4.701,4.9763,5.2426,5.5568,5.7812,5.9338,5.9727,5.7782,5.5029,5.2187,4.9314,4.5873,4.0995,3.9349,3.8093,3.5908,3.6626,3.8871,4.2901,4.5233,4.8656,5.461,5.494,5.5269,5.7124,5.6885,5.6555,5.6555,5.6466,5.6436,5.6436,5.6825,5.7334,5.7842,5.865,5.9069,5.8979,5.8411,5.7752,5.6974,5.6436,5.6077,5.5897,5.476,5.4132,5.3892,5.2725,5.2157,5.2037,5.1468,5.1229,5.1229,5.1229,5.0734,5.0076,5.0166,4.9793,4.9179,4.9269,4.9239,4.909,0.0,0.0,0.0,0.0,0.0,0.0,0.0,0.0,0.0,0.0,2.4431,2.3095,0.0,0.0,0.0,0.0,0.0,0.0,0.0,0.0,0.0,2.5084,2.5511,2.5837,2.6038,2.6524,2.6927,2.7228,2.7449,2.8359,2.9971,3.0191,3.1163,3.2757,3.2876,3.3058,3.3344,3.3792,3.3827,3.3627,3.3921,3.3544,3.2826,3.2736,0.0,0.0,3.166,3.2079,3.3155,3.6207,3.8871,4.1294,4.3688,4.5753,4.7788,5.0541,5.2845,5.497,5.7184,5.883,5.9668,5.871,5.6047,5.2725,4.9015,4.4855,4.1025,3.8452,3.6537,3.537,3.5489,3.6985,3.9709,4.4227,4.6651,5.0002,5.5927,5.6675,5.7124,5.859,5.865,5.859,5.859,5.8112,5.7782,5.7782,5.7363,5.6915,5.6526,5.8171,5.886,5.8321,5.8171,5.7543,5.6346,5.6226,5.5628,5.4551,5.4311,5.3623,5.2546,5.2306,5.1917,5.1379,5.1259,5.1229,5.1229,5.1229,5.0511,4.9494,4.9986,4.9494,4.8506,4.912,4.897,4.8446,0.0,0.0,0.0,0.0,0.0,0.0,0.0,2.433,2.5862,2.8649,2.8097,2.6892,2.546,2.3973,0.0,0.0,0.0,0.0,0.0,0.0,0.0,0.0,2.4908,2.531,2.5586,2.6197,2.6625,2.6927,0.0,2.6993,2.798,2.7704,2.8347,2.9794,2.9794,3.0461,3.1593,3.1221,3.1272,3.1688,3.1771,3.163,3.1396,0.0,0.0,0.0,3.1511,3.1929,3.2916,3.5549,3.8392,4.1504,4.5185,4.7698,4.9763,5.2037,5.4371,5.6526,5.8201,5.9608,6.0296,5.8979,5.5119,5.0601,4.6651,4.2162,3.8182,3.5848,3.4891,3.4623,3.4921,3.6567,3.896,4.2222,4.4436,4.7668,5.3264,5.461,5.5927,5.8321,5.889,5.9099,5.9099,5.8501,5.7992,5.7633,5.7603,5.7334,5.6675,5.7543,5.7902,5.7603,5.7274,5.6795,5.6248,5.5837,5.5179,5.4221,5.3832,5.3144,5.2187,5.1858,5.1498,5.1229,5.1229,5.1229,5.1229,5.1229,5.0631,4.9763,4.9733,4.9344,4.885,4.882,4.882,4.8745,0.0,0.0,0.0,0.0,0.0,0.0,0.0,2.6396,2.8184,3.1411,3.1888,3.0959,2.8448,2.5686,2.3747,0.0,0.0,0.0,0.0,0.0,0.0,0.0,0.0,0.0,2.541,0.0,0.0,2.7153,2.67,0.0,0.0,0.0,0.0,0.0,2.8219,2.9241,3.0909,2.9946,2.9887,0.0,0.0,3.0147,3.0389,0.0,0.0,0.0,0.0,3.1839,3.2587,3.4622,3.7195,4.0277,4.4347,4.7638,5.0361,5.2067,5.461,5.7214,5.871,5.9967,6.0505,5.889,5.4102,4.8671,4.4436,4.0008,3.6148,3.3933,3.3903,3.4384,3.4683,3.5968,3.7704,3.9858,4.1624,4.4586,4.9853,5.1977,5.4162,5.7334,5.853,5.9099,5.9099,5.8501,5.7842,5.7154,5.7334,5.7453,5.7334,5.7064,5.6885,5.6885,5.6436,5.6158,5.5957,5.5299,5.464,5.3982,5.3294,5.2636,5.1977,5.1439,5.1229,5.1229,5.1229,5.1229,5.1229,5.1229,5.0794,5.0136,4.9673,4.9419,4.9269,4.8835,4.8955,4.9269,0.0,0.0,0.0,0.0,0.0,0.0,0.0,2.7272,3.0407,3.5248,3.4575,3.2993,3.121,2.8549,2.5887,0.0,0.0,0.0,0.0,0.0,0.0,0.0,0.0,0.0,0.0,0.0,0.0,2.6575,2.6524,0.0,0.0,0.0,0.0,0.0,0.0,2.6815,2.7046,2.7676,0.0,0.0,0.0,0.0,0.0,0.0,0.0,0.0,0.0,3.154,3.1899,3.3903,3.5579,3.7225,3.9439,4.4377,4.9523,5.0226,5.3234,5.6675,5.859,5.9638,5.9578,5.7064,5.2426,4.71,4.1953,3.7644,3.4533,3.3664,3.3544,3.3963,3.519,3.5549,3.6537,3.908,4.0157,4.2521,4.7818,5.072,5.3294,5.6017,5.7992,5.9099,5.9099,5.8501,5.7842,5.7154,5.6077,5.6226,5.7932,5.6915,5.6308,5.6308,5.6248,5.5897,5.5299,5.464,5.3952,5.3264,5.2606,5.1947,5.1319,5.1259,5.1229,5.1229,5.1229,5.1229,5.1229,5.1229,5.0794,5.0196,5.0136,4.9793,4.9389,4.9853,4.9733,4.9389,0.0,0.0,0.0,0.0,0.0,0.0,2.4672,2.6165,2.8978,3.5015,3.506,3.4213,3.3458,3.121,2.7971,0.0,0.0,0.0,0.0,0.0,0.0,0.0,0.0,0.0,0.0,0.0,2.5711,2.5971,2.6323,0.0,0.0,0.0,0.0,0.0,0.0,2.6782,2.7196,2.7027,0.0,0.0,0.0,0.0,0.0,0.0,0.0,0.0,0.0,0.0,3.1002,3.1809,3.3245,3.4771,3.513,3.8422,4.288,4.6741,5.0391,5.3803,5.6585,5.8381,5.886,5.6226,5.1319,4.5933,4.1414,3.7015,3.3814,3.3544,3.3484,3.3903,3.525,3.5519,3.5848,3.6896,3.7285,3.8871,4.297,4.5125,4.7997,5.2636,5.494,5.6795,5.8351,5.7902,5.7244,5.6585,5.5688,5.5688,5.6885,5.5688,5.5179,5.5568,5.5209,5.485,5.461,5.4341,5.3653,5.2576,5.2336,5.1858,5.1229,5.1229,5.1229,5.1229,5.1229,5.1229,5.1229,5.1229,5.105,5.0734,5.0345,5.0331,5.0421,5.0255,5.0331,5.0421,0.0,0.0,0.0,0.0,0.0,2.0058,2.3906,2.5379,2.7939,3.3361,3.4317,3.4315,3.3785,3.173,2.8775,2.4675,0.0,0.0,0.0,0.0,0.0,0.0,0.0,0.0,0.0,0.0,2.5285,2.5586,2.6047,2.6323,0.0,0.0,2.6399,2.6248,0.0,0.0,0.0,0.0,0.0,0.0,0.0,0.0,0.0,0.0,0.0,0.0,0.0,0.0,0.0,0.0,0.0,3.1931,3.1482,3.2914,3.5941,4.2145,4.6741,5.0451,5.3563,5.5867,5.6825,5.4581,4.9703,4.4436,4.0666,3.6387,3.3275,3.3455,3.3484,3.3903,3.525,3.5519,3.5519,3.5519,3.5669,3.6806,3.9709,4.1452,4.4178,4.8895,5.1229,5.3563,5.6376,5.6915,5.6765,5.5957,5.5448,5.5299,5.5568,5.47,5.4521,5.5179,5.4551,5.4221,5.4221,5.3832,5.3144,5.2187,5.2007,5.1678,5.1229,5.1229,5.1229,5.1229,5.1229,5.1229,5.1229,5.1229,5.1229,5.1169,5.0674,5.0764,5.1169,5.0644,5.0764,5.1139,0.0,0.0,0.0,0.0,0.0,0.0,0.0,2.5489,2.8284,3.056,3.2512,3.3147,3.1615,2.945,2.7896,2.7329,0.0,0.0,0.0,0.0,0.0,0.0,0.0,0.0,0.0,0.0,2.4531,2.5586,2.5611,2.5887,2.6499,2.6499,2.6197,2.5636,0.0,0.0,0.0,0.0,0.0,0.0,0.0,0.0,0.0,0.0,0.0,0.0,0.0,0.0,0.0,0.0,0.0,0.0,0.0,2.8571,2.9813,3.6514,4.2222,4.6907,4.9538,5.1738,5.2935,5.1588,4.7236,4.2453,3.917,3.537,3.2706,3.3365,3.3484,3.3903,3.525,3.5519,3.5519,3.5519,3.6058,3.7165,3.914,4.1115,4.3159,4.5125,4.713,4.9643,5.2905,5.5568,5.6555,5.5299,5.5179,5.491,5.4251,5.4221,5.4521,5.5179,5.4551,5.4221,5.4221,5.2875,5.2217,5.2187,5.1528,5.1229,5.1229,5.1229,5.1229,5.1229,5.1229,5.1229,5.1229,5.1229,5.1229,5.1229,5.1199,5.1199,5.1229,5.1199,5.1199,5.1229,0.0,0.0,0.0,0.0,0.0,0.0,0.0,2.0786,2.2874,2.6955,2.8064,2.9102,3.0802,2.8924,2.7469,2.7293,0.0,0.0,0.0,0.0,0.0,0.0,0.0,0.0,0.0,0.0,2.546,2.6223,2.7318,2.7971,2.8122,2.7369,2.6751,2.6197,2.5586,2.5159,0.0,0.0,0.0,0.0,0.0,0.0,2.5304,0.0,0.0,0.0,0.0,0.0,0.0,0.0,0.0,0.0,0.0,0.0,0.0,3.1508,3.6018,4.0905,4.4018,4.5963,4.68,4.5484,4.2551,3.932,3.6956,3.4382,3.2587,3.2766,3.3185,3.3754,3.4651,3.519,3.5789,3.6656,3.6985,3.7494,3.8571,4.0853,4.3459,4.6322,5.1199,5.47,5.5748,5.6226,5.5927,5.461,5.494,5.47,5.3563,5.3952,5.4102,5.3832,5.3623,5.3294,5.2845,5.2426,5.1977,5.1528,5.1319,5.1229,5.1229,5.1229,5.1229,5.1229,5.1229,5.096,5.0524,5.0973,5.096,5.0554,5.1003,5.1229,5.1229,5.1229,5.1229,5.1229,0.0,0.0,0.0,0.0,0.0,0.0,0.0,1.8286,1.9783,2.3039,2.4207,2.5835,2.8662,2.7225,2.6389,2.7253,0.0,0.0,0.0,0.0,0.0,0.0,0.0,0.0,0.0,2.4456,2.5686,2.7102,2.8323,2.9113,2.9515,2.9051,2.8033,2.6474,2.5963,2.5126,0.0,0.0,0.0,0.0,0.0,0.0,2.4824,0.0,0.0,0.0,0.0,0.0,0.0,0.0,0.0,0.0,0.0,0.0,0.0,0.0,3.107,3.4629,3.9014,4.1075,4.1872,4.1368,3.926,3.6926,3.5459,3.3574,3.2198,3.2437,3.3036,3.3694,3.4384,3.504,3.5759,3.6567,3.6686,3.7015,3.7883,4.0098,4.294,4.6501,5.1648,5.488,5.488,5.5658,5.5718,5.467,5.473,5.4341,5.3234,5.3593,5.3384,5.2456,5.2665,5.2606,5.2187,5.1947,5.1618,5.1229,5.1229,5.1229,5.1229,5.1229,5.1229,5.1199,5.0913,5.0704,0.0,5.0734,5.0704,5.0614,5.105,5.1229,5.1229,5.1229,5.1229,5.1229,0.0,0.0,0.0,0.0,0.0,0.0,0.0,0.0,1.8617,1.9102,2.1104,2.3251,2.5373,2.4558,2.4693,2.6816,0.0,0.0,0.0,0.0,0.0,0.0,0.0,0.0,2.3979,2.413,2.5485,2.8172,2.8787,2.969,3.0809,3.1235,2.9704,2.6625,2.7052,2.5711,2.3095,2.3095,2.3543,2.4166,2.3612,2.4087,0.0,0.0,0.0,0.0,0.0,0.0,0.0,0.0,0.0,0.0,0.0,0.0,0.0,0.0,0.0,0.0,0.0,3.6639,3.7631,3.8537,3.6956,3.4981,3.4412,3.2856,0.0,3.2288,3.2976,3.3634,3.4324,3.4981,3.5489,3.5609,3.5699,3.6148,3.7375,3.9559,4.2462,4.6292,4.9643,5.1588,5.1439,5.4251,5.5837,5.5179,5.4551,5.3892,5.3144,5.3114,5.2516,5.1199,5.1798,5.2127,5.2127,5.1528,5.1229,5.1229,5.1169,5.1139,5.1139,5.1109,5.1079,5.105,5.0375,5.0465,5.102,5.0435,5.0554,5.1139,5.1199,5.1229,5.1229,5.1229,5.1229,5.1229,0.0,0.0,0.0,0.0,0.0,0.0,0.0,0.0,0.0,0.0,1.915,2.0549,2.1733,2.2174,2.2847,0.0,0.0,0.0,0.0,0.0,0.0,0.0,0.0,0.0,2.3979,2.5267,2.6816,2.8687,3.0518,3.1813,3.2491,3.2164,3.0482,2.7695,2.7002,2.5335,2.3095,2.3095,2.3215,2.3399,2.3887,2.3652,0.0,0.0,0.0,0.0,2.4339,2.4806,0.0,0.0,0.0,0.0,0.0,0.0,0.0,0.0,2.6134,2.7677,2.9202,0.0,3.1006,3.2288,3.2138,3.1779,0.0,3.1839,3.154,3.169,3.2258,3.2946,3.3604,3.4262,3.522,3.6716,3.7375,3.8003,3.8841,4.3688,4.8087,5.0541,5.3713,5.5119,5.3653,5.467,5.5149,5.4491,5.4311,5.3683,5.2486,5.2426,5.1828,5.0465,5.1109,5.1439,5.1439,5.1289,5.1229,5.1199,5.0674,5.0435,5.0405,4.9942,4.9733,4.9748,4.9553,4.9583,4.9763,5.0092,5.0285,5.0465,5.102,5.1229,5.1229,5.1229,5.1229,5.1229,0.0,0.0,0.0,0.0,0.0,0.0,0.0,0.0,0.0,0.0,0.0,0.0,0.0,0.0,0.0,0.0,0.0,0.0,0.0,0.0,0.0,0.0,0.0,2.3496,2.4356,2.5485,2.7268,2.9665,3.1386,3.2767,3.3822,3.352,3.1763,2.8775,2.6389,2.4506,2.3095,2.3095,2.297,2.2753,2.3225,0.0,0.0,0.0,0.0,0.0,2.371,2.4015,0.0,2.4487,2.4886,2.5123,0.0,0.0,0.0,0.0,2.5605,2.6439,2.6495,2.7883,2.9552,3.0682,3.121,3.1511,3.1869,3.172,3.1511,3.1511,3.2019,3.2706,3.3365,3.4023,3.5073,3.6716,3.7285,3.8482,4.1265,4.5274,4.9105,5.2276,5.4221,5.5119,5.47,5.47,5.4581,5.4251,5.3653,5.2965,5.2247,5.1917,5.1439,5.0674,5.0973,5.1079,5.0734,5.1079,5.1079,5.0734,5.0375,5.0016,4.9793,4.9434,4.9299,4.9299,4.9,4.9164,4.9733,4.9763,5.0152,5.0674,5.1079,5.1229,5.1229,5.1229,5.1229,5.1229,0.0,0.0,0.0,0.0,0.0,0.0,0.0,0.0,0.0,0.0,0.0,0.0,0.0,0.0,0.0,0.0,0.0,0.0,0.0,0.0,0.0,0.0,0.0,2.3797,2.5034,2.5586,2.7419,3.0608,3.1863,3.3244,3.4726,3.4977,3.3194,2.9628,2.5988,2.3904,2.3095,2.302,2.2719,2.23,2.2282,0.0,0.0,0.0,0.0,0.0,0.0,0.0,0.0,2.4324,2.486,2.5223,2.6131,0.0,0.0,0.0,0.0,0.0,2.5716,2.8052,3.06,3.1098,3.169,3.2228,3.2318,3.1899,3.1511,3.1511,3.2019,3.2706,3.3365,3.4234,3.5252,3.6567,3.7195,3.9349,4.4496,4.6249,4.8596,5.2695,5.3443,5.3952,5.479,5.4461,5.4221,5.4221,5.2875,5.2067,5.2067,5.1319,5.087,5.078,5.087,5.0601,4.9897,5.069,5.075,5.0046,4.9956,4.9643,4.9149,4.906,4.9,4.897,4.8386,4.8895,4.9986,4.9494,5.0032,5.1229,5.1229,5.1229,5.1229,5.1229,5.1229,5.1229,0.0,0.0,0.0,0.0,0.0,0.0,0.0,0.0,0.0,0.0,0.0,0.0,0.0,0.0,0.0,0.0,0.0,0.0,0.0,0.0,0.0,2.3095,2.3602,2.4607,2.6197,2.6741,2.8197,3.0608,3.2641,3.4022,3.4705,3.6157,3.4299,2.9679,2.7228,2.4983,2.307,2.2619,2.2397,2.2272,2.1807,0.0,0.0,0.0,0.0,0.0,0.0,0.0,0.0,2.2771,2.3537,2.4361,2.3995,0.0,0.0,0.0,0.0,0.0,2.7059,2.9116,3.1068,3.0135,3.0342,3.0971,3.1511,3.157,3.1511,3.1511,3.2019,3.2706,3.3365,3.4981,3.6596,3.7883,4.0487,4.3958,4.8611,4.9927,5.1139,5.2965,5.467,5.5119,5.3623,5.3922,5.4221,5.4221,5.2456,5.1379,5.1379,5.0212,4.9314,4.8745,4.9329,4.9254,4.8596,4.9747,5.0062,4.9449,4.8865,4.8536,4.8416,4.7848,4.7608,4.7608,4.7489,4.8207,4.9449,4.9359,5.0032,5.1229,5.1229,5.1229,5.1229,5.1229,5.1229,5.1229,0.0,0.0,0.0,0.0,0.0,0.0,0.0,0.0,0.0,0.0,0.0,0.0,0.0,0.0,0.0,0.0,0.0,0.0,0.0,0.0,0.0,2.4883,2.546,2.6021,2.6474,2.7932,2.988,3.239,3.4299,3.583,3.6935,3.5579,3.2943,2.9227,2.6691,2.4657,2.3095,2.2844,2.2422,2.1845,0.0,0.0,0.0,0.0,0.0,0.0,0.0,0.0,0.0,0.0,2.2996,2.4233,2.3566,0.0,0.0,0.0,0.0,0.0,2.6775,2.8357,2.9983,3.0073,3.112,3.2198,3.2527,3.2288,3.2138,3.2527,3.2826,3.3245,3.3934,3.5639,3.8003,4.1085,4.4107,4.689,4.9374,5.0272,5.1319,5.2995,5.3982,5.4341,5.3773,5.3683,5.3503,5.3144,5.1618,5.0644,5.0644,4.9793,4.9179,4.888,4.9149,4.9,4.8297,4.8895,4.9015,4.879,4.8446,4.8087,4.7758,4.7429,4.7309,4.7309,4.7309,4.7848,4.8745,4.8745,4.9494,5.0644,5.0644,5.09,5.1229,5.1229,5.1229,5.1229,0.0,0.0,0.0,0.0,0.0,0.0,0.0,0.0,0.0,0.0,0.0,0.0,0.0,0.0,0.0,0.0,0.0,0.0,0.0,0.0,2.4607,2.6047,2.6967,2.7645,2.8033,2.9717,3.1838,3.45,3.6282,3.7838,3.8994,3.5353,3.2039,2.8988,2.6515,2.4525,2.3095,2.297,2.2447,2.1669,0.0,0.0,0.0,0.0,0.0,0.0,0.0,0.0,0.0,0.0,0.0,0.0,0.0,0.0,0.0,2.4586,2.5025,2.5853,2.6707,2.7871,2.9146,3.0432,3.1779,3.3006,3.3784,3.3455,3.3245,3.4203,3.4412,3.4562,3.507,3.7165,4.0187,4.4347,4.7249,4.9374,5.0527,5.096,5.1798,5.3443,5.3503,5.3563,5.3922,5.3204,5.2516,5.2007,5.0601,4.9747,4.9747,4.9164,4.8805,4.8805,4.8805,4.8566,4.8057,4.8057,4.8057,4.8057,4.8057,4.7788,4.7309,4.7309,4.7309,4.7309,4.7309,4.7668,4.8297,4.8297,4.9045,5.0196,5.0016,5.0375,5.0973,5.1169,5.1229,5.1229,0.0,0.0,0.0,0.0,0.0,0.0,0.0,0.0,0.0,0.0,0.0,0.0,0.0,0.0,0.0,0.0,0.0,0.0,0.0,0.0,2.428,2.4908,2.6942,2.9478,3.2583,3.281,3.3947,3.6232,3.8391,3.9521,3.9572,3.6661,3.3301,2.9654,2.7896,2.5611,2.307,2.2569,2.2293,2.2171,2.1169,0.0,0.0,0.0,0.0,0.0,0.0,0.0,0.0,0.0,0.0,0.0,0.0,0.0,2.4531,2.4353,2.5301,2.6701,2.7935,2.8868,2.9834,3.1092,3.1062,3.1539,3.4651,3.4831,3.4861,3.6746,3.7135,3.7135,3.7195,4.0367,4.3868,4.6651,4.9284,5.1887,5.4401,5.4281,5.4192,5.494,5.4521,5.3892,5.3324,5.2097,5.1349,5.1289,4.9523,4.8416,4.8416,4.7818,4.7459,4.7459,4.7459,4.7429,4.7369,4.7369,4.7369,4.7369,4.7369,4.7369,4.7309,4.7309,4.7309,4.7309,4.7309,4.7668,4.8297,4.8297,4.9045,5.0136,4.9583,4.9733,5.0345,5.0943,5.1229,5.1229,0.0,0.0,0.0,0.0,0.0,0.0,0.0,0.0,0.0,0.0,0.0,0.0,0.0,0.0,0.0,0.0,0.0,0.0,0.0,2.3647,2.4707,2.6289,2.7469,2.9503,3.2466,3.4248,3.6232,3.8442,3.9973,4.0199,3.912,3.5629,3.2315,2.9176,2.7143,2.5485,2.4098,2.317,2.2794,2.2669,2.127,2.049,0.0,0.0,0.0,0.0,0.0,0.0,0.0,0.0,2.1146,2.1876,2.1298,2.2639,2.4308,2.4014,2.5153,2.6717,2.7633,2.872,2.9831,3.0672,3.133,3.2527,3.5459,3.6207,3.6985,3.9379,4.0217,4.0524,4.0524,4.2402,4.4975,4.8027,5.0391,5.2486,5.4311,5.3982,5.3653,5.3922,5.3354,5.2695,5.2037,5.1139,5.0451,5.0032,4.8925,4.8297,4.8297,4.7668,4.7309,4.7309,4.7309,4.7309,4.7309,4.7309,4.7309,4.7309,4.7309,4.7309,4.7309,4.7309,4.7309,4.7309,4.7309,4.7459,4.7668,4.7668,4.8207,4.9075,4.9643,5.0032,5.0255,5.0913,5.1229,5.1229,0.0,0.0,0.0,0.0,0.0,0.0,0.0,0.0,0.0,0.0,0.0,0.0,0.0,0.0,0.0,0.0,0.0,0.0,2.2702,2.3523,2.4757,2.644,2.7519,2.9227,3.1662,3.4801,3.7312,3.917,4.045,4.0149,3.8316,3.4726,3.1863,2.9603,2.7193,2.6038,2.5762,2.4249,2.3647,2.3471,2.1669,2.0717,0.0,0.0,0.0,0.0,0.0,0.0,0.0,0.0,2.0756,2.1268,2.1276,2.2428,2.387,2.4438,2.5493,2.6654,2.7408,2.8274,2.9232,3.0253,3.1509,3.3425,3.6926,3.8063,3.917,4.2013,4.2641,4.2731,4.294,4.3868,4.5574,4.8476,5.078,5.2606,5.3713,5.3294,5.2785,5.2576,5.1977,5.1319,5.0661,5.0002,4.9434,4.903,4.8356,4.7967,4.7967,4.7549,4.7309,4.7309,4.7309,4.7309,4.7309,4.7309,4.7309,4.7309,4.7309,4.7309,4.7309,4.7309,4.7309,4.7309,4.7309,4.7309,4.7309,4.7309,4.7698,4.8416,4.9687,5.0196,5.0255,5.0913,5.1229,5.1229,0.0,0.0,0.0,0.0,0.0,0.0,0.0,0.0,0.0,0.0,0.0,0.0,0.0,0.0,0.0,0.0,0.0,0.0,2.1908,2.3219,2.423,2.475,2.6917,2.885,3.0532,3.4368,3.686,3.8015,3.9672,3.9346,3.7086,3.4349,3.2466,3.126,2.8524,2.7595,2.7946,2.5728,2.48,2.46,2.2397,2.1493,2.1368,0.0,0.0,0.0,0.0,0.0,0.0,0.0,2.122,2.1237,2.3603,2.3554,2.3125,2.5724,2.6496,2.6683,2.7408,2.7585,2.8094,3.0013,3.1539,3.3933,3.92,4.0397,4.1354,4.4646,4.4287,4.3529,4.4227,4.4855,4.5963,4.7967,5.0451,5.2396,5.3054,5.2576,5.1947,5.1289,5.0584,4.9972,4.9359,4.8656,4.8267,4.8267,4.7668,4.7309,4.7309,4.7309,4.7309,4.7309,4.7309,4.7309,4.7309,4.7309,4.7309,4.7309,4.7309,4.7309,4.7309,4.7309,4.7309,4.7309,4.7309,4.7309,4.7309,4.7309,4.7698,4.8416,4.9703,5.0196,5.0255,5.096,5.1199,5.1229,0.0,0.0,0.0,0.0,0.0,0.0,0.0,0.0,0.0,0.0,0.0,0.0,0.0,0.0,0.0,0.0,0.0,0.0,2.1822,2.2474,2.3226,2.4205,2.5586,2.6565,2.7067,3.0532,3.4399,3.8617,3.8718,3.7412,3.4826,3.3219,3.1461,2.959,2.9227,2.8473,2.7419,2.5586,2.48,2.46,2.2397,2.1295,2.0893,0.0,0.0,0.0,0.0,0.0,0.0,0.0,0.0,0.0,2.1637,2.3147,2.4638,2.4569,2.6159,2.781,2.7091,2.7944,2.9355,3.0823,3.3275,3.6207,3.9619,4.1115,4.289,4.6621,4.6711,4.6052,4.5741,4.6262,4.689,4.7489,4.9015,5.0361,5.102,5.0541,5.0108,4.9883,4.9254,4.8775,4.8596,4.7967,4.7608,4.7608,4.7429,4.7309,4.7309,4.7309,4.7309,4.7309,4.7309,4.7309,4.7309,4.7309,4.7309,4.7309,4.7309,4.7309,4.7309,4.7309,4.7309,4.7309,4.7309,4.7309,4.7309,4.7309,4.7429,4.7668,4.8536,4.9134,4.9643,5.0301,5.0794,5.1229,0.0,0.0,0.0,0.0,0.0,0.0,0.0,0.0,0.0,0.0,1.6465,1.6641,0.0,0.0,0.0,0.0,0.0,0.0,0.0,2.217,2.312,2.428,2.4933,2.5912,2.7243,2.9679,3.234,3.5253,3.578,3.4851,3.2591,3.2566,3.1863,3.0608,3.116,3.0482,2.88,2.7143,2.6088,2.531,2.3301,2.2146,2.1594,0.0,0.0,0.0,0.0,0.0,0.0,0.0,0.0,0.0,2.1614,2.3066,2.4401,2.4447,2.6066,2.7619,2.6811,2.8094,3.0013,3.1839,3.4801,3.8153,4.1564,4.3569,4.5645,4.8805,4.8297,4.7339,4.7459,4.7189,4.71,4.7608,4.8566,4.9449,4.9793,4.9284,4.891,4.891,4.8297,4.7908,4.7908,4.7549,4.7189,4.692,4.692,4.692,4.692,4.6651,4.6621,4.689,4.6651,4.6501,4.6501,4.6501,4.6501,4.6501,4.68,4.692,4.692,4.7189,4.7309,4.7309,4.7309,4.7309,4.7309,4.7309,4.7459,4.7728,4.8117,4.8686,4.9389,5.0002,5.0435,5.0823,0.0,0.0,1.543,1.5469,0.0,0.0,0.0,0.0,0.0,0.0,1.6085,1.6242,0.0,0.0,0.0,0.0,0.0,0.0,0.0,0.0,2.3547,2.4675,2.485,2.6465,2.9654,3.0507,3.0482,2.9553,3.1763,3.2014,3.0432,3.219,3.2993,3.3018,3.352,3.2817,3.1135,2.9289,2.7645,2.6122,2.4481,2.3502,2.2844,2.187,0.0,0.0,0.0,0.0,0.0,0.0,0.0,0.0,2.2812,2.3235,2.3136,2.4905,2.6004,2.6716,2.6716,2.8128,3.034,3.3095,3.6357,4.0098,4.4556,4.698,4.8775,5.0511,4.9075,4.7848,4.903,4.7758,4.695,4.8027,4.8745,4.9209,4.9149,4.8506,4.8117,4.8177,4.7549,4.716,4.7219,4.716,4.689,4.6262,4.619,4.619,4.619,4.5633,4.5574,4.6202,4.5633,4.5304,4.5304,4.5304,4.5304,4.5304,4.5992,4.6279,4.6309,4.701,4.7309,4.7309,4.7309,4.7309,4.7309,4.7309,4.7668,4.8207,4.8207,4.864,4.9299,4.9912,5.0136,5.0285,0.0,0.0,1.5527,1.5889,0.0,0.0,0.0,0.0,0.0,0.0,0.0,0.0,0.0,1.6946,0.0,0.0,0.0,0.0,0.0,0.0,2.3,2.413,2.541,2.7042,2.9038,2.8072,2.7656,2.7821,3.0055,3.0281,2.8699,3.121,3.239,3.2416,3.2516,3.1662,2.9955,2.6967,2.5259,2.4431,2.3175,2.2347,2.182,2.1568,2.079,0.0,0.0,0.0,0.0,0.0,0.0,0.0,2.2259,2.3178,2.3578,2.3932,2.5615,2.7375,2.7375,2.8786,3.118,3.4921,3.9469,4.3838,4.695,4.7967,4.8267,4.8177,4.8506,4.882,4.8536,4.8566,4.8386,4.7638,4.8057,4.8327,4.7788,4.716,4.695,4.7459,4.6471,4.5933,4.6429,4.6052,4.5663,4.5514,4.5514,4.5514,4.5514,4.5364,4.5364,4.5514,4.5364,4.5304,4.5304,4.5304,4.5304,4.5304,4.5992,4.6279,4.6309,4.701,4.7309,4.7309,4.7309,4.7309,4.7309,4.7309,4.7399,4.7519,4.7519,4.7908,4.8566,4.9224,4.9793,5.0285,0.0,0.0,0.0,0.0,0.0,0.0,0.0,0.0,0.0,0.0,0.0,0.0,0.0,1.6797,0.0,0.0,1.8913,0.0,0.0,0.0,2.2924,2.433,2.6214,2.7268,2.7318,2.6239,2.5686,2.5711,2.659,2.7268,2.777,3.0281,3.1587,3.1838,3.239,3.126,2.885,2.6841,2.5234,2.3929,2.302,2.2343,2.1845,2.1594,2.079,1.9811,1.9811,0.0,0.0,0.0,0.0,0.0,0.0,0.0,2.2856,2.3408,2.5046,2.6632,2.6632,2.8757,3.2258,3.7524,4.1594,4.4915,4.7279,4.7818,4.7638,4.698,4.7878,4.864,4.7938,4.8087,4.7878,4.6561,4.692,4.713,4.6441,4.6052,4.5963,4.6292,4.5723,4.5424,4.5813,4.5514,4.5155,4.4855,4.4825,4.4825,4.4825,4.4526,4.4496,4.4825,4.4526,4.4347,4.4347,4.4347,4.4347,4.4377,4.5364,4.6172,4.68,4.716,4.7309,4.7309,4.7309,4.7309,4.7309,4.7309,4.7309,4.7309,4.7309,4.7519,4.7938,4.894,4.9494,4.9912,0.0,0.0,0.0,0.0,0.0,0.0,0.0,0.0,0.0,0.0,0.0,0.0,0.0,0.0,1.698,0.0,0.0,0.0,0.0,0.0,0.0,2.4725,2.664,2.7017,2.5636,2.4983,2.4424,2.4004,2.3396,2.4474,2.7228,2.9327,3.0758,3.1562,3.2114,3.0783,2.8021,2.6917,2.531,2.3527,2.292,2.2418,2.197,2.1518,2.0715,1.9811,1.9811,1.9811,1.9837,1.9914,0.0,0.0,0.0,0.0,2.1922,2.2958,2.429,2.5448,2.5563,2.874,3.3454,3.9529,4.2521,4.4496,4.6501,4.695,4.68,4.6262,4.71,4.7758,4.707,4.695,4.6591,4.5484,4.5783,4.5933,4.5364,4.5185,4.5155,4.5274,4.5095,4.4945,4.4945,4.4945,4.4646,4.3868,4.3898,4.3928,4.3808,4.3389,4.3359,4.3808,4.3469,4.323,4.314,4.323,4.329,4.329,4.4556,4.5843,4.713,4.713,4.7189,4.7309,4.7309,4.7309,4.7309,4.7309,4.7309,4.7309,4.7309,4.7309,4.7459,4.882,4.9299,4.9509,0.0,0.0,0.0,0.0,0.0,0.0,0.0,0.0,0.0,0.0,1.6875,1.6629,0.0,0.0,0.0,1.6863,1.8296,0.0,0.0,0.0,0.0,2.475,2.5536,2.5812,2.5611,2.4632,2.4079,2.4004,2.3396,2.4305,2.665,2.8348,3.0167,3.2039,3.0281,2.8938,2.7871,2.4431,2.2523,2.1769,2.1245,2.0993,2.0918,2.0842,2.039,1.9811,1.9811,1.9811,1.9914,2.0472,2.027,0.0,0.0,0.0,2.1734,2.1899,2.3276,2.4848,2.5437,2.9773,3.4981,3.8751,4.1175,4.3189,4.5125,4.5574,4.5544,4.5454,4.6052,4.6381,4.5693,4.5574,4.5514,4.5334,4.5364,4.5394,4.5304,4.4796,4.4646,4.5214,4.4287,4.3559,4.3559,4.3559,4.309,4.1863,4.2351,4.241,4.1803,4.2261,4.2321,4.1773,4.2791,4.306,4.253,4.306,4.329,4.329,4.4077,4.5155,4.6399,4.6399,4.677,4.7309,4.7309,4.7309,4.7309,4.7309,4.7309,4.7309,4.7309,4.7309,4.7459,4.882,4.9299,4.9509,0.0,0.0,0.0,0.0,0.0,0.0,0.0,0.0,0.0,0.0,0.0,1.709,0.0,0.0,0.0,0.0,0.0,0.0,0.0,0.0,0.0,2.3847,2.4406,2.4406,2.3778,2.3,2.2749,2.305,2.2498,2.3678,2.6524,2.7193,2.8725,3.0783,2.9176,2.7996,2.6967,2.3703,2.1995,2.1418,2.0566,2.0214,2.0214,2.0214,2.0037,1.9811,1.9811,1.9811,1.9862,2.0144,2.0042,1.9965,2.0892,0.0,0.0,0.0,2.3385,2.5073,2.7229,2.9761,3.2796,3.7195,3.923,4.0846,4.3599,4.4496,4.4736,4.4736,4.4706,4.4635,4.4736,4.5035,4.4945,4.3878,4.3958,4.3928,4.321,4.2851,4.2791,4.306,4.2581,4.2252,4.2252,4.2252,4.2013,4.1414,4.1692,4.1722,4.1422,4.1692,4.1722,4.1384,4.1953,4.2102,4.1841,4.2462,4.315,4.3858,4.4167,4.5005,4.6279,4.6279,4.6681,4.7309,4.7309,4.7309,4.7309,4.7309,4.7309,4.7309,4.7309,4.7309,4.7429,4.8356,4.9,4.9449,0.0,0.0,0.0,0.0,0.0,0.0,0.0,0.0,0.0,0.0,0.0,0.0,0.0,0.0,0.0,0.0,0.0,0.0,0.0,0.0,0.0,0.0,0.0,2.2889,2.2121,2.1568,2.1468,2.1895,2.1619,2.3155,2.6273,2.6575,2.7832,2.9754,2.8624,2.7419,2.6122,2.3577,2.2196,2.1594,2.0313,1.9811,1.9811,1.9811,1.9811,1.9811,1.9811,1.9811,1.9811,1.9811,1.9811,1.9914,2.0396,2.0966,0.0,0.0,0.0,2.472,2.7539,2.8577,2.9924,3.4502,3.6537,3.8212,4.1414,4.2731,4.3359,4.3539,4.318,4.3,4.3479,4.3958,4.3808,4.2381,4.2521,4.2491,4.1504,4.1422,4.1324,4.1145,4.1145,4.0995,4.0666,4.0786,4.0816,4.0636,4.0786,4.0876,4.0876,4.1025,4.1055,4.0876,4.1205,4.1332,4.1145,4.1991,4.289,4.3808,4.3988,4.4676,4.5771,4.5771,4.6262,4.707,4.7249,4.7219,4.707,4.7249,4.7309,4.7309,4.7309,4.7309,4.7399,4.8237,4.888,4.9419,0.0,0.0,0.0,0.0,0.0,0.0,0.0,0.0,0.0,0.0,0.0,0.0,0.0,1.7617,1.7402,1.7455,0.0,0.0,0.0,0.0,0.0,0.0,0.0,0.0,2.1543,2.1018,2.0742,2.0767,2.1242,2.2924,2.5661,2.6741,2.8147,2.9754,2.8624,2.7193,2.5536,2.3772,2.2744,2.2092,2.0464,1.9811,1.9811,1.9811,1.9811,1.9811,1.9811,1.9811,1.9811,1.9811,1.9811,1.9811,1.9862,2.0295,2.0845,0.0,0.0,0.0,2.4476,2.5794,2.741,3.0163,3.2796,3.5402,3.8033,3.9679,4.0786,4.1414,4.1504,4.1504,4.1534,4.1602,4.1602,4.1444,4.1474,4.1474,4.1384,4.1422,4.1145,4.0516,4.0457,3.9948,3.8661,3.914,3.926,3.8601,3.914,3.9529,3.9529,4.0127,4.0157,3.9493,4.0726,4.1085,4.0457,4.1752,4.244,4.25,4.309,4.3708,4.4407,4.4407,4.5125,4.6369,4.704,4.695,4.6369,4.704,4.7309,4.7309,4.7309,4.7309,4.7459,4.879,4.9269,4.9509,0.0,0.0,0.0,0.0,0.0,0.0,0.0,0.0,0.0,0.0,0.0,0.0,0.0,1.7871,1.7793,1.7793,1.8389,0.0,0.0,0.0,0.0,0.0,0.0,0.0,0.0,1.9524,1.9838,2.0691,2.0893,2.202,2.3998,2.4808,2.5686,2.664,2.7293,2.7042,2.5996,2.3226,2.197,2.1669,2.0338,1.9811,1.9811,1.9811,1.9811,1.9811,1.9811,1.9811,1.9811,1.9811,1.9811,1.9811,1.9811,2.0245,2.0968,2.1762,2.2351,2.2993,2.4323,2.4976,2.5848,2.8071,3.0032,3.1958,3.4113,3.6327,3.8063,3.8691,3.917,3.9469,3.9469,4.0157,4.0606,4.0187,3.9768,3.932,3.8901,3.8841,3.8751,3.8512,3.8482,3.8302,3.7793,3.7973,3.8033,3.7793,3.8003,3.8123,3.8123,3.8362,3.8571,3.8751,3.923,3.9768,4.0397,4.0876,4.1572,4.241,4.265,4.3269,4.4317,4.4317,4.4586,4.5095,4.6202,4.677,4.698,4.7219,4.7309,4.7309,4.7309,4.7309,4.7429,4.8297,4.894,4.9449,0.0,0.0,0.0,0.0,0.0,1.8008,1.8008,0.0,0.0,0.0,0.0,0.0,0.0,0.0,1.8008,1.8008,1.8529,1.8844,1.8844,1.8997,0.0,0.0,0.0,0.0,0.0,1.9049,1.9491,2.039,2.0591,2.1446,2.2844,2.3452,2.4104,2.4825,2.5561,2.6113,2.6323,2.3935,2.2774,2.2498,2.1167,2.0639,2.0639,2.0639,2.0765,2.0891,2.0715,2.0639,2.0614,2.0439,2.0238,2.0087,2.0087,2.0399,2.0968,2.1809,2.2207,2.2568,2.3464,2.3833,2.4423,2.6442,2.7771,2.9146,3.133,3.3395,3.513,3.6207,3.6956,3.7554,3.7973,3.8631,3.902,3.8781,3.8362,3.7913,3.7464,3.7404,3.7315,3.7135,3.7105,3.7015,3.6776,3.6776,3.6866,3.7075,3.7105,3.7195,3.7404,3.7404,3.7614,3.8033,3.8272,3.8811,3.9709,4.0187,4.0935,4.2081,4.2291,4.294,4.3947,4.3947,4.4107,4.4377,4.5244,4.6022,4.6651,4.713,4.7309,4.7309,4.7309,4.7309,4.7369,4.8027,4.8686,4.9419,0.0,1.8008,1.8008,1.8008,1.8008,1.8008,1.8008,1.8008,1.8008,1.8008,0.0,0.0,0.0,0.0,0.0,1.8047,1.8047,1.8047,1.8008,1.7617,0.0,0.0,0.0,0.0,1.9575,1.9693,1.9759,1.9836,2.039,2.1219,2.2246,2.2769,2.3622,2.465,2.3572,2.433,2.6348,2.5711,2.5184,2.4575,2.2924,2.2272,2.2322,2.2297,2.2594,2.2995,2.2443,2.2297,2.2196,2.1669,2.1169,2.0717,2.0691,2.0733,2.0771,2.0795,2.121,2.1687,0.0,0.0,0.0,2.4994,2.6016,2.7176,2.9744,3.0883,3.1929,3.3934,3.4891,3.5789,3.7015,3.6776,3.6596,3.7195,3.7315,3.7345,3.7345,3.7345,3.7135,3.6537,3.6447,3.6207,3.5579,3.5519,3.5759,3.6417,3.6447,3.6716,3.7315,3.7375,3.7375,3.7375,3.8033,3.8362,3.8392,3.9679,4.0696,4.1384,4.2081,4.2671,4.329,4.329,4.3648,4.4287,4.4317,4.4676,4.5364,4.6711,4.7279,4.7309,4.7309,4.7309,4.7369,4.8027,4.8686,4.9419,1.7598,1.7793,1.8008,1.8008,1.8008,1.8008,1.8008,1.8008,1.8008,0.0,0.0,0.0,1.8422,1.9023,1.9258,1.8965,1.8926,1.8672,1.8047,1.7617,1.7514,1.7723,1.7062,1.7497,1.9204,1.8562,1.8959,2.044,2.0189,2.0188,2.0514,2.1091,2.1719,2.2422,2.2498,2.307,2.3954,2.2598,2.2422,2.2869,2.1619,2.1594,2.2272,2.187,2.182,2.192,2.1769,2.1719,2.1694,2.1543,2.1393,2.1219,2.0817,2.0394,2.0169,2.0646,2.0919,0.0,2.104,0.0,0.0,0.0,0.0,0.0,2.5974,2.75,2.8966,3.0013,3.1509,3.2856,3.3693,3.4113,3.4382,3.4562,3.54,3.6028,3.6028,3.6028,3.5968,3.5789,3.5789,3.5699,3.5519,3.5519,3.5579,3.5759,3.5789,3.5848,3.6028,3.6477,3.6746,3.6746,3.7345,3.7913,3.8392,3.8751,3.9768,4.1422,4.1602,4.2252,4.329,4.329,4.3379,4.3589,4.4107,4.4407,4.4676,4.6022,4.686,4.7309,4.7309,4.7309,4.7369,4.8027,4.8686,4.9419,1.7695,1.7852,1.8066,1.8208,1.8418,1.8535,1.8535,1.8535,1.8535,0.0,0.0,0.0,1.8851,1.9512,1.9746,1.9316,1.9121,1.8809,1.8266,1.7715,1.7383,1.7383,1.7014,1.7378,1.8542,1.8268,1.8907,2.0471,1.9932,1.9821,2.0189,2.0289,2.049,2.079,2.1117,2.1415,2.1641,2.0715,2.1091,2.2297,2.2121,2.2297,2.2619,2.2573,2.2824,2.315,2.2698,2.2824,2.31,2.2397,2.202,2.1694,2.0943,2.0616,2.0543,2.0707,2.0914,0.0,0.0,0.0,2.2067,2.2412,0.0,0.0,2.4417,2.5318,2.6303,2.7509,2.8906,3.0163,3.112,3.1809,3.2258,3.2258,3.3365,3.4442,3.5011,3.531,3.5519,3.5519,3.5519,3.5519,3.5519,3.5519,3.5519,3.5519,3.5519,3.5519,3.5519,3.5878,3.6088,3.6088,3.6686,3.7195,3.7584,3.8123,3.911,4.0576,4.1115,4.1923,4.294,4.317,4.329,4.3319,4.3708,4.4047,4.4407,4.5454,4.6292,4.692,4.7189,4.7309,4.7369,4.8027,4.8686,4.9419,0.0,1.8008,1.8144,1.852,1.8965,1.9238,0.0,1.9316,1.9316,0.0,1.9141,1.9065,1.959,1.9941,1.9961,1.9531,1.9026,1.8695,1.8617,1.7891,1.7494,1.7494,1.763,1.7812,1.7978,1.8495,1.9231,2.0123,1.9559,1.9689,2.0424,1.9905,1.9657,1.9657,1.9759,1.9811,1.9811,1.9861,2.0765,2.2221,2.3301,2.3527,2.3271,2.3803,2.4556,2.5209,2.433,2.4582,2.5084,2.3597,2.2744,2.2146,2.1194,2.1169,2.1421,2.0943,2.1144,0.0,0.0,0.0,0.0,2.3254,2.3041,0.0,2.4267,2.412,2.4176,2.6003,2.6926,2.7764,2.9022,2.9834,3.0253,3.0193,3.136,3.2766,3.4114,3.4861,3.528,3.528,3.534,3.54,3.54,3.54,3.5429,3.5489,3.5519,3.5519,3.5519,3.5519,3.5519,3.5519,3.6058,3.6417,3.6477,3.7674,3.8661,3.9439,4.0666,4.1662,4.2321,4.294,4.32,4.32,4.326,4.3618,4.4257,4.4975,4.5693,4.6381,4.704,4.7309,4.7369,4.7967,4.8626,4.9389,1.8008,1.8008,1.8144,1.852,1.8676,1.8948,0.0,1.9512,1.9531,2.0273,2.0566,2.0976,2.1797,2.166,2.1328,2.0859,2.0079,1.9338,1.8656,1.8164,1.7891,1.7891,1.7612,1.7938,1.8983,1.8364,1.8594,1.9817,1.8944,1.8601,1.8771,1.8868,1.89,1.8927,1.9527,1.9811,1.9836,2.0339,2.0717,2.1069,2.1719,2.2723,2.3853,2.3954,2.3828,2.3622,2.3904,2.3828,2.3547,2.3221,2.2744,2.2272,2.2046,2.1769,2.1496,2.1368,2.1418,2.1493,2.1493,2.1605,2.1827,2.248,2.2538,0.0,2.3542,2.3636,2.3826,2.4796,2.5501,2.6243,2.7021,2.8158,2.8786,2.8274,2.9684,3.136,3.2706,3.3484,3.3873,3.3873,3.4352,3.4713,3.4713,3.4713,3.4921,3.5459,3.5519,3.5519,3.5519,3.5519,3.5519,3.5519,3.5639,3.5938,3.6477,3.7225,3.8212,3.9403,4.0217,4.0935,4.1632,4.2291,4.259,4.262,4.312,4.3349,4.3589,4.4796,4.5693,4.6381,4.704,4.7309,4.7309,4.7459,4.8237,4.9329,1.8008,1.8008,1.8203,1.8848,0.0,0.0,0.0,0.0,2.0488,2.1173,2.1602,2.1834,2.1834,2.1875,2.1621,2.0957,2.0293,1.9689,1.926,1.8637,1.8286,1.8286,1.791,1.7994,1.8664,1.8152,1.8432,1.9511,1.8736,1.8681,1.9252,1.9394,1.9187,1.8765,2.0069,2.0302,1.976,2.0705,2.127,2.1518,2.1794,2.2397,2.3175,2.3452,2.3547,2.3547,2.3547,2.3346,2.3145,2.3446,2.3376,2.305,2.2498,2.2523,2.2623,2.2071,2.2096,2.2322,2.2322,2.2322,2.2333,2.2342,2.2144,0.0,0.0,2.2355,2.2532,2.3868,2.4164,2.4463,2.5425,2.6129,2.6602,2.6602,2.7979,2.9415,3.0402,3.1689,3.2527,3.2527,3.2796,3.3155,3.3455,3.3484,3.3903,3.4921,3.4981,3.513,3.5489,3.5519,3.5519,3.5519,3.5519,3.5669,3.5998,3.6626,3.7434,3.8422,3.9439,4.0247,4.0935,4.1961,4.241,4.244,4.306,4.329,4.3379,4.4766,4.5514,4.5903,4.692,4.7309,4.7339,4.7668,4.8416,4.9359,1.8008,1.8008,1.8281,1.9141,0.0,0.0,0.0,0.0,2.1289,2.1816,2.2246,2.2246,2.1522,2.1719,2.1641,2.1036,2.0312,1.998,2.0156,1.9241,1.8715,1.8715,1.8437,1.8223,1.8125,1.8125,1.8407,1.9044,1.8524,1.8752,1.9664,1.9719,1.9407,1.883,2.0322,2.0632,2.002,2.0878,2.1652,2.2322,2.2322,2.2343,2.2493,2.307,2.3496,2.3778,2.3271,2.3095,2.317,2.3678,2.3828,2.3678,2.2749,2.31,2.3653,2.2719,2.2769,2.3095,2.3095,2.317,2.3145,2.2569,2.2221,2.1964,0.0,0.0,0.0,2.3178,2.3057,2.3026,2.4059,2.4425,2.4724,2.5166,2.6333,2.7375,2.7769,2.9298,3.0554,3.1062,3.1241,3.157,3.2228,3.2557,3.3095,3.4054,3.4354,3.4743,3.528,3.5429,3.5519,3.5519,3.5519,3.5519,3.5519,3.6148,3.6806,3.7434,3.8631,3.9559,4.0247,4.1482,4.2081,4.2261,4.2851,4.317,4.3379,4.4766,4.5304,4.5424,4.677,4.7309,4.7369,4.7908,4.8596,4.9389,1.8008,1.8008,1.8281,1.9141,0.0,0.0,0.0,0.0,2.0937,2.1777,2.2246,2.248,2.2383,2.207,2.1992,2.2266,2.084,2.0254,2.0995,1.9902,1.9219,1.9219,1.916,1.8965,1.8539,1.8539,1.8414,1.8144,1.7711,1.7573,1.774,1.7957,1.8416,1.9073,1.9133,1.9977,2.1253,2.0628,2.1112,2.2322,2.2322,2.2569,2.307,2.3678,2.3627,2.3195,2.312,2.3095,2.312,2.317,2.3195,2.317,2.3045,2.3095,2.317,2.3045,2.3045,2.3095,2.3095,2.3471,2.3753,2.3145,2.3376,2.3609,2.3206,0.0,2.23,2.2633,0.0,2.2746,2.29,0.0,0.0,2.3909,2.4956,2.5644,2.5143,2.5741,2.7171,2.9535,3.0283,3.0881,3.154,3.2706,3.3215,3.2766,3.3814,3.4533,3.4623,3.519,3.5519,3.5519,3.5519,3.5519,3.5519,3.6148,3.6806,3.7434,3.8153,3.8871,3.9559,4.0277,4.0935,4.1572,4.2231,4.2791,4.3379,4.4766,4.5304,4.5424,4.677,4.7309,4.7309,4.7399,4.8207,4.9329,1.8066,1.8203,1.8574,1.918,0.0,0.0,0.0,0.0,2.1836,2.2207,2.2617,2.2828,2.2828,2.2734,2.25,2.2168,2.1484,2.0996,2.0859,2.0098,1.9648,1.9648,1.9414,1.9082,1.8617,1.8598,1.8403,1.8008,1.7832,1.785,1.806,1.8476,1.8554,1.8412,1.9962,2.06,2.0612,2.151,2.2224,2.2769,2.2769,2.2895,2.312,2.3371,2.3321,2.3095,2.3095,2.3095,2.3095,2.3095,2.3321,2.3547,2.3221,2.3346,2.3547,2.3195,2.3095,2.3095,2.3095,2.3271,2.3421,2.317,2.3045,2.2959,2.277,2.2293,2.2103,2.2911,0.0,0.0,0.0,0.0,0.0,0.0,2.4335,2.4652,2.5096,2.5412,2.6153,2.7705,2.8068,2.8816,3.0253,3.121,3.1958,3.2437,3.3395,3.4114,3.4474,3.513,3.5519,3.5519,3.5519,3.5519,3.5519,3.5789,3.6237,3.6896,3.7524,3.8182,3.8871,3.9918,4.0756,4.1452,4.2111,4.2731,4.3379,4.4766,4.5304,4.5424,4.677,4.7309,4.7309,4.7309,4.7908,4.879,1.8418,1.8594,1.8909,1.9375,1.9707,0.0,0.0,2.168,2.2207,2.2324,2.2715,2.2964,2.3081,2.3262,2.3125,2.2617,2.2363,2.1953,2.1368,2.0644,2.0215,2.0098,1.9805,1.9434,1.8968,1.8831,1.8578,1.8149,1.8066,1.8101,1.8373,1.8767,1.8692,1.8291,2.0156,2.081,2.0564,2.2121,2.2917,2.312,2.3271,2.3246,2.3095,2.3095,2.3095,2.3095,2.3095,2.3095,2.3095,2.3095,2.3371,2.3678,2.3246,2.3396,2.3678,2.3221,2.3095,2.3095,2.3095,2.3221,2.3296,2.3145,2.292,2.2723,2.2543,2.2221,2.2166,2.2935,2.2872,0.0,0.0,0.0,2.3056,2.3833,0.0,2.366,2.44,2.4846,2.5479,2.6482,2.6901,2.7709,2.9175,2.9894,3.0731,3.1869,3.2587,3.3335,3.4204,3.4861,3.531,3.5489,3.5519,3.5519,3.5519,3.5519,3.5848,3.6507,3.7105,3.7764,3.8422,3.9589,4.0487,4.1145,4.1841,4.2462,4.318,4.4676,4.5304,4.5424,4.677,4.7309,4.7309,4.7309,4.7728,4.8386,1.9238,1.9258,1.9394,1.9824,1.9902,2.0059,2.0566,2.0977,2.1385,2.1855,2.2266,2.2695,2.3042,2.3516,2.3926,2.4297,2.353,2.3086,2.3129,2.1894,2.0996,2.0605,2.0566,2.0351,1.9883,1.9473,1.9043,1.8578,1.8169,1.8008,1.8022,1.8042,1.8476,1.9255,1.8848,1.9876,2.1862,2.2001,2.2432,2.3145,2.3753,2.3627,2.3095,2.3095,2.3095,2.3095,2.3095,2.3095,2.3095,2.3095,2.312,2.312,2.312,2.312,2.312,2.312,2.3095,2.3095,2.3095,2.3552,2.3828,2.3246,2.3552,2.3803,2.3221,2.307,2.2895,2.2451,2.2819,2.3114,2.2562,2.2962,2.3212,2.2735,2.2652,0.0,0.0,2.2937,2.4445,2.6374,2.7739,2.8577,2.8637,2.9235,2.9894,3.0522,3.1182,3.2138,3.3455,3.4174,3.4831,3.5489,3.5519,3.5519,3.5519,3.5519,3.5848,3.6507,3.7105,3.7764,3.8422,3.914,3.9798,4.0457,4.1115,4.1811,4.259,4.4496,4.5304,4.5424,4.677,4.7309,4.7309,4.7309,4.7728,4.8386,2.0116,2.0175,2.0116,1.9941,2.0156,2.0488,2.0937,2.1387,2.2012,2.3008,2.3516,2.416,2.5176,2.543,2.5449,2.5312,2.4746,2.4062,2.3203,2.2227,2.1465,2.1035,2.0723,2.039,1.9922,1.9785,1.9355,1.8598,1.8461,1.8247,1.8008,1.8008,1.8178,1.8462,1.8873,1.9468,2.028,2.1812,2.24,2.2365,2.3107,2.3521,2.3653,2.3246,2.3095,2.3095,2.3095,2.3095,2.3095,2.3095,2.3095,2.3095,2.3095,2.3095,2.3095,2.3095,2.3095,2.3095,2.3095,2.3246,2.3346,2.3145,2.3246,2.3346,2.3145,2.3396,2.3552,2.2945,2.333,2.3586,2.297,2.2763,2.2763,2.3017,2.2724,2.2534,0.0,2.3603,2.4418,2.5074,2.6788,2.7731,2.7196,2.8223,2.9166,2.9723,3.0863,3.2079,3.3425,3.4144,3.4801,3.5489,3.5519,3.5519,3.5519,3.5519,3.5609,3.5848,3.6477,3.7135,3.7764,3.8422,3.9349,4.0427,4.1085,4.1782,4.256,4.4496,4.5304,4.5424,4.677,4.7309,4.7309,4.7309,4.7429,4.7788,2.0546,2.0605,2.0507,2.0195,2.0508,2.0898,2.1151,2.1992,2.2852,2.3672,2.457,2.5449,2.6289,2.666,2.666,2.6181,2.5937,2.5078,2.3477,2.2871,2.2168,2.1229,2.0957,2.0664,2.0352,2.0078,1.9611,1.9046,1.8754,1.8461,1.8188,1.8086,1.8008,1.8008,1.8758,1.9122,1.9417,2.1241,2.1809,2.1534,2.2341,2.3077,2.3653,2.3246,2.3221,2.3371,2.317,2.3095,2.3095,2.3095,2.3095,2.3095,2.3095,2.3095,2.3095,2.3095,2.3095,2.3095,2.3095,2.3095,2.3095,2.3095,2.3095,2.3095,2.3095,2.3577,2.3828,2.3221,2.3602,2.3828,2.3221,2.2819,2.264,2.2899,2.262,2.2609,0.0,2.377,2.4123,2.434,2.5811,2.672,2.6441,2.7318,2.8186,2.905,3.018,3.142,3.2736,3.3634,3.4442,3.513,3.537,3.5519,3.5519,3.5519,3.5519,3.5519,3.6178,3.6806,3.7434,3.8093,3.899,4.0098,4.0995,4.1662,4.2201,4.4137,4.5095,4.5394,4.6531,4.71,4.7309,4.7309,4.7608,4.8117,2.0625,2.0664,2.0664,2.0664,2.0977,2.1229,2.1249,2.2715,2.3809,2.3887,2.5371,2.6445,2.6484,2.7207,2.7519,2.7109,2.707,2.6152,2.4062,2.3887,2.3105,2.1366,2.1268,2.1229,2.119,2.041,1.9941,1.9883,1.9026,1.8617,1.8559,1.8169,1.8008,1.8027,1.8383,1.8808,1.9285,2.0344,2.071,2.0732,2.1502,2.2304,2.3024,2.303,2.341,2.3866,2.3321,2.3095,2.3095,2.3095,2.3095,2.3095,2.3095,2.3095,2.3095,2.3095,2.3095,2.3095,2.3095,2.3095,2.3095,2.3095,2.3095,2.3095,2.3095,2.3577,2.3828,2.3221,2.3602,2.3828,2.3221,2.3095,2.292,2.2418,2.2347,2.2582,2.3295,2.3407,2.3589,2.4168,2.4879,2.555,2.6256,2.6416,2.705,2.839,2.9152,3.0105,3.1421,3.2706,3.3753,3.4474,3.516,3.5519,3.5519,3.5519,3.5519,3.5519,3.6148,3.6776,3.7434,3.8063,3.8721,3.9463,4.0816,4.1422,4.1534,4.3509,4.4706,4.5364,4.6052,4.6741,4.7309,4.7309,4.8147,4.9299,2.0996,2.1328,2.1584,2.1584,2.1641,2.1816,2.2129,2.3105,2.4141,2.5117,2.6191,2.709,2.7734,2.8008,2.8086,2.7969,2.7676,2.6992,2.5801,2.5145,2.4121,2.2734,2.2363,2.1853,2.121,2.0976,2.0391,1.9453,1.9219,1.8789,1.813,1.8066,1.8008,1.8008,1.8125,1.8208,1.8401,1.9734,2.0636,2.1171,2.1005,2.1298,2.1855,2.2114,2.2556,2.3062,2.3083,2.3095,2.3095,2.3095,2.3095,2.3095,2.3095,2.3095,2.3095,2.3095,2.3095,2.3095,2.3095,2.3095,2.3095,2.3095,2.3095,2.3095,2.3095,2.3577,2.3828,2.3221,2.3602,2.3828,2.3221,2.3095,2.3045,2.292,2.2895,2.2954,2.3137,2.3166,2.3217,2.3369,2.3603,2.3754,2.3959,2.5494,2.6621,2.6946,2.7994,2.9488,3.1392,3.216,3.316,3.4442,3.516,3.5519,3.5519,3.5519,3.5519,3.5519,3.5669,3.6327,3.7404,3.7584,3.8302,3.9463,4.0816,4.1422,4.1534,4.3509,4.4706,4.5364,4.6052,4.6741,4.7309,4.7309,4.8147,4.9299,2.1151,2.1738,2.2168,2.2168,2.2617,2.3008,2.3066,2.3633,2.4473,2.5538,2.6641,2.7402,2.7695,2.8066,2.8223,2.8027,2.7617,2.6934,2.5879,2.5527,2.4707,2.3266,2.293,2.2383,2.1543,2.1288,2.0781,1.9881,1.9473,1.9043,1.8555,1.8184,1.8008,1.8008,1.8008,1.8008,1.8061,1.8859,1.9687,2.0445,2.0151,2.0423,0.0,2.1247,2.1761,2.2376,2.2524,2.2793,2.3095,2.3095,2.3095,2.3095,2.3095,2.3095,2.3095,2.3095,2.3095,2.3095,2.3095,2.3095,2.3095,2.3095,2.3095,2.3095,2.3095,2.3346,2.3496,2.317,2.3371,2.3496,2.317,2.3095,2.3095,2.3095,2.3095,2.3095,2.3095,2.3095,2.3095,2.3095,2.3095,2.3095,2.3095,2.4568,2.5661,2.5938,2.6891,2.8254,3.0043,3.0947,3.2238,3.4023,3.4564,3.5034,3.5519,3.533,3.533,3.5519,3.5519,3.6178,3.7404,3.7404,3.8153,3.9463,4.0816,4.1422,4.1504,4.318,4.4436,4.5394,4.6381,4.698,4.7309,4.7309,4.8147,4.9299,2.1346,2.2009,2.2598,2.2598,2.3555,2.4277,2.4082,2.4453,2.4972,2.5674,2.6953,2.7559,2.707,2.7734,2.8047,2.7617,2.7226,2.6504,2.536,2.5547,2.5019,2.3443,2.3262,2.2812,2.1894,2.1504,2.1016,2.0429,1.9648,1.9238,1.9102,1.8359,1.8008,1.8008,1.8008,1.8008,1.8008,1.8066,1.8508,1.9193,1.9193,1.9658,2.0357,2.042,2.091,2.1596,2.1815,2.2402,2.3095,2.3095,2.3095,2.3095,2.3095,2.3095,2.3095,2.3095,2.3095,2.3095,2.3095,2.3095,2.3095,2.3095,2.3095,2.3095,2.3095,2.317,2.3195,2.312,2.317,2.3195,2.312,2.3095,2.3095,2.3095,2.3095,2.3095,2.3095,2.3095,2.3095,2.3095,2.3095,0.0,2.3095,2.3839,2.4567,2.5217,2.585,2.6803,2.8168,2.9489,3.1182,3.324,3.3751,3.4476,3.5499,3.518,3.518,3.5532,3.5514,3.6148,3.7285,3.7375,3.8093,3.9379,4.0756,4.1422,4.1474,4.2751,4.4107,4.5424,4.677,4.7309,4.7309,4.7309,4.8087,4.9209,2.2107,2.2652,2.2984,2.2984,2.3516,2.4238,2.5206,2.6055,2.6484,2.6289,2.7383,2.7891,2.7109,2.7461,2.7598,2.7168,2.7051,2.6777,2.6191,2.5898,2.5226,2.4238,2.3867,2.3105,2.1914,2.1816,2.1035,1.9512,1.9355,1.8926,1.8223,1.8086,1.8008,1.8008,1.8008,1.8008,1.8027,1.8344,1.8586,1.8725,1.8725,1.883,1.8978,1.9368,1.9617,1.9944,2.1385,2.2402,2.3095,2.3095,2.3095,2.3095,2.3095,2.3095,2.3095,2.3095,2.3095,2.3095,2.3095,2.3095,2.3095,2.3095,2.3095,2.3095,2.3095,2.3471,2.3703,2.3195,2.3496,2.3703,2.3195,2.3095,2.3095,2.3095,2.3095,2.3095,2.3095,2.3095,2.3095,2.3095,2.3095,2.3095,2.3095,2.3839,2.4337,2.4481,2.4983,2.5956,2.7329,2.8619,3.0259,3.2367,3.3728,3.481,3.5661,3.5516,3.5516,3.5661,3.5537,3.5908,3.6656,3.7165,3.7823,3.8691,4.0576,4.1422,4.1474,4.2751,4.4107,4.5424,4.677,4.7309,4.7309,4.7309,4.7788,4.8536,2.2672,2.2964,2.3159,2.3437,2.4219,2.5078,2.5937,2.6797,2.7207,2.6777,2.7051,2.7148,2.6738,2.6875,2.6914,2.6699,2.6484,2.6172,2.5742,2.5508,2.5,2.4141,2.3906,2.3184,2.1914,2.1894,2.125,1.9979,1.9512,1.9082,1.8652,1.8223,1.8008,1.8008,1.8008,1.8008,1.8047,1.8422,1.8598,1.8598,1.8598,1.8598,1.8594,1.8622,1.8911,1.9387,2.0236,2.1385,2.2549,2.2944,2.3095,2.3095,2.3095,2.3095,2.3095,2.3095,2.3095,2.3095,2.3095,2.3095,2.3095,2.3095,2.3095,2.3095,2.3095,2.3321,2.3521,2.3547,2.3547,2.3421,2.3145,2.3346,2.3446,2.3145,2.3346,2.3446,2.3145,2.3095,2.3095,2.3095,2.3095,2.3095,2.3095,2.3454,2.3691,2.3691,2.3919,2.4801,2.6523,2.7213,2.8986,3.2115,3.2713,3.383,3.558,3.5317,3.5317,3.561,3.5525,3.6028,3.6985,3.7285,3.7973,3.902,4.0666,4.1422,4.1534,4.3539,4.4736,4.5424,4.677,4.7309,4.7309,4.7309,4.7728,4.8386,2.3159,2.3237,2.3374,2.3848,2.4844,2.5781,2.6309,2.6953,2.7305,2.7051,2.6719,2.6445,2.6269,2.6328,2.6309,2.6133,2.5801,2.541,2.4961,2.4891,2.4538,2.3828,2.3691,2.3086,2.1914,2.1894,2.1406,2.0468,1.9746,1.9375,1.9277,1.8496,1.8144,1.8144,1.8144,1.8203,1.8301,1.8695,1.887,1.887,1.887,1.8812,1.8695,1.8301,1.8508,1.9044,1.9243,2.0171,2.1479,2.2519,2.2944,2.3095,2.3095,2.3095,2.3095,2.3095,2.3095,2.3095,2.3095,2.3095,2.3095,2.3095,2.3095,2.3095,2.3095,2.3195,2.3371,2.3753,2.3521,2.3321,2.3446,2.3778,2.3879,2.3521,2.3747,2.3828,2.3346,2.3296,2.3246,2.312,2.3095,2.3095,2.3095,2.3095,2.3095,2.3095,2.3221,2.4035,2.572,2.6095,2.7917,3.1504,3.1505,3.2567,3.4884,3.4571,3.4704,3.5247,3.5333,3.6008,3.7225,3.7494,3.8182,3.926,4.0606,4.1324,4.1811,4.4257,4.5304,4.5424,4.677,4.7309,4.7309,4.7309,4.7728,4.8386,2.3633,2.373,2.3867,2.4277,2.4785,2.541,2.6269,2.6465,2.6621,2.6973,2.6973,2.666,2.583,2.6152,2.6074,2.5302,2.5204,2.4941,2.4512,2.4121,2.3867,2.3789,2.3418,2.2793,2.1894,2.1894,2.125,1.998,1.9883,1.9668,1.9277,1.8754,1.8539,1.8539,1.8539,1.8754,1.9199,1.9609,1.9785,1.9785,1.9785,1.957,1.918,1.8715,1.8374,1.8245,1.9011,1.9408,1.9781,2.1447,2.2519,2.3095,2.3095,2.3095,2.3095,2.3095,2.3095,2.3095,2.3095,2.3095,2.3095,2.3095,2.3095,2.3095,2.3095,2.3521,2.3778,2.3296,2.3572,2.4079,2.455,2.4305,2.4155,2.455,2.428,2.3979,2.3929,2.3929,2.3728,2.317,2.3095,2.3095,2.3095,2.3095,2.3095,2.3095,2.3627,2.4211,2.4879,2.6109,2.7735,2.9712,3.0481,3.1572,3.3046,3.2873,3.3337,3.4427,3.4847,3.558,3.6596,3.7764,3.8362,3.8571,3.9918,4.1175,4.247,4.4466,4.5304,4.5424,4.677,4.7309,4.7309,4.7309,4.7728,4.8386,2.4121,2.416,2.4297,2.4727,2.5176,2.5684,2.6289,2.6387,2.6445,2.6621,2.6641,2.6504,2.6172,2.582,2.5497,2.5145,2.4824,2.4492,2.4062,2.3887,2.3672,2.3418,2.3198,2.2711,2.1894,2.1894,2.1367,2.0312,2.0039,1.9824,1.9648,1.9238,1.9023,1.9023,1.9023,1.9121,1.9316,1.9746,1.9922,1.9922,1.9922,1.9668,1.9238,1.8773,1.8344,1.8042,1.8395,1.8844,1.9408,2.0107,2.1259,2.2457,2.2944,2.3095,2.3095,2.3095,2.3095,2.3095,2.3095,2.3095,2.3095,2.3095,2.3095,2.3195,2.3547,2.3547,2.3572,2.4023,2.4299,2.4456,2.4356,2.4682,2.4933,2.48,2.4908,2.4732,2.4079,2.4004,2.3778,2.317,2.3095,2.3095,2.3095,2.3095,2.3246,2.3597,2.3879,2.423,2.475,2.5637,2.7185,2.9434,2.9835,3.0894,3.2651,3.2626,3.2806,3.3266,3.3485,3.4158,3.5253,3.6445,3.8168,4.0217,4.0756,4.1743,4.303,4.4227,4.4945,4.5394,4.6352,4.695,4.7309,4.7309,4.7489,4.7848,2.459,2.4609,2.4746,2.5195,2.5527,2.583,2.6328,2.6289,2.625,2.6367,2.6269,2.6191,2.6191,2.5644,2.5215,2.5125,2.4668,2.4238,2.3828,2.3672,2.3457,2.3101,2.3101,2.2711,2.1894,2.1894,2.1486,2.0605,2.0254,2.0098,2.0098,1.9668,1.9473,1.9473,1.9473,1.9531,1.9687,1.998,2.0098,2.0098,1.9961,1.9668,1.9238,1.8773,1.8344,1.8008,1.8008,1.8395,1.8944,1.921,2.0107,2.1322,2.2402,2.2763,2.2793,2.3035,2.3095,2.3095,2.3095,2.3095,2.3095,2.3095,2.3095,2.3271,2.3879,2.3678,2.3672,2.4775,2.4901,2.4808,2.4732,2.4933,2.5159,2.5285,2.5209,2.4933,2.433,2.4104,2.3778,2.317,2.3095,2.317,2.3346,2.3346,2.3597,2.4205,2.4381,2.4632,2.5034,2.5711,2.7036,2.9038,2.9246,3.0118,3.1756,3.1792,3.1938,3.2191,3.2545,3.3293,3.4454,3.5886,3.7915,4.0372,4.1091,4.1893,4.2851,4.3898,4.4706,4.5364,4.6052,4.6741,4.7309,4.7309,4.7429,4.7758,2.5028,2.5106,2.5195,2.5596,2.5693,2.583,2.6328,2.6016,2.5849,2.6328,2.6016,2.5693,2.5693,2.5693,2.5547,2.5145,2.4668,2.4238,2.3828,2.3379,2.3101,2.3101,2.3101,2.2711,2.1894,2.1894,2.1486,2.0605,2.0605,2.0605,2.0586,2.0117,1.9902,1.9902,1.9902,2.0137,2.0586,2.0586,2.0605,2.0566,2.0078,1.9668,1.9238,1.8773,1.8344,1.8008,1.8008,1.8008,1.8144,1.9011,1.9309,1.9617,2.1376,2.1908,2.2063,2.2884,2.3095,2.3095,2.3095,2.3095,2.3095,2.3095,2.3095,2.3271,2.3879,2.3979,2.428,2.536,2.5184,2.5159,2.6273,2.5141,2.4556,2.6223,2.5116,2.4205,2.47,2.433,2.3778,2.317,2.3095,2.3321,2.3929,2.3979,2.423,2.475,2.5285,2.5586,2.5586,2.664,2.7519,2.8097,2.8624,2.9202,2.9818,2.9818,3.033,3.123,3.2431,3.3492,3.4481,3.676,3.7776,3.7967,4.0372,4.1384,4.1564,4.3509,4.4706,4.5364,4.6052,4.6741,4.7309,4.7309,4.7728,4.8356,2.5488,2.5527,2.5566,2.5674,2.5693,2.5732,2.5918,2.5771,2.5732,2.5869,2.5771,2.5693,2.5693,2.5469,2.5098,2.4668,2.4238,2.3809,2.3335,2.3179,2.3101,2.3101,2.3101,2.2711,2.1894,2.1894,2.1486,2.0605,2.0605,2.0605,2.0605,2.0468,2.039,2.039,2.039,2.0468,2.0605,2.0605,2.0605,2.0586,2.0449,1.9922,1.9277,1.9141,1.8633,1.8008,1.8008,1.8008,1.8042,1.8327,1.8395,1.863,1.9748,2.0942,2.1939,2.2187,2.2671,2.3095,2.3095,2.3095,2.3095,2.3095,2.3396,2.3879,2.4431,2.4833,2.5084,2.5084,2.5209,2.5335,2.5335,2.5209,2.5259,2.5787,2.5134,2.4732,2.5285,2.4582,2.4079,2.4224,2.3954,2.3954,2.4474,2.4556,2.4782,2.531,2.5511,2.5586,2.5586,2.6666,2.7544,2.8097,2.8612,2.9202,2.9779,2.9804,2.9934,3.0254,3.0994,3.2306,3.4043,3.5169,3.6726,3.8534,3.8974,4.0282,4.2094,4.232,4.3573,4.5304,4.5544,4.6322,4.7309,4.7309,4.7429,4.7788,2.5693,2.5693,2.5693,2.5693,2.5693,2.5693,2.5693,2.5693,2.5693,2.5693,2.5693,2.5693,2.5693,2.5332,2.5008,2.4687,2.4121,2.3672,2.3398,2.3179,2.3101,2.3101,2.3101,2.2769,2.2129,2.1973,2.1543,2.082,2.0683,2.0605,2.0605,2.0605,2.0605,2.0605,2.0605,2.0605,2.0605,2.0605,2.0605,2.0586,2.0429,2.0,1.9492,1.916,1.8711,1.8223,1.8066,1.8008,1.8008,1.8008,1.8008,1.811,1.863,1.9781,2.0974,2.1322,2.1784,2.2156,2.2156,2.2156,2.2156,2.2156,2.2428,2.2886,2.3577,2.43,2.4709,2.4362,2.442,2.4468,2.4338,2.4275,2.4348,2.4733,2.4496,2.4329,2.4681,2.4307,2.413,2.4481,2.4205,2.428,2.5034,2.5109,2.5335,2.5921,2.6113,2.6239,2.6239,2.7092,2.7846,2.8398,2.8976,2.9528,3.0105,3.0105,3.0105,3.0105,3.0658,3.193,3.3887,3.4432,3.575,3.7582,3.7937,3.9341,4.143,4.1529,4.2889,4.4945,4.5185,4.5963,4.695,4.7219,4.7309,4.7459,2.5693,2.5693,2.5693,2.5693,2.5693,2.5693,2.5693,2.5693,2.5693,2.5693,2.5693,2.5693,2.5693,2.5312,2.5067,2.5067,2.4258,2.3769,2.375,2.3315,2.3101,2.3101,2.3101,2.2886,2.248,2.209,2.166,2.1151,2.0762,2.0605,2.0605,2.0605,2.0605,2.0605,2.0605,2.0605,2.0605,2.0605,2.0605,2.0566,2.0117,1.9941,1.9824,1.8968,1.8617,1.8539,1.813,1.8008,1.8008,1.8008,1.8008,1.8008,1.8008,1.8563,1.9354,2.0236,2.0558,2.059,2.059,2.059,2.059,2.0635,2.068,2.0994,2.1901,2.2818,2.3526,2.3526,2.3109,2.2894,2.3355,2.259,2.2234,2.322,2.3248,2.3128,2.3199,2.3635,2.3935,2.3985,2.4073,2.4531,2.5561,2.5661,2.5887,2.6499,2.7027,2.7318,2.7394,2.7871,2.8361,2.8863,2.9528,3.0105,3.0608,3.0658,3.0683,3.0733,3.121,3.229,3.3866,3.4354,3.491,3.559,3.7121,3.8544,3.9819,4.1015,4.2532,4.4255,4.4994,4.5723,4.6411,4.707,4.7309,4.7399,2.5693,2.5693,2.5693,2.5693,2.5693,2.5693,2.5693,2.5693,2.5693,2.5693,2.5693,2.5693,2.5693,2.5039,2.457,2.457,2.4102,2.3652,2.3276,2.3159,2.3101,2.3101,2.3101,2.275,2.2051,2.1934,2.1504,2.0723,2.0664,2.0605,2.0605,2.0605,2.0605,2.0605,2.0605,2.0605,2.0605,2.0605,2.0605,2.0586,2.0488,2.0215,1.9863,1.9336,1.8926,1.8539,1.813,1.8008,1.8008,1.8008,1.8008,1.8008,1.8008,1.8144,1.8496,1.9354,2.0074,2.059,2.059,2.059,2.068,2.0973,2.1643,2.2358,2.2997,2.331,2.3526,2.3526,2.3377,2.322,2.2938,2.238,2.2045,2.2326,2.1744,2.1524,2.2366,2.2775,2.3329,2.4135,2.4822,2.5485,2.6223,2.6298,2.6524,2.7077,2.7253,2.7645,2.8499,2.8637,2.8762,2.8888,2.9866,3.0482,3.0608,3.1009,3.1411,3.1838,3.1964,3.2466,3.3312,3.3419,3.422,3.5489,3.5486,3.6847,3.9187,3.9968,4.1369,4.3173,4.4715,4.5723,4.6411,4.707,4.7309,4.7399,2.5693,2.5693,2.5693,2.5693,2.5693,2.5693,2.5693,2.5693,2.5693,2.5693,2.5693,2.5693,2.5693,2.4894,2.4414,2.4414,2.3848,2.3354,2.312,2.3101,2.3101,2.3101,2.3101,2.2789,2.2187,2.1973,2.1486,2.0605,2.0605,2.0605,2.0605,2.0605,2.0605,2.0605,2.0605,2.0605,2.0605,2.0605,2.0605,2.0605,2.0605,2.0468,2.0156,1.9727,1.9434,1.9104,1.8481,1.8266,1.8266,1.8266,1.8266,1.8286,1.8535,1.8594,1.866,1.8906,1.9176,1.9387,1.9387,1.9387,1.9514,1.9889,2.0744,2.1481,2.1771,2.204,2.2151,2.2151,2.2151,2.2087,2.1797,2.1523,2.1292,2.1081,2.1161,2.1303,2.1459,2.2196,2.2901,2.3491,2.463,2.5546,2.6121,2.6831,2.7344,2.7645,2.7896,2.8298,2.8863,2.9176,2.9327,2.9327,3.0156,3.0733,3.0959,3.1512,3.2164,3.2968,3.2466,3.2767,3.3822,3.3571,3.3944,3.477,3.4996,3.6089,3.7849,3.8742,3.9991,4.1596,4.3728,4.4768,4.5253,4.6748,4.7309,4.7369,2.5693,2.5693,2.5693,2.5693,2.5693,2.5693,2.5693,2.5693,2.5693,2.5693,2.5693,2.5654,2.5644,2.4902,2.4394,2.4316,2.3549,2.3101,2.3101,2.3101,2.3101,2.3101,2.3101,2.2906,2.2519,2.2031,2.1387,2.0605,2.0605,2.0605,2.0605,2.0605,2.0605,2.0605,2.0605,2.0605,2.0605,2.0605,2.0605,2.0605,2.0605,2.0605,2.0566,2.0078,1.9922,1.9805,1.8987,1.8695,1.8695,1.8695,1.8695,1.8773,1.916,1.9297,1.9219,1.8812,1.8442,1.8184,1.8125,1.8203,1.8379,1.8715,1.9434,2.0019,2.0019,2.0293,2.0605,2.0605,2.0605,2.0605,2.0605,2.0507,2.0292,1.9883,2.0754,2.1192,2.0389,2.1582,2.2523,2.259,2.3961,2.5145,2.5861,2.7103,2.7939,2.8186,2.8637,2.8963,2.9139,2.9654,2.9955,3.003,3.0482,3.1035,3.1637,3.2114,3.2867,3.3897,3.2918,3.3269,3.4655,3.4248,3.4022,3.4073,3.5056,3.5819,3.6429,3.764,3.8827,4.0154,4.2638,4.369,4.4123,4.6456,4.7309,4.7309,2.5693,2.5693,2.5693,2.5693,2.5693,2.5693,2.5693,2.5693,2.5693,2.5693,2.5693,2.5586,2.5215,2.4727,2.4277,2.3926,2.3437,2.3101,2.3101,2.3101,2.3101,2.3101,2.3101,2.2906,2.2519,2.1697,2.1074,2.0605,2.0605,2.0605,2.0605,2.0605,2.0605,2.0605,2.0605,2.0605,2.0605,2.0605,2.0605,2.0605,2.0605,2.0605,2.0566,2.0078,1.9922,1.9844,1.9355,1.918,1.918,1.918,1.918,1.9199,1.9258,1.9297,1.9277,1.9199,1.9141,1.9004,1.8598,1.9026,1.9629,1.967,2.0098,2.0507,2.0507,2.0566,2.0605,2.0605,2.0605,2.0605,2.0605,2.0018,1.9453,1.9394,1.9229,1.91,1.8927,2.0463,2.1712,2.2057,2.3429,2.4883,2.6245,2.6614,2.7306,2.8675,2.8838,2.9314,3.0267,3.0432,3.0683,3.1135,3.1235,3.1763,3.286,3.2893,3.3269,3.3897,3.3721,3.4022,3.468,3.4625,3.46,3.4625,3.5232,3.5571,3.575,3.7391,3.8827,4.0154,4.2638,4.4192,4.5245,4.6758,4.7309,4.7309,2.5693,2.5693,2.5693,2.5693,2.5693,2.5693,2.5693,2.5693,2.5693,2.5693,2.5693,2.5615,2.5449,2.4824,2.4336,2.4141,2.3516,2.3101,2.3101,2.3101,2.3101,2.3101,2.3101,2.2906,2.2519,2.1639,2.1093,2.0918,2.0723,2.0605,2.0605,2.0605,2.0605,2.0605,2.0605,2.0605,2.0605,2.0605,2.0605,2.0605,2.0605,2.0605,2.0586,2.037,2.0273,2.0215,1.9785,1.9629,1.9629,1.9629,1.9629,1.9668,1.9902,2.0018,1.9959,1.9687,1.9473,1.9238,1.9043,1.9434,1.9922,1.9922,2.0234,2.0664,2.0879,2.0918,2.0996,2.123,2.1094,2.0918,2.0918,2.041,1.994,1.9668,1.9648,1.959,1.9355,2.0436,2.1363,2.1526,2.3124,2.4469,2.5187,2.6565,2.7645,2.8417,2.9046,2.9754,3.0583,3.0608,3.0984,3.1813,3.1838,3.224,3.3111,3.3111,3.3495,3.4349,3.4048,3.4349,3.5132,3.5132,3.4956,3.4731,3.5604,3.5805,3.5579,3.6688,3.752,3.8304,4.103,4.2649,4.369,4.5925,4.701,4.7309,2.5693,2.5693,2.5693,2.5693,2.5693,2.5693,2.5693,2.5693,2.5693,2.5693,2.5693,2.5654,2.5586,2.4883,2.4375,2.4277,2.353,2.3101,2.3101,2.3101,2.3101,2.3101,2.3101,2.2906,2.2519,2.1834,2.1444,2.1346,2.1035,2.086,2.0723,2.0723,2.0703,2.0605,2.0605,2.0605,2.0605,2.0605,2.0605,2.0605,2.0605,2.0605,2.0605,2.0605,2.0605,2.0566,2.0195,2.0059,2.0059,2.0059,2.0059,2.0117,2.0507,2.0605,2.0546,2.0156,1.9844,1.9607,1.9453,1.9746,2.0059,2.0059,2.0391,2.082,2.1112,2.1268,2.1444,2.1816,2.1621,2.1346,2.1346,2.0937,2.0488,2.0117,2.0352,2.0488,2.0117,2.082,2.1385,2.1483,2.2858,2.395,2.4304,2.6132,2.7562,2.8044,2.891,2.982,3.0718,3.0809,3.1286,3.2365,3.2416,3.2616,3.3111,3.3194,3.3746,3.468,3.4424,3.4801,3.5683,3.5683,3.5382,3.4931,3.5931,3.6056,3.5533,3.6132,3.6546,3.7041,3.9607,4.1239,4.2531,4.5113,4.6602,4.7309,2.5693,2.5693,2.5693,2.5693,2.5693,2.5693,2.5693,2.5693,2.5693,2.5693,2.5693,2.5586,2.5156,2.4707,2.4258,2.3867,2.3418,2.3101,2.3101,2.3101,2.3101,2.3101,2.3101,2.2906,2.2519,2.2441,2.2227,2.1836,2.1797,2.1582,2.1151,2.1151,2.0957,2.0605,2.0605,2.0605,2.0605,2.0605,2.0605,2.0605,2.0605,2.0605,2.0605,2.0605,2.0605,2.0605,2.0566,2.0566,2.0566,2.0566,2.0566,2.0566,2.0586,2.0605,2.0605,2.0566,2.0527,2.0429,1.998,2.0195,2.0566,2.0566,2.0859,2.1151,2.119,2.1543,2.1855,2.1875,2.1855,2.1836,2.1836,2.1173,2.0586,2.0566,2.0586,2.0586,2.0566,2.1289,2.1973,2.2383,2.2546,2.319,2.4618,2.4935,2.59,2.7964,2.8164,2.9124,3.122,3.1336,3.1838,3.3011,3.3018,3.3086,3.3111,3.3596,3.4148,3.4726,3.5157,3.573,3.6355,3.6355,3.6006,3.5483,3.6107,3.6056,3.5533,3.6132,3.701,3.8076,3.9415,4.1398,4.3617,4.4989,4.627,4.7309,2.6133,2.6348,2.6445,2.6191,2.6133,2.6055,2.5732,2.5693,2.5693,2.5693,2.5693,2.5615,2.5508,2.5078,2.4746,2.459,2.3945,2.3535,2.3535,2.3237,2.3101,2.3101,2.3101,2.3023,2.2867,2.2637,2.2441,2.2266,2.2012,2.1797,2.1641,2.1327,2.1112,2.0977,2.0723,2.0605,2.0605,2.0605,2.0605,2.0605,2.0605,2.0605,2.0605,2.0605,2.0605,2.0605,2.0605,2.0605,2.0605,2.0605,2.0605,2.0605,2.0605,2.0605,2.0605,2.0605,2.0762,2.0937,2.0742,2.0859,2.1035,2.1309,2.1523,2.1699,2.1973,2.2148,2.2344,2.2617,2.2461,2.2266,2.2266,2.1797,2.1427,2.1427,2.1427,2.1427,2.1427,2.1894,2.2344,2.25,2.2734,2.3079,2.3694,2.4382,2.5168,2.5983,2.6937,2.8355,3.0282,3.1704,3.2641,3.3111,3.3395,3.3596,3.3596,3.4148,3.47,3.5182,3.5408,3.583,3.6405,3.6405,3.6279,3.6056,3.6329,3.6279,3.6081,3.6329,3.6662,3.7155,3.8332,3.9838,4.1553,4.3548,4.5067,4.6211,2.6191,2.6406,2.6523,2.623,2.6191,2.6074,2.5732,2.5693,2.5693,2.5693,2.5693,2.5693,2.5693,2.5332,2.5067,2.4863,2.4199,2.373,2.3594,2.3257,2.3101,2.3101,2.3101,2.3101,2.3101,2.2808,2.2672,2.2672,2.2422,2.2207,2.207,2.1777,2.1444,2.119,2.0918,2.0742,2.0605,2.0605,2.0605,2.0605,2.0605,2.0605,2.0605,2.0605,2.0605,2.0605,2.0605,2.0605,2.0605,2.0605,2.0605,2.0605,2.0605,2.0605,2.0625,2.0742,2.0996,2.1249,2.1522,2.16,2.168,2.1836,2.1973,2.2168,2.2441,2.2617,2.275,2.3042,2.2867,2.2672,2.2672,2.2363,2.209,2.209,2.209,2.209,2.209,2.2441,2.2672,2.2672,2.2925,2.3101,2.3101,2.38,2.4425,2.4787,2.5894,2.7383,2.9312,3.138,3.2525,3.2525,3.3595,3.4148,3.4148,3.4655,3.5132,3.5508,3.5683,3.6006,3.6405,3.6405,3.6405,3.6405,3.6405,3.6405,3.6405,3.6405,3.6405,3.6524,3.7629,3.8809,4.016,4.2214,4.401,4.5553,2.5693,2.5693,2.5693,2.5693,2.5693,2.5693,2.5693,2.5693,2.5693,2.5693,2.5693,2.5693,2.5693,2.5332,2.4902,2.4473,2.4043,2.3613,2.312,2.3101,2.3101,2.3101,2.3101,2.3101,2.3101,2.3101,2.3101,2.3101,2.3101,2.2886,2.2477,2.2477,2.2009,2.117,2.119,2.0937,2.0566,2.0566,2.0605,2.0605,2.0605,2.0605,2.0605,2.0605,2.0605,2.0605,2.0605,2.0605,2.0605,2.0605,2.0605,2.0605,2.0605,2.0605,2.0703,2.1113,2.121,2.1385,2.2285,2.2519,2.2422,2.1992,2.2207,2.2519,2.2519,2.2789,2.3101,2.3101,2.3101,2.3101,2.3101,2.275,2.2519,2.2519,2.2519,2.2519,2.2519,2.2828,2.3101,2.3101,2.3101,2.3101,2.3101,2.3101,2.3541,2.4702,2.5185,2.6341,2.8478,3.0274,3.1178,3.1223,3.3473,3.468,3.4726,3.5232,3.5508,3.5508,3.6107,3.6405,3.6405,3.6405,3.6405,3.6405,3.6405,3.6405,3.6405,3.6405,3.6405,3.6505,3.7563,3.8771,4.0029,4.1142,4.3218,4.5343,2.6191,2.6426,2.6543,2.625,2.6191,2.6094,2.5732,2.5693,2.5693,2.5693,2.5693,2.5693,2.5693,2.5577,2.5488,2.5304,2.4668,2.3926,2.314,2.3101,2.3101,2.3101,2.3101,2.3101,2.3101,2.3101,2.3101,2.3101,2.2271,2.178,2.1625,2.05,1.9817,1.9471,1.9037,1.8742,1.8678,1.9534,1.9731,1.9587,2.0582,2.084,2.0605,2.0605,2.0605,2.0644,2.0918,2.1035,2.1035,2.1035,2.1035,2.1035,2.1035,2.1035,2.1113,2.1562,2.1894,2.2187,2.2441,2.2734,2.2886,2.275,2.2808,2.2906,2.2906,2.3003,2.3101,2.3101,2.3101,2.3101,2.3101,2.2984,2.2906,2.2906,2.2906,2.2906,2.2906,2.3023,2.3101,2.3101,2.3101,2.3101,2.3101,2.3101,2.3256,2.3584,2.5104,2.6415,2.7348,2.9013,3.0535,3.177,3.2873,3.4029,3.5257,3.5855,3.6107,3.6107,3.6329,3.6405,3.6405,3.6405,3.6405,3.6405,3.6405,3.6405,3.6405,3.6405,3.6405,3.648,3.7161,3.7882,3.8777,4.0428,4.1785,4.2978,2.6133,2.6328,2.6426,2.6172,2.6133,2.6035,2.5732,2.5693,2.5693,2.5693,2.5693,2.5615,2.5488,2.5577,2.5538,2.5206,2.468,2.4121,2.3437,2.3398,2.3276,2.3101,2.2624,2.2403,2.2403,2.2862,2.2862,2.2403,2.1658,2.1302,2.1284,1.9805,1.9011,1.8802,1.8376,1.8097,1.8009,1.8726,1.8835,1.8644,1.995,2.0301,2.0001,2.045,2.0723,2.0859,2.1093,2.1307,2.1504,2.1504,2.1504,2.1504,2.1504,2.1504,2.1582,2.2012,2.2305,2.2539,2.2672,2.2906,2.3101,2.3101,2.3101,2.3101,2.3101,2.3101,2.3101,2.3101,2.3101,2.3101,2.3101,2.3101,2.3101,2.3101,2.3101,2.3101,2.3101,2.3101,2.3101,2.3101,2.3101,2.3101,2.3101,2.3101,2.3159,2.3379,2.4726,2.5722,2.6192,2.7772,2.9183,3.0284,3.1995,3.3403,3.444,3.5722,3.6405,3.6405,3.6405,3.6405,3.6405,3.6405,3.6405,3.6405,3.6405,3.6405,3.6405,3.6405,3.6405,3.6455,3.696,3.7513,3.8164,3.9537,4.0723,4.1838,2.5693,2.5693,2.5693,2.5693,2.5693,2.5693,2.5693,2.5693,2.5693,2.5693,2.5693,2.5586,2.5176,2.5488,2.5343,2.4551,2.4434,2.4238,2.3828,2.3789,2.3613,2.3179,2.1961,2.1257,2.115,2.2227,2.2227,2.115,2.1016,2.0971,2.0926,1.9753,1.8953,1.8556,1.8523,1.8286,1.7953,1.8067,1.7959,1.7802,1.8922,1.9245,1.9185,2.0194,2.0858,2.1268,2.1288,2.1602,2.1934,2.1934,2.1914,2.1894,2.1934,2.1934,2.2031,2.2441,2.2559,2.2656,2.2984,2.3101,2.3101,2.3101,2.3101,2.3101,2.3101,2.3101,2.3101,2.3101,2.3101,2.3101,2.3101,2.3101,2.3101,2.3101,2.3101,2.3101,2.3101,2.3101,2.3101,2.3101,2.3101,2.3101,2.3101,2.3101,2.3276,2.375,2.418,2.4609,2.5086,2.6594,2.7526,2.7641,3.0924,3.2746,3.2981,3.5194,3.6355,3.6405,3.6405,3.6405,3.6405,3.6405,3.6405,3.6405,3.6405,3.6405,3.6405,3.6405,3.6405,3.6455,3.696,3.7487,3.8015,3.8642,3.9953,4.139,2.5693,2.5693,2.5693,2.5693,2.5693,2.5693,2.5693,2.5693,2.5693,2.5693,2.5693,2.5654,2.5605,2.5635,2.5527,2.498,2.4609,2.4238,2.3828,2.3789,2.375,2.3652,2.2154,2.0836,1.9889,2.0133,2.0133,1.9889,1.8948,1.8503,1.8457,1.7203,1.6532,1.6448,1.6211,1.6071,1.606,1.7011,1.7217,1.6985,1.8387,1.9264,1.9817,2.0025,2.078,2.1797,2.2129,2.2305,2.2383,2.2383,2.2168,2.1953,2.2266,2.2383,2.2461,2.2847,2.2964,2.2984,2.3081,2.3101,2.3101,2.3101,2.3101,2.3101,2.3101,2.3101,2.3101,2.3101,2.3101,2.3101,2.3101,2.3101,2.3101,2.3101,2.3101,2.3101,2.3101,2.3101,2.3101,2.3101,2.3101,2.3101,2.3101,2.3101,2.3276,2.375,2.418,2.4609,2.5086,2.5729,2.6782,2.8172,2.9872,3.1668,3.3505,3.4974,3.5931,3.6405,3.6405,3.6405,3.6405,3.6405,3.6405,3.6405,3.6405,3.6405,3.6405,3.6405,3.6405,3.6455,3.696,3.7262,3.7487,3.8492,3.9146,3.9826,2.5693,2.5693,2.5693,2.5693,2.5693,2.5693,2.5693,2.5693,2.5693,2.5693,2.5693,2.5615,2.5449,2.5605,2.5644,2.541,2.5176,2.4562,2.3514,2.4071,2.3694,2.2007,2.1133,2.0075,1.8688,1.8041,1.8041,1.8642,1.801,1.7684,1.7684,1.6386,1.5784,1.5771,1.5671,1.5605,1.5651,1.6276,1.6324,1.6145,1.7401,1.8105,1.8433,1.8965,2.0025,2.1367,2.1575,2.2145,2.2812,2.2812,2.2676,2.2519,2.2734,2.2812,2.2808,2.3042,2.3101,2.3101,2.3101,2.3101,2.3101,2.3101,2.3101,2.3101,2.3101,2.3101,2.3101,2.3101,2.3101,2.3101,2.3101,2.3101,2.3101,2.3101,2.3101,2.3101,2.3101,2.3101,2.3101,2.3101,2.3101,2.3101,2.3101,2.3101,2.3276,2.375,2.418,2.4609,2.5086,2.5488,2.6112,2.7089,2.8578,3.0039,3.145,3.3553,3.4889,3.5475,3.6121,3.6405,3.6405,3.6405,3.6405,3.6405,3.6405,3.6405,3.6405,3.6405,3.6405,3.643,3.6732,3.696,3.7287,3.814,3.8793,3.9601,2.5693,2.5693,2.5693,2.5693,2.5693,2.5693,2.5693,2.5693,2.5693,2.5693,2.5693,2.5557,2.5215,2.5449,2.5625,2.5625,2.5625,2.487,2.3105,2.4068,2.3323,2.0239,1.9921,1.9193,1.7864,1.653,1.6394,1.7372,1.7372,1.7372,1.7358,1.6292,1.5784,1.5784,1.5784,1.5784,1.5784,1.5784,1.5685,1.5564,1.6444,1.6771,1.6891,1.7774,1.9094,2.0509,2.0509,2.1339,2.2492,2.2731,2.2775,2.2818,2.3038,2.3101,2.3101,2.3101,2.3101,2.3101,2.3101,2.314,2.3154,2.2934,2.2948,2.2986,2.2986,2.3124,2.3198,2.3198,2.3257,2.3315,2.3315,2.3315,2.3315,2.3315,2.3257,2.3237,2.3296,2.3179,2.312,2.3198,2.314,2.3101,2.3101,2.3159,2.3437,2.3867,2.4297,2.4727,2.5156,2.5527,2.5732,2.5791,2.7454,2.8621,2.9118,3.19,3.3718,3.4434,3.5523,3.6168,3.6405,3.6405,3.6405,3.6405,3.6405,3.6405,3.6405,3.6405,3.6405,3.6405,3.6405,3.6681,3.7111,3.7764,3.8718,3.9878,2.5693,2.5693,2.5693,2.5693,2.5693,2.5693,2.5693,2.5693,2.5693,2.5693,2.5693,2.5674,2.5596,2.5352,2.5156,2.5156,2.5156,2.4546,2.3087,2.3184,2.2549,2.0917,1.9452,1.8615,1.8375,1.6961,1.6182,1.6055,1.6055,1.6055,1.6055,1.5879,1.5784,1.5784,1.5784,1.5784,1.5784,1.5784,1.5758,1.5765,1.5907,1.6617,1.755,1.7688,1.8577,1.9641,1.9641,1.981,2.0133,2.1212,2.1525,2.1702,2.2775,2.3101,2.3101,2.3101,2.3101,2.3101,2.3101,2.3418,2.3422,2.2272,2.2252,2.2488,2.2488,2.3126,2.3711,2.3711,2.3984,2.4238,2.4238,2.4238,2.4238,2.4238,2.3945,2.3828,2.4199,2.3569,2.3237,2.3652,2.3379,2.3101,2.3101,2.3477,2.3887,2.4297,2.4727,2.5176,2.5577,2.5654,2.5918,2.6289,2.757,2.867,2.9602,3.1075,3.265,3.4385,3.4581,3.5283,3.6405,3.6405,3.6405,3.6405,3.6405,3.6405,3.6405,3.6405,3.6405,3.6405,3.6405,3.6455,3.6656,3.7638,3.8718,3.9878,2.5693,2.5693,2.5771,2.6055,2.5849,2.5771,2.6055,2.5898,2.5693,2.5693,2.5693,2.5693,2.5693,2.5566,2.5449,2.5449,2.5449,2.4522,2.2408,2.2969,2.2025,1.8998,1.8899,1.8452,1.7484,1.6878,1.6366,1.6072,1.5912,1.5784,1.5784,1.5784,1.5784,1.5784,1.5784,1.5784,1.5784,1.5784,1.5784,1.5784,1.5784,1.615,1.6622,1.6622,1.7404,1.8596,1.9268,1.9497,1.9588,2.0116,2.0296,2.0387,2.0899,2.1543,2.2076,2.2076,2.258,2.3008,2.2528,2.2535,2.2401,2.1298,2.1139,2.1306,2.1306,2.177,2.2586,2.3859,2.4277,2.4414,2.4414,2.4414,2.4414,2.4414,2.4258,2.4199,2.4394,2.3887,2.3477,2.3437,2.3218,2.3101,2.3101,2.3535,2.3965,2.4375,2.4824,2.5273,2.5674,2.5693,2.5937,2.6387,2.6913,2.7663,2.8551,2.9838,3.1061,3.2151,3.3674,3.5114,3.6405,3.6405,3.6405,3.6405,3.6405,3.6405,3.6405,3.6405,3.6405,3.6405,3.6405,3.6606,3.7008,3.8065,3.8793,3.9372]}]]